<?xml version="1.0" encoding="UTF-8" standalone="no" ?>
<gpx xmlns="http://www.topografix.com/GPX/1/1" xmlns:xsi="http://www.w3.org/2001/XMLSchema-instance" xsi:schemaLocation="http://www.topografix.com/GPX/1/1 http://www.topografix.com/GPX/1/1/gpx.xsd" version="1.1" creator="VisuGPX - https://www.visugpx.com">
  <metadata>
    <name>12.11.23 CP La Justice / La Miotte</name>
    <desc><![CDATA[Parcours de nuit]]></desc>
  </metadata>
  <trk>
    <name><![CDATA[12.11.23 CP La Justice / La Miotte_1]]></name>
    <trkseg>
      <trkpt lat="47.63537" lon="6.85588">
        <ele>367.863831</ele>
        <time>2012-11-23T19:18:23+100</time>
      </trkpt>
      <trkpt lat="47.63515" lon="6.85623">
        <ele>353.94265</ele>
        <time>2012-11-23T19:18:40+100</time>
      </trkpt>
      <trkpt lat="47.63517" lon="6.85654">
        <ele>353.942657</ele>
        <time>2012-11-23T19:18:50+100</time>
      </trkpt>
      <trkpt lat="47.63517" lon="6.85661">
        <ele>353.942665</ele>
        <time>2012-11-23T19:18:51+100</time>
      </trkpt>
      <trkpt lat="47.63518" lon="6.8569">
        <ele>353.942669</ele>
        <time>2012-11-23T19:18:56+100</time>
      </trkpt>
      <trkpt lat="47.6352" lon="6.85704">
        <ele>353.942673</ele>
        <time>2012-11-23T19:18:58+100</time>
      </trkpt>
      <trkpt lat="47.63521" lon="6.85709">
        <ele>352.942677</ele>
        <time>2012-11-23T19:18:59+100</time>
      </trkpt>
      <trkpt lat="47.63522" lon="6.85714">
        <ele>351.942677</ele>
        <time>2012-11-23T19:19:01+100</time>
      </trkpt>
      <trkpt lat="47.63522" lon="6.85718">
        <ele>351.94268</ele>
        <time>2012-11-23T19:19:01+100</time>
      </trkpt>
      <trkpt lat="47.63523" lon="6.85721">
        <ele>351.94268</ele>
        <time>2012-11-23T19:19:02+100</time>
      </trkpt>
      <trkpt lat="47.63523" lon="6.85726">
        <ele>350.94268</ele>
        <time>2012-11-23T19:19:03+100</time>
      </trkpt>
      <trkpt lat="47.63524" lon="6.85734">
        <ele>349.942688</ele>
        <time>2012-11-23T19:19:05+100</time>
      </trkpt>
      <trkpt lat="47.63524" lon="6.85737">
        <ele>349.942688</ele>
        <time>2012-11-23T19:19:06+100</time>
      </trkpt>
      <trkpt lat="47.63525" lon="6.85739">
        <ele>349.942684</ele>
        <time>2012-11-23T19:19:07+100</time>
      </trkpt>
      <trkpt lat="47.63525" lon="6.85741">
        <ele>349.942688</ele>
        <time>2012-11-23T19:19:08+100</time>
      </trkpt>
      <trkpt lat="47.63526" lon="6.85742">
        <ele>349.942688</ele>
        <time>2012-11-23T19:19:09+100</time>
      </trkpt>
      <trkpt lat="47.63526" lon="6.85744">
        <ele>348.942692</ele>
        <time>2012-11-23T19:19:10+100</time>
      </trkpt>
      <trkpt lat="47.63526" lon="6.85749">
        <ele>349.942692</ele>
        <time>2012-11-23T19:19:12+100</time>
      </trkpt>
      <trkpt lat="47.63526" lon="6.8575">
        <ele>349.942688</ele>
        <time>2012-11-23T19:19:13+100</time>
      </trkpt>
      <trkpt lat="47.63529" lon="6.85765">
        <ele>353.942696</ele>
        <time>2012-11-23T19:19:20+100</time>
      </trkpt>
      <trkpt lat="47.63533" lon="6.85781">
        <ele>353.942703</ele>
        <time>2012-11-23T19:19:25+100</time>
      </trkpt>
      <trkpt lat="47.63534" lon="6.85784">
        <ele>353.942711</ele>
        <time>2012-11-23T19:19:26+100</time>
      </trkpt>
      <trkpt lat="47.63535" lon="6.85786">
        <ele>352.942711</ele>
        <time>2012-11-23T19:19:27+100</time>
      </trkpt>
      <trkpt lat="47.63535" lon="6.85789">
        <ele>352.942711</ele>
        <time>2012-11-23T19:19:28+100</time>
      </trkpt>
      <trkpt lat="47.63536" lon="6.85792">
        <ele>352.942711</ele>
        <time>2012-11-23T19:19:29+100</time>
      </trkpt>
      <trkpt lat="47.63537" lon="6.85793">
        <ele>352.942715</ele>
        <time>2012-11-23T19:19:30+100</time>
      </trkpt>
      <trkpt lat="47.63538" lon="6.85796">
        <ele>352.942715</ele>
        <time>2012-11-23T19:19:31+100</time>
      </trkpt>
      <trkpt lat="47.63538" lon="6.85797">
        <ele>352.942719</ele>
        <time>2012-11-23T19:19:32+100</time>
      </trkpt>
      <trkpt lat="47.63542" lon="6.85805">
        <ele>353.942726</ele>
        <time>2012-11-23T19:19:38+100</time>
      </trkpt>
      <trkpt lat="47.63544" lon="6.85806">
        <ele>353.94273</ele>
        <time>2012-11-23T19:19:38+100</time>
      </trkpt>
      <trkpt lat="47.63545" lon="6.85807">
        <ele>353.94273</ele>
        <time>2012-11-23T19:19:39+100</time>
      </trkpt>
      <trkpt lat="47.63546" lon="6.85808">
        <ele>354.942734</ele>
        <time>2012-11-23T19:19:40+100</time>
      </trkpt>
      <trkpt lat="47.63548" lon="6.85809">
        <ele>354.942734</ele>
        <time>2012-11-23T19:19:41+100</time>
      </trkpt>
      <trkpt lat="47.63549" lon="6.8581">
        <ele>354.942738</ele>
        <time>2012-11-23T19:19:42+100</time>
      </trkpt>
      <trkpt lat="47.63551" lon="6.8581">
        <ele>353.942738</ele>
        <time>2012-11-23T19:19:43+100</time>
      </trkpt>
      <trkpt lat="47.63553" lon="6.85811">
        <ele>353.942741</ele>
        <time>2012-11-23T19:19:44+100</time>
      </trkpt>
      <trkpt lat="47.63554" lon="6.85811">
        <ele>353.942745</ele>
        <time>2012-11-23T19:19:45+100</time>
      </trkpt>
      <trkpt lat="47.63559" lon="6.85812">
        <ele>355.942757</ele>
        <time>2012-11-23T19:19:49+100</time>
      </trkpt>
      <trkpt lat="47.63564" lon="6.85815">
        <ele>356.942764</ele>
        <time>2012-11-23T19:19:56+100</time>
      </trkpt>
      <trkpt lat="47.63565" lon="6.85815">
        <ele>356.942764</ele>
        <time>2012-11-23T19:19:57+100</time>
      </trkpt>
      <trkpt lat="47.63568" lon="6.85816">
        <ele>354.942764</ele>
        <time>2012-11-23T19:20:01+100</time>
      </trkpt>
      <trkpt lat="47.63569" lon="6.85816">
        <ele>354.942772</ele>
        <time>2012-11-23T19:20:02+100</time>
      </trkpt>
      <trkpt lat="47.63571" lon="6.85817">
        <ele>354.942772</ele>
        <time>2012-11-23T19:20:03+100</time>
      </trkpt>
      <trkpt lat="47.63573" lon="6.85818">
        <ele>353.942776</ele>
        <time>2012-11-23T19:20:04+100</time>
      </trkpt>
      <trkpt lat="47.63581" lon="6.8582">
        <ele>352.942791</ele>
        <time>2012-11-23T19:20:08+100</time>
      </trkpt>
      <trkpt lat="47.63583" lon="6.85821">
        <ele>351.942791</ele>
        <time>2012-11-23T19:20:09+100</time>
      </trkpt>
      <trkpt lat="47.63585" lon="6.85823">
        <ele>351.942795</ele>
        <time>2012-11-23T19:20:10+100</time>
      </trkpt>
      <trkpt lat="47.63586" lon="6.85825">
        <ele>351.942799</ele>
        <time>2012-11-23T19:20:11+100</time>
      </trkpt>
      <trkpt lat="47.6359" lon="6.85831">
        <ele>347.942806</ele>
        <time>2012-11-23T19:20:14+100</time>
      </trkpt>
      <trkpt lat="47.63591" lon="6.85833">
        <ele>347.94281</ele>
        <time>2012-11-23T19:20:15+100</time>
      </trkpt>
      <trkpt lat="47.63596" lon="6.85839">
        <ele>348.942814</ele>
        <time>2012-11-23T19:20:18+100</time>
      </trkpt>
      <trkpt lat="47.63598" lon="6.85842">
        <ele>348.942822</ele>
        <time>2012-11-23T19:20:19+100</time>
      </trkpt>
      <trkpt lat="47.63599" lon="6.85845">
        <ele>347.942825</ele>
        <time>2012-11-23T19:20:20+100</time>
      </trkpt>
      <trkpt lat="47.63601" lon="6.85848">
        <ele>347.942829</ele>
        <time>2012-11-23T19:20:21+100</time>
      </trkpt>
      <trkpt lat="47.63603" lon="6.85852">
        <ele>347.942829</ele>
        <time>2012-11-23T19:20:23+100</time>
      </trkpt>
      <trkpt lat="47.63605" lon="6.85856">
        <ele>346.942837</ele>
        <time>2012-11-23T19:20:23+100</time>
      </trkpt>
      <trkpt lat="47.63607" lon="6.8586">
        <ele>345.942837</ele>
        <time>2012-11-23T19:20:25+100</time>
      </trkpt>
      <trkpt lat="47.63609" lon="6.85864">
        <ele>342.942837</ele>
        <time>2012-11-23T19:20:25+100</time>
      </trkpt>
      <trkpt lat="47.63611" lon="6.85868">
        <ele>341.942844</ele>
        <time>2012-11-23T19:20:26+100</time>
      </trkpt>
      <trkpt lat="47.63612" lon="6.85871">
        <ele>339.942844</ele>
        <time>2012-11-23T19:20:27+100</time>
      </trkpt>
      <trkpt lat="47.63614" lon="6.85874">
        <ele>338.942848</ele>
        <time>2012-11-23T19:20:28+100</time>
      </trkpt>
      <trkpt lat="47.63616" lon="6.85877">
        <ele>337.942852</ele>
        <time>2012-11-23T19:20:29+100</time>
      </trkpt>
      <trkpt lat="47.63618" lon="6.85881">
        <ele>336.942856</ele>
        <time>2012-11-23T19:20:30+100</time>
      </trkpt>
      <trkpt lat="47.63619" lon="6.85884">
        <ele>336.94286</ele>
        <time>2012-11-23T19:20:31+100</time>
      </trkpt>
      <trkpt lat="47.63621" lon="6.85887">
        <ele>336.942863</ele>
        <time>2012-11-23T19:20:32+100</time>
      </trkpt>
      <trkpt lat="47.63623" lon="6.8589">
        <ele>335.942867</ele>
        <time>2012-11-23T19:20:33+100</time>
      </trkpt>
      <trkpt lat="47.63625" lon="6.85893">
        <ele>335.942871</ele>
        <time>2012-11-23T19:20:34+100</time>
      </trkpt>
      <trkpt lat="47.63627" lon="6.85896">
        <ele>334.942875</ele>
        <time>2012-11-23T19:20:35+100</time>
      </trkpt>
      <trkpt lat="47.63629" lon="6.85898">
        <ele>335.942879</ele>
        <time>2012-11-23T19:20:36+100</time>
      </trkpt>
      <trkpt lat="47.63631" lon="6.85901">
        <ele>336.942883</ele>
        <time>2012-11-23T19:20:37+100</time>
      </trkpt>
      <trkpt lat="47.63633" lon="6.85904">
        <ele>337.942886</ele>
        <time>2012-11-23T19:20:38+100</time>
      </trkpt>
      <trkpt lat="47.63636" lon="6.85906">
        <ele>339.94289</ele>
        <time>2012-11-23T19:20:39+100</time>
      </trkpt>
      <trkpt lat="47.63638" lon="6.85909">
        <ele>340.942894</ele>
        <time>2012-11-23T19:20:40+100</time>
      </trkpt>
      <trkpt lat="47.6364" lon="6.85911">
        <ele>340.942902</ele>
        <time>2012-11-23T19:20:41+100</time>
      </trkpt>
      <trkpt lat="47.63642" lon="6.85914">
        <ele>341.942902</ele>
        <time>2012-11-23T19:20:42+100</time>
      </trkpt>
      <trkpt lat="47.63644" lon="6.85917">
        <ele>341.942905</ele>
        <time>2012-11-23T19:20:43+100</time>
      </trkpt>
      <trkpt lat="47.63646" lon="6.85919">
        <ele>341.942909</ele>
        <time>2012-11-23T19:20:44+100</time>
      </trkpt>
      <trkpt lat="47.63648" lon="6.85921">
        <ele>341.942909</ele>
        <time>2012-11-23T19:20:45+100</time>
      </trkpt>
      <trkpt lat="47.6365" lon="6.85924">
        <ele>342.942921</ele>
        <time>2012-11-23T19:20:46+100</time>
      </trkpt>
      <trkpt lat="47.63652" lon="6.85927">
        <ele>343.942917</ele>
        <time>2012-11-23T19:20:47+100</time>
      </trkpt>
      <trkpt lat="47.63654" lon="6.85929">
        <ele>344.942921</ele>
        <time>2012-11-23T19:20:48+100</time>
      </trkpt>
      <trkpt lat="47.63655" lon="6.85933">
        <ele>345.942928</ele>
        <time>2012-11-23T19:20:49+100</time>
      </trkpt>
      <trkpt lat="47.63657" lon="6.85936">
        <ele>345.942928</ele>
        <time>2012-11-23T19:20:50+100</time>
      </trkpt>
      <trkpt lat="47.63659" lon="6.85939">
        <ele>346.942932</ele>
        <time>2012-11-23T19:20:51+100</time>
      </trkpt>
      <trkpt lat="47.63661" lon="6.85942">
        <ele>346.942936</ele>
        <time>2012-11-23T19:20:52+100</time>
      </trkpt>
      <trkpt lat="47.63662" lon="6.85944">
        <ele>347.942936</ele>
        <time>2012-11-23T19:20:53+100</time>
      </trkpt>
      <trkpt lat="47.63663" lon="6.85946">
        <ele>347.942936</ele>
        <time>2012-11-23T19:20:54+100</time>
      </trkpt>
      <trkpt lat="47.63664" lon="6.85948">
        <ele>347.942944</ele>
        <time>2012-11-23T19:20:55+100</time>
      </trkpt>
      <trkpt lat="47.63665" lon="6.85949">
        <ele>348.942947</ele>
        <time>2012-11-23T19:20:57+100</time>
      </trkpt>
      <trkpt lat="47.63666" lon="6.85951">
        <ele>348.942947</ele>
        <time>2012-11-23T19:20:57+100</time>
      </trkpt>
      <trkpt lat="47.63666" lon="6.85952">
        <ele>349.942947</ele>
        <time>2012-11-23T19:20:58+100</time>
      </trkpt>
      <trkpt lat="47.63667" lon="6.85953">
        <ele>351.942951</ele>
        <time>2012-11-23T19:20:59+100</time>
      </trkpt>
      <trkpt lat="47.63668" lon="6.85954">
        <ele>352.942951</ele>
        <time>2012-11-23T19:21:00+100</time>
      </trkpt>
      <trkpt lat="47.63669" lon="6.85956">
        <ele>353.942951</ele>
        <time>2012-11-23T19:21:01+100</time>
      </trkpt>
      <trkpt lat="47.6367" lon="6.85958">
        <ele>354.942955</ele>
        <time>2012-11-23T19:21:02+100</time>
      </trkpt>
      <trkpt lat="47.63671" lon="6.8596">
        <ele>354.942955</ele>
        <time>2012-11-23T19:21:03+100</time>
      </trkpt>
      <trkpt lat="47.63672" lon="6.85963">
        <ele>354.942955</ele>
        <time>2012-11-23T19:21:04+100</time>
      </trkpt>
      <trkpt lat="47.63673" lon="6.85966">
        <ele>354.942963</ele>
        <time>2012-11-23T19:21:05+100</time>
      </trkpt>
      <trkpt lat="47.63673" lon="6.85969">
        <ele>354.942959</ele>
        <time>2012-11-23T19:21:06+100</time>
      </trkpt>
      <trkpt lat="47.63674" lon="6.85973">
        <ele>354.942963</ele>
        <time>2012-11-23T19:21:07+100</time>
      </trkpt>
      <trkpt lat="47.63674" lon="6.85976">
        <ele>354.942963</ele>
        <time>2012-11-23T19:21:08+100</time>
      </trkpt>
      <trkpt lat="47.63674" lon="6.8598">
        <ele>354.942963</ele>
        <time>2012-11-23T19:21:09+100</time>
      </trkpt>
      <trkpt lat="47.63675" lon="6.85983">
        <ele>354.942966</ele>
        <time>2012-11-23T19:21:10+100</time>
      </trkpt>
      <trkpt lat="47.63675" lon="6.85985">
        <ele>354.94297</ele>
        <time>2012-11-23T19:21:11+100</time>
      </trkpt>
      <trkpt lat="47.63675" lon="6.85987">
        <ele>354.94297</ele>
        <time>2012-11-23T19:21:12+100</time>
      </trkpt>
      <trkpt lat="47.63675" lon="6.85987">
        <ele>355.94297</ele>
        <time>2012-11-23T19:21:13+100</time>
      </trkpt>
      <trkpt lat="47.63675" lon="6.85989">
        <ele>355.94297</ele>
        <time>2012-11-23T19:21:14+100</time>
      </trkpt>
      <trkpt lat="47.63676" lon="6.8599">
        <ele>355.94297</ele>
        <time>2012-11-23T19:21:15+100</time>
      </trkpt>
      <trkpt lat="47.63677" lon="6.85993">
        <ele>355.94297</ele>
        <time>2012-11-23T19:21:16+100</time>
      </trkpt>
      <trkpt lat="47.63678" lon="6.85996">
        <ele>356.94297</ele>
        <time>2012-11-23T19:21:17+100</time>
      </trkpt>
      <trkpt lat="47.63679" lon="6.85999">
        <ele>356.942978</ele>
        <time>2012-11-23T19:21:18+100</time>
      </trkpt>
      <trkpt lat="47.6368" lon="6.86002">
        <ele>356.942978</ele>
        <time>2012-11-23T19:21:19+100</time>
      </trkpt>
      <trkpt lat="47.63683" lon="6.86006">
        <ele>356.942986</ele>
        <time>2012-11-23T19:21:20+100</time>
      </trkpt>
      <trkpt lat="47.63685" lon="6.8601">
        <ele>356.942986</ele>
        <time>2012-11-23T19:21:21+100</time>
      </trkpt>
      <trkpt lat="47.63687" lon="6.86014">
        <ele>356.942993</ele>
        <time>2012-11-23T19:21:22+100</time>
      </trkpt>
      <trkpt lat="47.63689" lon="6.86017">
        <ele>357.942993</ele>
        <time>2012-11-23T19:21:23+100</time>
      </trkpt>
      <trkpt lat="47.63691" lon="6.8602">
        <ele>357.943001</ele>
        <time>2012-11-23T19:21:24+100</time>
      </trkpt>
      <trkpt lat="47.63693" lon="6.86023">
        <ele>357.943001</ele>
        <time>2012-11-23T19:21:25+100</time>
      </trkpt>
      <trkpt lat="47.63696" lon="6.86025">
        <ele>357.943005</ele>
        <time>2012-11-23T19:21:26+100</time>
      </trkpt>
      <trkpt lat="47.63698" lon="6.86027">
        <ele>358.943012</ele>
        <time>2012-11-23T19:21:27+100</time>
      </trkpt>
      <trkpt lat="47.63701" lon="6.86029">
        <ele>358.943016</ele>
        <time>2012-11-23T19:21:28+100</time>
      </trkpt>
      <trkpt lat="47.63703" lon="6.86032">
        <ele>359.943016</ele>
        <time>2012-11-23T19:21:29+100</time>
      </trkpt>
      <trkpt lat="47.63705" lon="6.86034">
        <ele>359.943024</ele>
        <time>2012-11-23T19:21:30+100</time>
      </trkpt>
      <trkpt lat="47.63707" lon="6.86036">
        <ele>360.943027</ele>
        <time>2012-11-23T19:21:31+100</time>
      </trkpt>
      <trkpt lat="47.63709" lon="6.86038">
        <ele>361.943031</ele>
        <time>2012-11-23T19:21:32+100</time>
      </trkpt>
      <trkpt lat="47.63711" lon="6.86041">
        <ele>361.943031</ele>
        <time>2012-11-23T19:21:33+100</time>
      </trkpt>
      <trkpt lat="47.63713" lon="6.86044">
        <ele>362.943039</ele>
        <time>2012-11-23T19:21:34+100</time>
      </trkpt>
      <trkpt lat="47.63715" lon="6.86047">
        <ele>362.943039</ele>
        <time>2012-11-23T19:21:35+100</time>
      </trkpt>
      <trkpt lat="47.63716" lon="6.86049">
        <ele>363.943043</ele>
        <time>2012-11-23T19:21:36+100</time>
      </trkpt>
      <trkpt lat="47.63718" lon="6.86052">
        <ele>364.943047</ele>
        <time>2012-11-23T19:21:37+100</time>
      </trkpt>
      <trkpt lat="47.6372" lon="6.86054">
        <ele>365.94305</ele>
        <time>2012-11-23T19:21:38+100</time>
      </trkpt>
      <trkpt lat="47.63721" lon="6.86057">
        <ele>366.943054</ele>
        <time>2012-11-23T19:21:40+100</time>
      </trkpt>
      <trkpt lat="47.63722" lon="6.8606">
        <ele>366.943054</ele>
        <time>2012-11-23T19:21:40+100</time>
      </trkpt>
      <trkpt lat="47.63724" lon="6.86062">
        <ele>366.943054</ele>
        <time>2012-11-23T19:21:41+100</time>
      </trkpt>
      <trkpt lat="47.63725" lon="6.86065">
        <ele>367.943062</ele>
        <time>2012-11-23T19:21:42+100</time>
      </trkpt>
      <trkpt lat="47.63726" lon="6.86068">
        <ele>367.943066</ele>
        <time>2012-11-23T19:21:43+100</time>
      </trkpt>
      <trkpt lat="47.63727" lon="6.86071">
        <ele>367.943066</ele>
        <time>2012-11-23T19:21:44+100</time>
      </trkpt>
      <trkpt lat="47.63728" lon="6.86074">
        <ele>368.943066</ele>
        <time>2012-11-23T19:21:45+100</time>
      </trkpt>
      <trkpt lat="47.63729" lon="6.86078">
        <ele>369.943069</ele>
        <time>2012-11-23T19:21:46+100</time>
      </trkpt>
      <trkpt lat="47.6373" lon="6.86081">
        <ele>369.943069</ele>
        <time>2012-11-23T19:21:47+100</time>
      </trkpt>
      <trkpt lat="47.63731" lon="6.86085">
        <ele>371.943073</ele>
        <time>2012-11-23T19:21:48+100</time>
      </trkpt>
      <trkpt lat="47.63735" lon="6.86097">
        <ele>375.943081</ele>
        <time>2012-11-23T19:21:52+100</time>
      </trkpt>
      <trkpt lat="47.6374" lon="6.8611">
        <ele>375.943089</ele>
        <time>2012-11-23T19:21:57+100</time>
      </trkpt>
      <trkpt lat="47.63741" lon="6.86113">
        <ele>375.943092</ele>
        <time>2012-11-23T19:21:58+100</time>
      </trkpt>
      <trkpt lat="47.63742" lon="6.86115">
        <ele>375.943096</ele>
        <time>2012-11-23T19:21:59+100</time>
      </trkpt>
      <trkpt lat="47.63742" lon="6.86118">
        <ele>375.943096</ele>
        <time>2012-11-23T19:22:00+100</time>
      </trkpt>
      <trkpt lat="47.63743" lon="6.86128">
        <ele>375.943096</ele>
        <time>2012-11-23T19:22:03+100</time>
      </trkpt>
      <trkpt lat="47.63743" lon="6.86133">
        <ele>375.9431</ele>
        <time>2012-11-23T19:22:04+100</time>
      </trkpt>
      <trkpt lat="47.63743" lon="6.86137">
        <ele>374.943104</ele>
        <time>2012-11-23T19:22:05+100</time>
      </trkpt>
      <trkpt lat="47.63743" lon="6.8614">
        <ele>373.9431</ele>
        <time>2012-11-23T19:22:06+100</time>
      </trkpt>
      <trkpt lat="47.63743" lon="6.86144">
        <ele>372.9431</ele>
        <time>2012-11-23T19:22:08+100</time>
      </trkpt>
      <trkpt lat="47.63742" lon="6.86148">
        <ele>372.943104</ele>
        <time>2012-11-23T19:22:08+100</time>
      </trkpt>
      <trkpt lat="47.63741" lon="6.86151">
        <ele>371.943104</ele>
        <time>2012-11-23T19:22:09+100</time>
      </trkpt>
      <trkpt lat="47.63741" lon="6.86155">
        <ele>371.943104</ele>
        <time>2012-11-23T19:22:11+100</time>
      </trkpt>
      <trkpt lat="47.6374" lon="6.86159">
        <ele>371.9431</ele>
        <time>2012-11-23T19:22:11+100</time>
      </trkpt>
      <trkpt lat="47.63739" lon="6.86162">
        <ele>371.9431</ele>
        <time>2012-11-23T19:22:12+100</time>
      </trkpt>
      <trkpt lat="47.63738" lon="6.86165">
        <ele>370.9431</ele>
        <time>2012-11-23T19:22:13+100</time>
      </trkpt>
      <trkpt lat="47.63737" lon="6.86169">
        <ele>370.9431</ele>
        <time>2012-11-23T19:22:14+100</time>
      </trkpt>
      <trkpt lat="47.63736" lon="6.86172">
        <ele>369.943096</ele>
        <time>2012-11-23T19:22:15+100</time>
      </trkpt>
      <trkpt lat="47.63735" lon="6.86175">
        <ele>369.943092</ele>
        <time>2012-11-23T19:22:16+100</time>
      </trkpt>
      <trkpt lat="47.63733" lon="6.86177">
        <ele>368.943096</ele>
        <time>2012-11-23T19:22:17+100</time>
      </trkpt>
      <trkpt lat="47.63732" lon="6.8618">
        <ele>368.943092</ele>
        <time>2012-11-23T19:22:18+100</time>
      </trkpt>
      <trkpt lat="47.63731" lon="6.86182">
        <ele>368.943092</ele>
        <time>2012-11-23T19:22:19+100</time>
      </trkpt>
      <trkpt lat="47.63729" lon="6.86185">
        <ele>367.943089</ele>
        <time>2012-11-23T19:22:20+100</time>
      </trkpt>
      <trkpt lat="47.63728" lon="6.86188">
        <ele>367.943085</ele>
        <time>2012-11-23T19:22:21+100</time>
      </trkpt>
      <trkpt lat="47.63726" lon="6.8619">
        <ele>367.943085</ele>
        <time>2012-11-23T19:22:22+100</time>
      </trkpt>
      <trkpt lat="47.63725" lon="6.86193">
        <ele>367.943081</ele>
        <time>2012-11-23T19:22:23+100</time>
      </trkpt>
      <trkpt lat="47.63723" lon="6.86195">
        <ele>367.943081</ele>
        <time>2012-11-23T19:22:24+100</time>
      </trkpt>
      <trkpt lat="47.63722" lon="6.86198">
        <ele>367.943077</ele>
        <time>2012-11-23T19:22:25+100</time>
      </trkpt>
      <trkpt lat="47.63721" lon="6.86201">
        <ele>367.943077</ele>
        <time>2012-11-23T19:22:26+100</time>
      </trkpt>
      <trkpt lat="47.6372" lon="6.86204">
        <ele>367.943081</ele>
        <time>2012-11-23T19:22:27+100</time>
      </trkpt>
      <trkpt lat="47.6372" lon="6.86207">
        <ele>367.943073</ele>
        <time>2012-11-23T19:22:28+100</time>
      </trkpt>
      <trkpt lat="47.63719" lon="6.86211">
        <ele>367.943077</ele>
        <time>2012-11-23T19:22:29+100</time>
      </trkpt>
      <trkpt lat="47.63719" lon="6.86214">
        <ele>367.943077</ele>
        <time>2012-11-23T19:22:30+100</time>
      </trkpt>
      <trkpt lat="47.63719" lon="6.86218">
        <ele>366.943077</ele>
        <time>2012-11-23T19:22:31+100</time>
      </trkpt>
      <trkpt lat="47.63719" lon="6.86221">
        <ele>366.943077</ele>
        <time>2012-11-23T19:22:32+100</time>
      </trkpt>
      <trkpt lat="47.63721" lon="6.86224">
        <ele>366.943085</ele>
        <time>2012-11-23T19:22:33+100</time>
      </trkpt>
      <trkpt lat="47.63723" lon="6.86228">
        <ele>366.943089</ele>
        <time>2012-11-23T19:22:34+100</time>
      </trkpt>
      <trkpt lat="47.63724" lon="6.8623">
        <ele>366.943085</ele>
        <time>2012-11-23T19:22:35+100</time>
      </trkpt>
      <trkpt lat="47.63726" lon="6.86233">
        <ele>366.943092</ele>
        <time>2012-11-23T19:22:36+100</time>
      </trkpt>
      <trkpt lat="47.63727" lon="6.86232">
        <ele>366.943089</ele>
        <time>2012-11-23T19:22:37+100</time>
      </trkpt>
      <trkpt lat="47.63734" lon="6.8624">
        <ele>366.943108</ele>
        <time>2012-11-23T19:22:45+100</time>
      </trkpt>
      <trkpt lat="47.63736" lon="6.86242">
        <ele>367.943108</ele>
        <time>2012-11-23T19:22:46+100</time>
      </trkpt>
      <trkpt lat="47.63737" lon="6.86245">
        <ele>367.943111</ele>
        <time>2012-11-23T19:22:48+100</time>
      </trkpt>
      <trkpt lat="47.63741" lon="6.86258">
        <ele>367.943123</ele>
        <time>2012-11-23T19:22:51+100</time>
      </trkpt>
      <trkpt lat="47.63742" lon="6.86262">
        <ele>367.943123</ele>
        <time>2012-11-23T19:22:52+100</time>
      </trkpt>
      <trkpt lat="47.63742" lon="6.86266">
        <ele>366.943123</ele>
        <time>2012-11-23T19:22:53+100</time>
      </trkpt>
      <trkpt lat="47.63742" lon="6.8627">
        <ele>366.943127</ele>
        <time>2012-11-23T19:22:54+100</time>
      </trkpt>
      <trkpt lat="47.63742" lon="6.86273">
        <ele>366.943123</ele>
        <time>2012-11-23T19:22:55+100</time>
      </trkpt>
      <trkpt lat="47.63742" lon="6.86278">
        <ele>365.943123</ele>
        <time>2012-11-23T19:22:56+100</time>
      </trkpt>
      <trkpt lat="47.63742" lon="6.86281">
        <ele>365.943123</ele>
        <time>2012-11-23T19:22:57+100</time>
      </trkpt>
      <trkpt lat="47.63741" lon="6.86284">
        <ele>365.943127</ele>
        <time>2012-11-23T19:22:58+100</time>
      </trkpt>
      <trkpt lat="47.6374" lon="6.86288">
        <ele>364.943123</ele>
        <time>2012-11-23T19:22:59+100</time>
      </trkpt>
      <trkpt lat="47.63735" lon="6.86301">
        <ele>366.943115</ele>
        <time>2012-11-23T19:23:04+100</time>
      </trkpt>
      <trkpt lat="47.63734" lon="6.86305">
        <ele>367.943119</ele>
        <time>2012-11-23T19:23:06+100</time>
      </trkpt>
      <trkpt lat="47.63733" lon="6.86308">
        <ele>367.943119</ele>
        <time>2012-11-23T19:23:07+100</time>
      </trkpt>
      <trkpt lat="47.63729" lon="6.86323">
        <ele>366.943115</ele>
        <time>2012-11-23T19:23:11+100</time>
      </trkpt>
      <trkpt lat="47.63727" lon="6.86329">
        <ele>366.943111</ele>
        <time>2012-11-23T19:23:14+100</time>
      </trkpt>
      <trkpt lat="47.63726" lon="6.86332">
        <ele>366.943108</ele>
        <time>2012-11-23T19:23:15+100</time>
      </trkpt>
      <trkpt lat="47.63723" lon="6.86343">
        <ele>367.943104</ele>
        <time>2012-11-23T19:23:20+100</time>
      </trkpt>
      <trkpt lat="47.63722" lon="6.86345">
        <ele>367.943108</ele>
        <time>2012-11-23T19:23:21+100</time>
      </trkpt>
      <trkpt lat="47.63721" lon="6.86347">
        <ele>367.943108</ele>
        <time>2012-11-23T19:23:23+100</time>
      </trkpt>
      <trkpt lat="47.63698" lon="6.86371">
        <ele>378.943073</ele>
        <time>2012-11-23T19:23:41+100</time>
      </trkpt>
      <trkpt lat="47.63693" lon="6.86387">
        <ele>379.943069</ele>
        <time>2012-11-23T19:23:48+100</time>
      </trkpt>
      <trkpt lat="47.63693" lon="6.86388">
        <ele>380.943066</ele>
        <time>2012-11-23T19:23:49+100</time>
      </trkpt>
      <trkpt lat="47.63692" lon="6.86391">
        <ele>380.943069</ele>
        <time>2012-11-23T19:23:50+100</time>
      </trkpt>
      <trkpt lat="47.63692" lon="6.86394">
        <ele>381.943069</ele>
        <time>2012-11-23T19:23:51+100</time>
      </trkpt>
      <trkpt lat="47.63692" lon="6.86396">
        <ele>381.943069</ele>
        <time>2012-11-23T19:23:52+100</time>
      </trkpt>
      <trkpt lat="47.63693" lon="6.86399">
        <ele>380.943069</ele>
        <time>2012-11-23T19:23:53+100</time>
      </trkpt>
      <trkpt lat="47.63693" lon="6.86402">
        <ele>380.943069</ele>
        <time>2012-11-23T19:23:54+100</time>
      </trkpt>
      <trkpt lat="47.63693" lon="6.86408">
        <ele>379.943073</ele>
        <time>2012-11-23T19:23:56+100</time>
      </trkpt>
      <trkpt lat="47.63694" lon="6.86412">
        <ele>379.943073</ele>
        <time>2012-11-23T19:23:57+100</time>
      </trkpt>
      <trkpt lat="47.63694" lon="6.86414">
        <ele>380.943073</ele>
        <time>2012-11-23T19:23:58+100</time>
      </trkpt>
      <trkpt lat="47.63694" lon="6.86417">
        <ele>380.943077</ele>
        <time>2012-11-23T19:23:59+100</time>
      </trkpt>
      <trkpt lat="47.63694" lon="6.86419">
        <ele>379.943073</ele>
        <time>2012-11-23T19:24:01+100</time>
      </trkpt>
      <trkpt lat="47.63694" lon="6.86421">
        <ele>379.943077</ele>
        <time>2012-11-23T19:24:01+100</time>
      </trkpt>
      <trkpt lat="47.63694" lon="6.86423">
        <ele>379.943077</ele>
        <time>2012-11-23T19:24:02+100</time>
      </trkpt>
      <trkpt lat="47.63694" lon="6.86425">
        <ele>379.943073</ele>
        <time>2012-11-23T19:24:03+100</time>
      </trkpt>
      <trkpt lat="47.63694" lon="6.86426">
        <ele>378.943077</ele>
        <time>2012-11-23T19:24:04+100</time>
      </trkpt>
      <trkpt lat="47.63694" lon="6.86428">
        <ele>378.943077</ele>
        <time>2012-11-23T19:24:05+100</time>
      </trkpt>
      <trkpt lat="47.63694" lon="6.86432">
        <ele>378.943081</ele>
        <time>2012-11-23T19:24:08+100</time>
      </trkpt>
      <trkpt lat="47.63694" lon="6.86434">
        <ele>378.943077</ele>
        <time>2012-11-23T19:24:09+100</time>
      </trkpt>
      <trkpt lat="47.63693" lon="6.86437">
        <ele>377.943077</ele>
        <time>2012-11-23T19:24:12+100</time>
      </trkpt>
      <trkpt lat="47.63693" lon="6.86438">
        <ele>377.943077</ele>
        <time>2012-11-23T19:24:13+100</time>
      </trkpt>
      <trkpt lat="47.63693" lon="6.8644">
        <ele>378.943077</ele>
        <time>2012-11-23T19:24:14+100</time>
      </trkpt>
      <trkpt lat="47.63693" lon="6.86441">
        <ele>378.943077</ele>
        <time>2012-11-23T19:24:15+100</time>
      </trkpt>
      <trkpt lat="47.63693" lon="6.86442">
        <ele>378.943077</ele>
        <time>2012-11-23T19:24:16+100</time>
      </trkpt>
      <trkpt lat="47.63693" lon="6.86443">
        <ele>378.943077</ele>
        <time>2012-11-23T19:24:17+100</time>
      </trkpt>
      <trkpt lat="47.63693" lon="6.86443">
        <ele>378.943077</ele>
        <time>2012-11-23T19:24:18+100</time>
      </trkpt>
      <trkpt lat="47.63693" lon="6.86445">
        <ele>377.943081</ele>
        <time>2012-11-23T19:24:20+100</time>
      </trkpt>
      <trkpt lat="47.63693" lon="6.86445">
        <ele>378.943081</ele>
        <time>2012-11-23T19:24:21+100</time>
      </trkpt>
      <trkpt lat="47.63693" lon="6.86446">
        <ele>378.943081</ele>
        <time>2012-11-23T19:24:22+100</time>
      </trkpt>
      <trkpt lat="47.63693" lon="6.86447">
        <ele>378.943077</ele>
        <time>2012-11-23T19:24:23+100</time>
      </trkpt>
      <trkpt lat="47.63692" lon="6.86448">
        <ele>377.943077</ele>
        <time>2012-11-23T19:24:24+100</time>
      </trkpt>
      <trkpt lat="47.63692" lon="6.86448">
        <ele>377.943077</ele>
        <time>2012-11-23T19:24:25+100</time>
      </trkpt>
      <trkpt lat="47.63692" lon="6.86449">
        <ele>376.943077</ele>
        <time>2012-11-23T19:24:26+100</time>
      </trkpt>
      <trkpt lat="47.63692" lon="6.8645">
        <ele>376.943077</ele>
        <time>2012-11-23T19:24:28+100</time>
      </trkpt>
      <trkpt lat="47.63691" lon="6.86451">
        <ele>376.943073</ele>
        <time>2012-11-23T19:24:28+100</time>
      </trkpt>
      <trkpt lat="47.63691" lon="6.86451">
        <ele>375.943077</ele>
        <time>2012-11-23T19:24:29+100</time>
      </trkpt>
      <trkpt lat="47.63687" lon="6.86454">
        <ele>373.943069</ele>
        <time>2012-11-23T19:24:35+100</time>
      </trkpt>
      <trkpt lat="47.63687" lon="6.86455">
        <ele>373.943069</ele>
        <time>2012-11-23T19:24:36+100</time>
      </trkpt>
      <trkpt lat="47.63686" lon="6.86455">
        <ele>373.943073</ele>
        <time>2012-11-23T19:24:37+100</time>
      </trkpt>
      <trkpt lat="47.63678" lon="6.86463">
        <ele>375.943058</ele>
        <time>2012-11-23T19:24:54+100</time>
      </trkpt>
      <trkpt lat="47.63651" lon="6.86461">
        <ele>375.943016</ele>
        <time>2012-11-23T19:25:23+100</time>
      </trkpt>
      <trkpt lat="47.63588" lon="6.86399">
        <ele>377.942909</ele>
        <time>2012-11-23T19:25:47+100</time>
      </trkpt>
      <trkpt lat="47.63573" lon="6.86398">
        <ele>378.942883</ele>
        <time>2012-11-23T19:25:53+100</time>
      </trkpt>
      <trkpt lat="47.63569" lon="6.86398">
        <ele>378.942875</ele>
        <time>2012-11-23T19:25:55+100</time>
      </trkpt>
      <trkpt lat="47.63566" lon="6.86398">
        <ele>378.942871</ele>
        <time>2012-11-23T19:25:56+100</time>
      </trkpt>
      <trkpt lat="47.63564" lon="6.86399">
        <ele>378.942867</ele>
        <time>2012-11-23T19:25:57+100</time>
      </trkpt>
      <trkpt lat="47.63562" lon="6.86399">
        <ele>378.942863</ele>
        <time>2012-11-23T19:25:58+100</time>
      </trkpt>
      <trkpt lat="47.63559" lon="6.86399">
        <ele>378.942863</ele>
        <time>2012-11-23T19:25:59+100</time>
      </trkpt>
      <trkpt lat="47.6355" lon="6.86398">
        <ele>378.942848</ele>
        <time>2012-11-23T19:26:03+100</time>
      </trkpt>
      <trkpt lat="47.63542" lon="6.86398">
        <ele>378.942833</ele>
        <time>2012-11-23T19:26:06+100</time>
      </trkpt>
      <trkpt lat="47.6354" lon="6.86398">
        <ele>378.942833</ele>
        <time>2012-11-23T19:26:07+100</time>
      </trkpt>
      <trkpt lat="47.63537" lon="6.86399">
        <ele>377.942829</ele>
        <time>2012-11-23T19:26:08+100</time>
      </trkpt>
      <trkpt lat="47.63535" lon="6.86399">
        <ele>377.942825</ele>
        <time>2012-11-23T19:26:09+100</time>
      </trkpt>
      <trkpt lat="47.63519" lon="6.86397">
        <ele>377.942795</ele>
        <time>2012-11-23T19:26:16+100</time>
      </trkpt>
      <trkpt lat="47.63508" lon="6.86395">
        <ele>377.94278</ele>
        <time>2012-11-23T19:26:21+100</time>
      </trkpt>
      <trkpt lat="47.63504" lon="6.86402">
        <ele>378.942772</ele>
        <time>2012-11-23T19:26:26+100</time>
      </trkpt>
      <trkpt lat="47.63517" lon="6.86383">
        <ele>378.942791</ele>
        <time>2012-11-23T19:26:32+100</time>
      </trkpt>
      <trkpt lat="47.63518" lon="6.86379">
        <ele>379.942795</ele>
        <time>2012-11-23T19:26:32+100</time>
      </trkpt>
      <trkpt lat="47.6349" lon="6.86362">
        <ele>383.942741</ele>
        <time>2012-11-23T19:26:49+100</time>
      </trkpt>
      <trkpt lat="47.63473" lon="6.86359">
        <ele>382.942715</ele>
        <time>2012-11-23T19:26:57+100</time>
      </trkpt>
      <trkpt lat="47.63471" lon="6.8636">
        <ele>382.942715</ele>
        <time>2012-11-23T19:26:58+100</time>
      </trkpt>
      <trkpt lat="47.63469" lon="6.8636">
        <ele>382.942715</ele>
        <time>2012-11-23T19:26:59+100</time>
      </trkpt>
      <trkpt lat="47.63464" lon="6.86361">
        <ele>383.942703</ele>
        <time>2012-11-23T19:27:02+100</time>
      </trkpt>
      <trkpt lat="47.63463" lon="6.86362">
        <ele>383.942703</ele>
        <time>2012-11-23T19:27:03+100</time>
      </trkpt>
      <trkpt lat="47.63461" lon="6.86363">
        <ele>383.942699</ele>
        <time>2012-11-23T19:27:04+100</time>
      </trkpt>
      <trkpt lat="47.63452" lon="6.86367">
        <ele>383.942688</ele>
        <time>2012-11-23T19:27:09+100</time>
      </trkpt>
      <trkpt lat="47.63446" lon="6.86369">
        <ele>382.94268</ele>
        <time>2012-11-23T19:27:12+100</time>
      </trkpt>
      <trkpt lat="47.63445" lon="6.8637">
        <ele>382.942677</ele>
        <time>2012-11-23T19:27:13+100</time>
      </trkpt>
      <trkpt lat="47.63443" lon="6.86371">
        <ele>382.942673</ele>
        <time>2012-11-23T19:27:14+100</time>
      </trkpt>
      <trkpt lat="47.63441" lon="6.86371">
        <ele>382.942669</ele>
        <time>2012-11-23T19:27:15+100</time>
      </trkpt>
      <trkpt lat="47.63439" lon="6.86372">
        <ele>382.942669</ele>
        <time>2012-11-23T19:27:16+100</time>
      </trkpt>
      <trkpt lat="47.63437" lon="6.86372">
        <ele>382.942665</ele>
        <time>2012-11-23T19:27:17+100</time>
      </trkpt>
      <trkpt lat="47.63426" lon="6.86376">
        <ele>380.94265</ele>
        <time>2012-11-23T19:27:22+100</time>
      </trkpt>
      <trkpt lat="47.63417" lon="6.86378">
        <ele>380.942631</ele>
        <time>2012-11-23T19:27:27+100</time>
      </trkpt>
      <trkpt lat="47.63411" lon="6.86379">
        <ele>380.942623</ele>
        <time>2012-11-23T19:27:30+100</time>
      </trkpt>
      <trkpt lat="47.6341" lon="6.8638">
        <ele>380.942619</ele>
        <time>2012-11-23T19:27:31+100</time>
      </trkpt>
      <trkpt lat="47.63405" lon="6.8638">
        <ele>381.942616</ele>
        <time>2012-11-23T19:27:33+100</time>
      </trkpt>
      <trkpt lat="47.63395" lon="6.86384">
        <ele>381.942596</ele>
        <time>2012-11-23T19:27:38+100</time>
      </trkpt>
      <trkpt lat="47.63394" lon="6.86384">
        <ele>381.942596</ele>
        <time>2012-11-23T19:27:39+100</time>
      </trkpt>
      <trkpt lat="47.63393" lon="6.86384">
        <ele>381.942596</ele>
        <time>2012-11-23T19:27:40+100</time>
      </trkpt>
      <trkpt lat="47.63386" lon="6.86384">
        <ele>383.942585</ele>
        <time>2012-11-23T19:27:48+100</time>
      </trkpt>
      <trkpt lat="47.63386" lon="6.86383">
        <ele>382.942585</ele>
        <time>2012-11-23T19:27:51+100</time>
      </trkpt>
      <trkpt lat="47.63385" lon="6.86383">
        <ele>383.942585</ele>
        <time>2012-11-23T19:27:55+100</time>
      </trkpt>
      <trkpt lat="47.63384" lon="6.86384">
        <ele>383.942585</ele>
        <time>2012-11-23T19:27:57+100</time>
      </trkpt>
      <trkpt lat="47.63384" lon="6.86384">
        <ele>383.942585</ele>
        <time>2012-11-23T19:28:12+100</time>
      </trkpt>
      <trkpt lat="47.63385" lon="6.86387">
        <ele>387.942581</ele>
        <time>2012-11-23T19:28:13+100</time>
      </trkpt>
      <trkpt lat="47.63386" lon="6.86388">
        <ele>388.942589</ele>
        <time>2012-11-23T19:28:38+100</time>
      </trkpt>
      <trkpt lat="47.63382" lon="6.86391">
        <ele>388.942581</ele>
        <time>2012-11-23T19:28:38+100</time>
      </trkpt>
      <trkpt lat="47.63381" lon="6.86394">
        <ele>388.942581</ele>
        <time>2012-11-23T19:28:40+100</time>
      </trkpt>
      <trkpt lat="47.63381" lon="6.86398">
        <ele>388.942581</ele>
        <time>2012-11-23T19:28:41+100</time>
      </trkpt>
      <trkpt lat="47.63381" lon="6.86401">
        <ele>388.942581</ele>
        <time>2012-11-23T19:28:41+100</time>
      </trkpt>
      <trkpt lat="47.63382" lon="6.86404">
        <ele>388.942585</ele>
        <time>2012-11-23T19:28:42+100</time>
      </trkpt>
      <trkpt lat="47.63382" lon="6.86407">
        <ele>388.942585</ele>
        <time>2012-11-23T19:28:43+100</time>
      </trkpt>
      <trkpt lat="47.63383" lon="6.8641">
        <ele>388.942589</ele>
        <time>2012-11-23T19:28:44+100</time>
      </trkpt>
      <trkpt lat="47.63384" lon="6.86412">
        <ele>388.942585</ele>
        <time>2012-11-23T19:28:45+100</time>
      </trkpt>
      <trkpt lat="47.63384" lon="6.86415">
        <ele>388.942593</ele>
        <time>2012-11-23T19:28:46+100</time>
      </trkpt>
      <trkpt lat="47.63385" lon="6.86417">
        <ele>389.942589</ele>
        <time>2012-11-23T19:28:47+100</time>
      </trkpt>
      <trkpt lat="47.63386" lon="6.8642">
        <ele>389.942589</ele>
        <time>2012-11-23T19:28:48+100</time>
      </trkpt>
      <trkpt lat="47.63388" lon="6.86424">
        <ele>389.942596</ele>
        <time>2012-11-23T19:28:49+100</time>
      </trkpt>
      <trkpt lat="47.6339" lon="6.86428">
        <ele>388.942604</ele>
        <time>2012-11-23T19:28:50+100</time>
      </trkpt>
      <trkpt lat="47.63392" lon="6.86432">
        <ele>389.942608</ele>
        <time>2012-11-23T19:28:52+100</time>
      </trkpt>
      <trkpt lat="47.63394" lon="6.86436">
        <ele>389.942608</ele>
        <time>2012-11-23T19:28:52+100</time>
      </trkpt>
      <trkpt lat="47.63396" lon="6.8644">
        <ele>388.942616</ele>
        <time>2012-11-23T19:28:53+100</time>
      </trkpt>
      <trkpt lat="47.63398" lon="6.86443">
        <ele>388.942616</ele>
        <time>2012-11-23T19:28:54+100</time>
      </trkpt>
      <trkpt lat="47.63399" lon="6.86447">
        <ele>388.942616</ele>
        <time>2012-11-23T19:28:56+100</time>
      </trkpt>
      <trkpt lat="47.63401" lon="6.8645">
        <ele>387.942623</ele>
        <time>2012-11-23T19:28:56+100</time>
      </trkpt>
      <trkpt lat="47.63403" lon="6.86454">
        <ele>387.942623</ele>
        <time>2012-11-23T19:28:57+100</time>
      </trkpt>
      <trkpt lat="47.63404" lon="6.86457">
        <ele>387.942627</ele>
        <time>2012-11-23T19:28:58+100</time>
      </trkpt>
      <trkpt lat="47.63406" lon="6.8646">
        <ele>387.942631</ele>
        <time>2012-11-23T19:28:59+100</time>
      </trkpt>
      <trkpt lat="47.63407" lon="6.86463">
        <ele>387.942635</ele>
        <time>2012-11-23T19:29:00+100</time>
      </trkpt>
      <trkpt lat="47.63409" lon="6.86466">
        <ele>387.942642</ele>
        <time>2012-11-23T19:29:01+100</time>
      </trkpt>
      <trkpt lat="47.6341" lon="6.86468">
        <ele>387.942638</ele>
        <time>2012-11-23T19:29:02+100</time>
      </trkpt>
      <trkpt lat="47.63412" lon="6.86471">
        <ele>387.942642</ele>
        <time>2012-11-23T19:29:03+100</time>
      </trkpt>
      <trkpt lat="47.63414" lon="6.86474">
        <ele>387.942646</ele>
        <time>2012-11-23T19:29:04+100</time>
      </trkpt>
      <trkpt lat="47.63416" lon="6.86476">
        <ele>386.94265</ele>
        <time>2012-11-23T19:29:05+100</time>
      </trkpt>
      <trkpt lat="47.63417" lon="6.86479">
        <ele>386.94265</ele>
        <time>2012-11-23T19:29:06+100</time>
      </trkpt>
      <trkpt lat="47.63419" lon="6.86481">
        <ele>386.942657</ele>
        <time>2012-11-23T19:29:07+100</time>
      </trkpt>
      <trkpt lat="47.63421" lon="6.86484">
        <ele>386.942661</ele>
        <time>2012-11-23T19:29:08+100</time>
      </trkpt>
      <trkpt lat="47.63423" lon="6.86486">
        <ele>386.942657</ele>
        <time>2012-11-23T19:29:09+100</time>
      </trkpt>
      <trkpt lat="47.63425" lon="6.86488">
        <ele>386.942665</ele>
        <time>2012-11-23T19:29:10+100</time>
      </trkpt>
      <trkpt lat="47.63427" lon="6.8649">
        <ele>386.942669</ele>
        <time>2012-11-23T19:29:11+100</time>
      </trkpt>
      <trkpt lat="47.63429" lon="6.86492">
        <ele>387.942673</ele>
        <time>2012-11-23T19:29:13+100</time>
      </trkpt>
      <trkpt lat="47.6343" lon="6.86494">
        <ele>387.94268</ele>
        <time>2012-11-23T19:29:13+100</time>
      </trkpt>
      <trkpt lat="47.63432" lon="6.86496">
        <ele>388.94268</ele>
        <time>2012-11-23T19:29:14+100</time>
      </trkpt>
      <trkpt lat="47.63434" lon="6.86498">
        <ele>388.94268</ele>
        <time>2012-11-23T19:29:15+100</time>
      </trkpt>
      <trkpt lat="47.63435" lon="6.86501">
        <ele>388.94268</ele>
        <time>2012-11-23T19:29:16+100</time>
      </trkpt>
      <trkpt lat="47.63435" lon="6.86504">
        <ele>388.942688</ele>
        <time>2012-11-23T19:29:17+100</time>
      </trkpt>
      <trkpt lat="47.63436" lon="6.86507">
        <ele>388.942684</ele>
        <time>2012-11-23T19:29:18+100</time>
      </trkpt>
      <trkpt lat="47.63436" lon="6.86511">
        <ele>388.942684</ele>
        <time>2012-11-23T19:29:19+100</time>
      </trkpt>
      <trkpt lat="47.63435" lon="6.86515">
        <ele>388.942688</ele>
        <time>2012-11-23T19:29:20+100</time>
      </trkpt>
      <trkpt lat="47.63435" lon="6.86519">
        <ele>389.942688</ele>
        <time>2012-11-23T19:29:21+100</time>
      </trkpt>
      <trkpt lat="47.63435" lon="6.86522">
        <ele>389.942688</ele>
        <time>2012-11-23T19:29:22+100</time>
      </trkpt>
      <trkpt lat="47.63435" lon="6.86526">
        <ele>389.942688</ele>
        <time>2012-11-23T19:29:23+100</time>
      </trkpt>
      <trkpt lat="47.63435" lon="6.86529">
        <ele>389.942692</ele>
        <time>2012-11-23T19:29:24+100</time>
      </trkpt>
      <trkpt lat="47.63435" lon="6.86533">
        <ele>390.942688</ele>
        <time>2012-11-23T19:29:25+100</time>
      </trkpt>
      <trkpt lat="47.63435" lon="6.86536">
        <ele>390.942692</ele>
        <time>2012-11-23T19:29:26+100</time>
      </trkpt>
      <trkpt lat="47.63437" lon="6.8654">
        <ele>390.942696</ele>
        <time>2012-11-23T19:29:27+100</time>
      </trkpt>
      <trkpt lat="47.63438" lon="6.86543">
        <ele>389.942696</ele>
        <time>2012-11-23T19:29:28+100</time>
      </trkpt>
      <trkpt lat="47.6344" lon="6.86546">
        <ele>389.942703</ele>
        <time>2012-11-23T19:29:29+100</time>
      </trkpt>
      <trkpt lat="47.63442" lon="6.86548">
        <ele>389.942707</ele>
        <time>2012-11-23T19:29:30+100</time>
      </trkpt>
      <trkpt lat="47.63445" lon="6.8655">
        <ele>388.942707</ele>
        <time>2012-11-23T19:29:31+100</time>
      </trkpt>
      <trkpt lat="47.63447" lon="6.86551">
        <ele>388.942711</ele>
        <time>2012-11-23T19:29:32+100</time>
      </trkpt>
      <trkpt lat="47.6345" lon="6.86551">
        <ele>388.942719</ele>
        <time>2012-11-23T19:29:33+100</time>
      </trkpt>
      <trkpt lat="47.63453" lon="6.86551">
        <ele>388.942722</ele>
        <time>2012-11-23T19:29:34+100</time>
      </trkpt>
      <trkpt lat="47.63455" lon="6.86549">
        <ele>388.942722</ele>
        <time>2012-11-23T19:29:35+100</time>
      </trkpt>
      <trkpt lat="47.63458" lon="6.86547">
        <ele>388.942726</ele>
        <time>2012-11-23T19:29:37+100</time>
      </trkpt>
      <trkpt lat="47.6346" lon="6.86544">
        <ele>388.942734</ele>
        <time>2012-11-23T19:29:37+100</time>
      </trkpt>
      <trkpt lat="47.63462" lon="6.86541">
        <ele>389.942734</ele>
        <time>2012-11-23T19:29:38+100</time>
      </trkpt>
      <trkpt lat="47.63464" lon="6.86538">
        <ele>389.942741</ele>
        <time>2012-11-23T19:29:39+100</time>
      </trkpt>
      <trkpt lat="47.63466" lon="6.86535">
        <ele>390.942738</ele>
        <time>2012-11-23T19:29:40+100</time>
      </trkpt>
      <trkpt lat="47.63467" lon="6.86533">
        <ele>390.942741</ele>
        <time>2012-11-23T19:29:41+100</time>
      </trkpt>
      <trkpt lat="47.63467" lon="6.8653">
        <ele>390.942741</ele>
        <time>2012-11-23T19:29:42+100</time>
      </trkpt>
      <trkpt lat="47.63468" lon="6.86527">
        <ele>390.942741</ele>
        <time>2012-11-23T19:29:44+100</time>
      </trkpt>
      <trkpt lat="47.63468" lon="6.86522">
        <ele>392.942741</ele>
        <time>2012-11-23T19:29:50+100</time>
      </trkpt>
      <trkpt lat="47.63469" lon="6.86523">
        <ele>393.942741</ele>
        <time>2012-11-23T19:29:51+100</time>
      </trkpt>
      <trkpt lat="47.6347" lon="6.86525">
        <ele>392.942741</ele>
        <time>2012-11-23T19:29:52+100</time>
      </trkpt>
      <trkpt lat="47.63471" lon="6.86527">
        <ele>392.942741</ele>
        <time>2012-11-23T19:29:53+100</time>
      </trkpt>
      <trkpt lat="47.63472" lon="6.86529">
        <ele>392.942749</ele>
        <time>2012-11-23T19:29:55+100</time>
      </trkpt>
      <trkpt lat="47.63474" lon="6.86532">
        <ele>392.942753</ele>
        <time>2012-11-23T19:29:55+100</time>
      </trkpt>
      <trkpt lat="47.63475" lon="6.86535">
        <ele>392.942753</ele>
        <time>2012-11-23T19:29:56+100</time>
      </trkpt>
      <trkpt lat="47.63476" lon="6.86538">
        <ele>392.942757</ele>
        <time>2012-11-23T19:29:57+100</time>
      </trkpt>
      <trkpt lat="47.63477" lon="6.86542">
        <ele>392.942757</ele>
        <time>2012-11-23T19:29:58+100</time>
      </trkpt>
      <trkpt lat="47.63477" lon="6.86546">
        <ele>392.942757</ele>
        <time>2012-11-23T19:29:59+100</time>
      </trkpt>
      <trkpt lat="47.63477" lon="6.86551">
        <ele>393.94276</ele>
        <time>2012-11-23T19:30:00+100</time>
      </trkpt>
      <trkpt lat="47.63477" lon="6.86555">
        <ele>393.94276</ele>
        <time>2012-11-23T19:30:01+100</time>
      </trkpt>
      <trkpt lat="47.63477" lon="6.86559">
        <ele>394.942757</ele>
        <time>2012-11-23T19:30:02+100</time>
      </trkpt>
      <trkpt lat="47.63477" lon="6.86564">
        <ele>395.94276</ele>
        <time>2012-11-23T19:30:03+100</time>
      </trkpt>
      <trkpt lat="47.63477" lon="6.86567">
        <ele>395.942764</ele>
        <time>2012-11-23T19:30:04+100</time>
      </trkpt>
      <trkpt lat="47.63476" lon="6.86569">
        <ele>395.94276</ele>
        <time>2012-11-23T19:30:05+100</time>
      </trkpt>
      <trkpt lat="47.63476" lon="6.86571">
        <ele>395.94276</ele>
        <time>2012-11-23T19:30:06+100</time>
      </trkpt>
      <trkpt lat="47.63476" lon="6.86578">
        <ele>398.942764</ele>
        <time>2012-11-23T19:30:09+100</time>
      </trkpt>
      <trkpt lat="47.63477" lon="6.86581">
        <ele>398.942764</ele>
        <time>2012-11-23T19:30:10+100</time>
      </trkpt>
      <trkpt lat="47.63478" lon="6.86595">
        <ele>399.942764</ele>
        <time>2012-11-23T19:30:14+100</time>
      </trkpt>
      <trkpt lat="47.63478" lon="6.86598">
        <ele>400.942772</ele>
        <time>2012-11-23T19:30:15+100</time>
      </trkpt>
      <trkpt lat="47.63478" lon="6.86609">
        <ele>400.942768</ele>
        <time>2012-11-23T19:30:18+100</time>
      </trkpt>
      <trkpt lat="47.63478" lon="6.86618">
        <ele>398.942772</ele>
        <time>2012-11-23T19:30:21+100</time>
      </trkpt>
      <trkpt lat="47.63478" lon="6.8662">
        <ele>398.942772</ele>
        <time>2012-11-23T19:30:22+100</time>
      </trkpt>
      <trkpt lat="47.63479" lon="6.86627">
        <ele>398.942776</ele>
        <time>2012-11-23T19:30:26+100</time>
      </trkpt>
      <trkpt lat="47.6348" lon="6.86638">
        <ele>398.94278</ele>
        <time>2012-11-23T19:30:31+100</time>
      </trkpt>
      <trkpt lat="47.63481" lon="6.86639">
        <ele>398.942783</ele>
        <time>2012-11-23T19:30:32+100</time>
      </trkpt>
      <trkpt lat="47.63483" lon="6.86644">
        <ele>398.942783</ele>
        <time>2012-11-23T19:30:33+100</time>
      </trkpt>
      <trkpt lat="47.63485" lon="6.86647">
        <ele>398.942787</ele>
        <time>2012-11-23T19:30:34+100</time>
      </trkpt>
      <trkpt lat="47.63487" lon="6.86652">
        <ele>397.942795</ele>
        <time>2012-11-23T19:30:36+100</time>
      </trkpt>
      <trkpt lat="47.63492" lon="6.86659">
        <ele>397.942802</ele>
        <time>2012-11-23T19:30:37+100</time>
      </trkpt>
      <trkpt lat="47.63494" lon="6.8666">
        <ele>397.94281</ele>
        <time>2012-11-23T19:30:38+100</time>
      </trkpt>
      <trkpt lat="47.63496" lon="6.86661">
        <ele>397.94281</ele>
        <time>2012-11-23T19:30:39+100</time>
      </trkpt>
      <trkpt lat="47.63507" lon="6.86666">
        <ele>398.942825</ele>
        <time>2012-11-23T19:30:43+100</time>
      </trkpt>
      <trkpt lat="47.63516" lon="6.86669">
        <ele>399.942844</ele>
        <time>2012-11-23T19:30:48+100</time>
      </trkpt>
      <trkpt lat="47.6352" lon="6.86669">
        <ele>399.942848</ele>
        <time>2012-11-23T19:30:50+100</time>
      </trkpt>
      <trkpt lat="47.63522" lon="6.8667">
        <ele>400.942856</ele>
        <time>2012-11-23T19:30:51+100</time>
      </trkpt>
      <trkpt lat="47.63532" lon="6.86671">
        <ele>400.942867</ele>
        <time>2012-11-23T19:30:55+100</time>
      </trkpt>
      <trkpt lat="47.63537" lon="6.86671">
        <ele>401.942871</ele>
        <time>2012-11-23T19:30:57+100</time>
      </trkpt>
      <trkpt lat="47.63539" lon="6.86671">
        <ele>401.942879</ele>
        <time>2012-11-23T19:30:58+100</time>
      </trkpt>
      <trkpt lat="47.63541" lon="6.86671">
        <ele>401.942883</ele>
        <time>2012-11-23T19:30:59+100</time>
      </trkpt>
      <trkpt lat="47.63544" lon="6.86672">
        <ele>401.942883</ele>
        <time>2012-11-23T19:31:00+100</time>
      </trkpt>
      <trkpt lat="47.63547" lon="6.86672">
        <ele>401.942894</ele>
        <time>2012-11-23T19:31:01+100</time>
      </trkpt>
      <trkpt lat="47.6355" lon="6.86673">
        <ele>401.942898</ele>
        <time>2012-11-23T19:31:02+100</time>
      </trkpt>
      <trkpt lat="47.63552" lon="6.86673">
        <ele>400.942902</ele>
        <time>2012-11-23T19:31:03+100</time>
      </trkpt>
      <trkpt lat="47.63555" lon="6.86674">
        <ele>401.942902</ele>
        <time>2012-11-23T19:31:05+100</time>
      </trkpt>
      <trkpt lat="47.63558" lon="6.86675">
        <ele>401.942909</ele>
        <time>2012-11-23T19:31:05+100</time>
      </trkpt>
      <trkpt lat="47.63561" lon="6.86675">
        <ele>401.942913</ele>
        <time>2012-11-23T19:31:06+100</time>
      </trkpt>
      <trkpt lat="47.63563" lon="6.86676">
        <ele>400.942917</ele>
        <time>2012-11-23T19:31:07+100</time>
      </trkpt>
      <trkpt lat="47.63566" lon="6.86678">
        <ele>400.942924</ele>
        <time>2012-11-23T19:31:08+100</time>
      </trkpt>
      <trkpt lat="47.63568" lon="6.86679">
        <ele>400.942928</ele>
        <time>2012-11-23T19:31:09+100</time>
      </trkpt>
      <trkpt lat="47.6357" lon="6.86681">
        <ele>400.942928</ele>
        <time>2012-11-23T19:31:11+100</time>
      </trkpt>
      <trkpt lat="47.63573" lon="6.86683">
        <ele>400.942932</ele>
        <time>2012-11-23T19:31:11+100</time>
      </trkpt>
      <trkpt lat="47.63575" lon="6.86684">
        <ele>400.94294</ele>
        <time>2012-11-23T19:31:12+100</time>
      </trkpt>
      <trkpt lat="47.63577" lon="6.86686">
        <ele>400.94294</ele>
        <time>2012-11-23T19:31:13+100</time>
      </trkpt>
      <trkpt lat="47.63579" lon="6.86688">
        <ele>400.942944</ele>
        <time>2012-11-23T19:31:14+100</time>
      </trkpt>
      <trkpt lat="47.63581" lon="6.8669">
        <ele>400.942947</ele>
        <time>2012-11-23T19:31:15+100</time>
      </trkpt>
      <trkpt lat="47.63582" lon="6.86692">
        <ele>400.942951</ele>
        <time>2012-11-23T19:31:16+100</time>
      </trkpt>
      <trkpt lat="47.63583" lon="6.86693">
        <ele>400.942951</ele>
        <time>2012-11-23T19:31:17+100</time>
      </trkpt>
      <trkpt lat="47.63584" lon="6.86695">
        <ele>400.942951</ele>
        <time>2012-11-23T19:31:18+100</time>
      </trkpt>
      <trkpt lat="47.63585" lon="6.86696">
        <ele>400.942955</ele>
        <time>2012-11-23T19:31:20+100</time>
      </trkpt>
      <trkpt lat="47.63586" lon="6.86698">
        <ele>401.942959</ele>
        <time>2012-11-23T19:31:20+100</time>
      </trkpt>
      <trkpt lat="47.63587" lon="6.86699">
        <ele>401.942959</ele>
        <time>2012-11-23T19:31:21+100</time>
      </trkpt>
      <trkpt lat="47.63588" lon="6.867">
        <ele>401.942963</ele>
        <time>2012-11-23T19:31:22+100</time>
      </trkpt>
      <trkpt lat="47.63589" lon="6.86701">
        <ele>402.942966</ele>
        <time>2012-11-23T19:31:23+100</time>
      </trkpt>
      <trkpt lat="47.63592" lon="6.86706">
        <ele>402.94297</ele>
        <time>2012-11-23T19:31:26+100</time>
      </trkpt>
      <trkpt lat="47.63594" lon="6.86707">
        <ele>402.94297</ele>
        <time>2012-11-23T19:31:27+100</time>
      </trkpt>
      <trkpt lat="47.63603" lon="6.86722">
        <ele>402.942989</ele>
        <time>2012-11-23T19:31:35+100</time>
      </trkpt>
      <trkpt lat="47.63605" lon="6.86725">
        <ele>402.942989</ele>
        <time>2012-11-23T19:31:36+100</time>
      </trkpt>
      <trkpt lat="47.63606" lon="6.86728">
        <ele>402.942993</ele>
        <time>2012-11-23T19:31:37+100</time>
      </trkpt>
      <trkpt lat="47.63608" lon="6.86731">
        <ele>402.943001</ele>
        <time>2012-11-23T19:31:38+100</time>
      </trkpt>
      <trkpt lat="47.63616" lon="6.86743">
        <ele>400.943012</ele>
        <time>2012-11-23T19:31:42+100</time>
      </trkpt>
      <trkpt lat="47.63618" lon="6.86746">
        <ele>400.943016</ele>
        <time>2012-11-23T19:31:43+100</time>
      </trkpt>
      <trkpt lat="47.63626" lon="6.86757">
        <ele>400.943031</ele>
        <time>2012-11-23T19:31:47+100</time>
      </trkpt>
      <trkpt lat="47.63634" lon="6.86768">
        <ele>399.943047</ele>
        <time>2012-11-23T19:31:51+100</time>
      </trkpt>
      <trkpt lat="47.63636" lon="6.8677">
        <ele>399.943047</ele>
        <time>2012-11-23T19:31:52+100</time>
      </trkpt>
      <trkpt lat="47.63639" lon="6.86773">
        <ele>399.943054</ele>
        <time>2012-11-23T19:31:53+100</time>
      </trkpt>
      <trkpt lat="47.63648" lon="6.86782">
        <ele>400.943073</ele>
        <time>2012-11-23T19:31:57+100</time>
      </trkpt>
      <trkpt lat="47.63653" lon="6.86786">
        <ele>400.943077</ele>
        <time>2012-11-23T19:32:00+100</time>
      </trkpt>
      <trkpt lat="47.63655" lon="6.86787">
        <ele>401.943081</ele>
        <time>2012-11-23T19:32:02+100</time>
      </trkpt>
      <trkpt lat="47.6366" lon="6.86785">
        <ele>401.943089</ele>
        <time>2012-11-23T19:32:04+100</time>
      </trkpt>
      <trkpt lat="47.63662" lon="6.86783">
        <ele>402.943092</ele>
        <time>2012-11-23T19:32:05+100</time>
      </trkpt>
      <trkpt lat="47.63664" lon="6.86782">
        <ele>401.943096</ele>
        <time>2012-11-23T19:32:06+100</time>
      </trkpt>
      <trkpt lat="47.63666" lon="6.8678">
        <ele>401.943096</ele>
        <time>2012-11-23T19:32:07+100</time>
      </trkpt>
      <trkpt lat="47.63668" lon="6.86779">
        <ele>401.9431</ele>
        <time>2012-11-23T19:32:08+100</time>
      </trkpt>
      <trkpt lat="47.6367" lon="6.86777">
        <ele>400.9431</ele>
        <time>2012-11-23T19:32:09+100</time>
      </trkpt>
      <trkpt lat="47.63678" lon="6.86767">
        <ele>398.943115</ele>
        <time>2012-11-23T19:32:14+100</time>
      </trkpt>
      <trkpt lat="47.63685" lon="6.86758">
        <ele>399.943127</ele>
        <time>2012-11-23T19:32:18+100</time>
      </trkpt>
      <trkpt lat="47.63694" lon="6.86746">
        <ele>399.943134</ele>
        <time>2012-11-23T19:32:24+100</time>
      </trkpt>
      <trkpt lat="47.63702" lon="6.86736">
        <ele>398.943142</ele>
        <time>2012-11-23T19:32:29+100</time>
      </trkpt>
      <trkpt lat="47.63705" lon="6.86734">
        <ele>397.943146</ele>
        <time>2012-11-23T19:32:31+100</time>
      </trkpt>
      <trkpt lat="47.63707" lon="6.86733">
        <ele>397.943153</ele>
        <time>2012-11-23T19:32:32+100</time>
      </trkpt>
      <trkpt lat="47.63716" lon="6.86731">
        <ele>395.943165</ele>
        <time>2012-11-23T19:32:36+100</time>
      </trkpt>
      <trkpt lat="47.63728" lon="6.86729">
        <ele>394.943184</ele>
        <time>2012-11-23T19:32:40+100</time>
      </trkpt>
      <trkpt lat="47.63736" lon="6.86728">
        <ele>394.943195</ele>
        <time>2012-11-23T19:32:43+100</time>
      </trkpt>
      <trkpt lat="47.63739" lon="6.86728">
        <ele>394.943203</ele>
        <time>2012-11-23T19:32:44+100</time>
      </trkpt>
      <trkpt lat="47.63742" lon="6.86728">
        <ele>394.943207</ele>
        <time>2012-11-23T19:32:45+100</time>
      </trkpt>
      <trkpt lat="47.63745" lon="6.86728">
        <ele>394.943214</ele>
        <time>2012-11-23T19:32:46+100</time>
      </trkpt>
      <trkpt lat="47.6375" lon="6.86728">
        <ele>394.943218</ele>
        <time>2012-11-23T19:32:48+100</time>
      </trkpt>
      <trkpt lat="47.63753" lon="6.86729">
        <ele>394.943226</ele>
        <time>2012-11-23T19:32:49+100</time>
      </trkpt>
      <trkpt lat="47.63755" lon="6.86729">
        <ele>394.943226</ele>
        <time>2012-11-23T19:32:50+100</time>
      </trkpt>
      <trkpt lat="47.63757" lon="6.86729">
        <ele>394.94323</ele>
        <time>2012-11-23T19:32:51+100</time>
      </trkpt>
      <trkpt lat="47.63759" lon="6.8673">
        <ele>394.943237</ele>
        <time>2012-11-23T19:32:53+100</time>
      </trkpt>
      <trkpt lat="47.63761" lon="6.8673">
        <ele>394.943237</ele>
        <time>2012-11-23T19:32:53+100</time>
      </trkpt>
      <trkpt lat="47.63763" lon="6.86731">
        <ele>394.943241</ele>
        <time>2012-11-23T19:32:54+100</time>
      </trkpt>
      <trkpt lat="47.63765" lon="6.86731">
        <ele>394.943245</ele>
        <time>2012-11-23T19:32:55+100</time>
      </trkpt>
      <trkpt lat="47.63771" lon="6.86736">
        <ele>395.943253</ele>
        <time>2012-11-23T19:32:58+100</time>
      </trkpt>
      <trkpt lat="47.63772" lon="6.86738">
        <ele>395.943256</ele>
        <time>2012-11-23T19:32:59+100</time>
      </trkpt>
      <trkpt lat="47.6378" lon="6.86746">
        <ele>395.943272</ele>
        <time>2012-11-23T19:33:05+100</time>
      </trkpt>
      <trkpt lat="47.63781" lon="6.86748">
        <ele>395.943272</ele>
        <time>2012-11-23T19:33:06+100</time>
      </trkpt>
      <trkpt lat="47.63782" lon="6.86749">
        <ele>396.943275</ele>
        <time>2012-11-23T19:33:07+100</time>
      </trkpt>
      <trkpt lat="47.63786" lon="6.86755">
        <ele>396.943279</ele>
        <time>2012-11-23T19:33:10+100</time>
      </trkpt>
      <trkpt lat="47.63788" lon="6.86757">
        <ele>396.943287</ele>
        <time>2012-11-23T19:33:11+100</time>
      </trkpt>
      <trkpt lat="47.6379" lon="6.86759">
        <ele>397.943291</ele>
        <time>2012-11-23T19:33:12+100</time>
      </trkpt>
      <trkpt lat="47.63792" lon="6.86762">
        <ele>397.943291</ele>
        <time>2012-11-23T19:33:13+100</time>
      </trkpt>
      <trkpt lat="47.63794" lon="6.86764">
        <ele>397.943295</ele>
        <time>2012-11-23T19:33:15+100</time>
      </trkpt>
      <trkpt lat="47.63795" lon="6.86766">
        <ele>397.943298</ele>
        <time>2012-11-23T19:33:15+100</time>
      </trkpt>
      <trkpt lat="47.63797" lon="6.86769">
        <ele>397.943298</ele>
        <time>2012-11-23T19:33:16+100</time>
      </trkpt>
      <trkpt lat="47.63798" lon="6.86772">
        <ele>397.943302</ele>
        <time>2012-11-23T19:33:17+100</time>
      </trkpt>
      <trkpt lat="47.638" lon="6.86775">
        <ele>397.94331</ele>
        <time>2012-11-23T19:33:18+100</time>
      </trkpt>
      <trkpt lat="47.63801" lon="6.86778">
        <ele>397.943306</ele>
        <time>2012-11-23T19:33:19+100</time>
      </trkpt>
      <trkpt lat="47.63803" lon="6.86781">
        <ele>397.943306</ele>
        <time>2012-11-23T19:33:20+100</time>
      </trkpt>
      <trkpt lat="47.63804" lon="6.86784">
        <ele>396.943314</ele>
        <time>2012-11-23T19:33:21+100</time>
      </trkpt>
      <trkpt lat="47.63806" lon="6.86788">
        <ele>395.943321</ele>
        <time>2012-11-23T19:33:22+100</time>
      </trkpt>
      <trkpt lat="47.63807" lon="6.86792">
        <ele>395.943321</ele>
        <time>2012-11-23T19:33:23+100</time>
      </trkpt>
      <trkpt lat="47.63809" lon="6.86795">
        <ele>396.943321</ele>
        <time>2012-11-23T19:33:24+100</time>
      </trkpt>
      <trkpt lat="47.6381" lon="6.868">
        <ele>396.943329</ele>
        <time>2012-11-23T19:33:25+100</time>
      </trkpt>
      <trkpt lat="47.6381" lon="6.86801">
        <ele>396.943325</ele>
        <time>2012-11-23T19:33:26+100</time>
      </trkpt>
      <trkpt lat="47.63814" lon="6.86814">
        <ele>396.943336</ele>
        <time>2012-11-23T19:33:33+100</time>
      </trkpt>
      <trkpt lat="47.63819" lon="6.86829">
        <ele>398.943344</ele>
        <time>2012-11-23T19:33:42+100</time>
      </trkpt>
      <trkpt lat="47.63822" lon="6.86841">
        <ele>399.943352</ele>
        <time>2012-11-23T19:33:46+100</time>
      </trkpt>
      <trkpt lat="47.63823" lon="6.86846">
        <ele>399.943359</ele>
        <time>2012-11-23T19:33:47+100</time>
      </trkpt>
      <trkpt lat="47.63827" lon="6.86862">
        <ele>400.943367</ele>
        <time>2012-11-23T19:33:51+100</time>
      </trkpt>
      <trkpt lat="47.63831" lon="6.86873">
        <ele>399.943375</ele>
        <time>2012-11-23T19:33:54+100</time>
      </trkpt>
      <trkpt lat="47.63833" lon="6.86877">
        <ele>399.943378</ele>
        <time>2012-11-23T19:33:55+100</time>
      </trkpt>
      <trkpt lat="47.63835" lon="6.86884">
        <ele>399.943382</ele>
        <time>2012-11-23T19:33:58+100</time>
      </trkpt>
      <trkpt lat="47.63843" lon="6.86904">
        <ele>398.943398</ele>
        <time>2012-11-23T19:34:03+100</time>
      </trkpt>
      <trkpt lat="47.63845" lon="6.86908">
        <ele>398.943398</ele>
        <time>2012-11-23T19:34:04+100</time>
      </trkpt>
      <trkpt lat="47.63847" lon="6.86914">
        <ele>398.943405</ele>
        <time>2012-11-23T19:34:05+100</time>
      </trkpt>
      <trkpt lat="47.63848" lon="6.86918">
        <ele>398.943409</ele>
        <time>2012-11-23T19:34:06+100</time>
      </trkpt>
      <trkpt lat="47.63849" lon="6.86923">
        <ele>397.943409</ele>
        <time>2012-11-23T19:34:07+100</time>
      </trkpt>
      <trkpt lat="47.63851" lon="6.86927">
        <ele>397.943417</ele>
        <time>2012-11-23T19:34:08+100</time>
      </trkpt>
      <trkpt lat="47.63852" lon="6.86932">
        <ele>397.943417</ele>
        <time>2012-11-23T19:34:09+100</time>
      </trkpt>
      <trkpt lat="47.63856" lon="6.86945">
        <ele>397.943424</ele>
        <time>2012-11-23T19:34:12+100</time>
      </trkpt>
      <trkpt lat="47.6386" lon="6.86956">
        <ele>397.943436</ele>
        <time>2012-11-23T19:34:15+100</time>
      </trkpt>
      <trkpt lat="47.63862" lon="6.86959">
        <ele>397.943439</ele>
        <time>2012-11-23T19:34:16+100</time>
      </trkpt>
      <trkpt lat="47.63864" lon="6.86966">
        <ele>397.943439</ele>
        <time>2012-11-23T19:34:18+100</time>
      </trkpt>
      <trkpt lat="47.63866" lon="6.86972">
        <ele>397.943447</ele>
        <time>2012-11-23T19:34:20+100</time>
      </trkpt>
      <trkpt lat="47.63872" lon="6.86983">
        <ele>398.943455</ele>
        <time>2012-11-23T19:34:28+100</time>
      </trkpt>
      <trkpt lat="47.6388" lon="6.86994">
        <ele>401.94347</ele>
        <time>2012-11-23T19:34:41+100</time>
      </trkpt>
      <trkpt lat="47.63888" lon="6.87003">
        <ele>404.943489</ele>
        <time>2012-11-23T19:34:48+100</time>
      </trkpt>
      <trkpt lat="47.63891" lon="6.87008">
        <ele>405.943485</ele>
        <time>2012-11-23T19:34:51+100</time>
      </trkpt>
      <trkpt lat="47.63892" lon="6.8701">
        <ele>405.943493</ele>
        <time>2012-11-23T19:34:52+100</time>
      </trkpt>
      <trkpt lat="47.63895" lon="6.87016">
        <ele>406.943497</ele>
        <time>2012-11-23T19:34:56+100</time>
      </trkpt>
      <trkpt lat="47.63896" lon="6.87018">
        <ele>406.943504</ele>
        <time>2012-11-23T19:34:58+100</time>
      </trkpt>
      <trkpt lat="47.63898" lon="6.8702">
        <ele>406.943504</ele>
        <time>2012-11-23T19:34:59+100</time>
      </trkpt>
      <trkpt lat="47.63899" lon="6.87022">
        <ele>405.943504</ele>
        <time>2012-11-23T19:35:00+100</time>
      </trkpt>
      <trkpt lat="47.639" lon="6.87025">
        <ele>404.943508</ele>
        <time>2012-11-23T19:35:01+100</time>
      </trkpt>
      <trkpt lat="47.63902" lon="6.87029">
        <ele>403.943512</ele>
        <time>2012-11-23T19:35:03+100</time>
      </trkpt>
      <trkpt lat="47.63904" lon="6.87031">
        <ele>403.943516</ele>
        <time>2012-11-23T19:35:04+100</time>
      </trkpt>
      <trkpt lat="47.63905" lon="6.87034">
        <ele>404.94352</ele>
        <time>2012-11-23T19:35:05+100</time>
      </trkpt>
      <trkpt lat="47.63906" lon="6.87036">
        <ele>404.94352</ele>
        <time>2012-11-23T19:35:06+100</time>
      </trkpt>
      <trkpt lat="47.63908" lon="6.87039">
        <ele>404.943523</ele>
        <time>2012-11-23T19:35:07+100</time>
      </trkpt>
      <trkpt lat="47.63909" lon="6.8704">
        <ele>404.943527</ele>
        <time>2012-11-23T19:35:08+100</time>
      </trkpt>
      <trkpt lat="47.63913" lon="6.87046">
        <ele>403.943531</ele>
        <time>2012-11-23T19:35:12+100</time>
      </trkpt>
      <trkpt lat="47.63914" lon="6.87047">
        <ele>403.943531</ele>
        <time>2012-11-23T19:35:13+100</time>
      </trkpt>
      <trkpt lat="47.63915" lon="6.87049">
        <ele>403.943539</ele>
        <time>2012-11-23T19:35:14+100</time>
      </trkpt>
      <trkpt lat="47.63923" lon="6.87057">
        <ele>404.943546</ele>
        <time>2012-11-23T19:35:21+100</time>
      </trkpt>
      <trkpt lat="47.63924" lon="6.87058">
        <ele>404.943554</ele>
        <time>2012-11-23T19:35:22+100</time>
      </trkpt>
      <trkpt lat="47.63925" lon="6.87059">
        <ele>404.943554</ele>
        <time>2012-11-23T19:35:23+100</time>
      </trkpt>
      <trkpt lat="47.63926" lon="6.8706">
        <ele>404.943554</ele>
        <time>2012-11-23T19:35:24+100</time>
      </trkpt>
      <trkpt lat="47.63926" lon="6.87062">
        <ele>404.943554</ele>
        <time>2012-11-23T19:35:25+100</time>
      </trkpt>
      <trkpt lat="47.6393" lon="6.87067">
        <ele>406.943565</ele>
        <time>2012-11-23T19:35:29+100</time>
      </trkpt>
      <trkpt lat="47.63932" lon="6.87069">
        <ele>407.943569</ele>
        <time>2012-11-23T19:35:32+100</time>
      </trkpt>
      <trkpt lat="47.63933" lon="6.87069">
        <ele>407.943569</ele>
        <time>2012-11-23T19:35:33+100</time>
      </trkpt>
      <trkpt lat="47.63936" lon="6.87068">
        <ele>407.943569</ele>
        <time>2012-11-23T19:35:37+100</time>
      </trkpt>
      <trkpt lat="47.63937" lon="6.87067">
        <ele>407.943573</ele>
        <time>2012-11-23T19:35:38+100</time>
      </trkpt>
      <trkpt lat="47.63939" lon="6.87066">
        <ele>407.943577</ele>
        <time>2012-11-23T19:35:39+100</time>
      </trkpt>
      <trkpt lat="47.6394" lon="6.87065">
        <ele>407.943577</ele>
        <time>2012-11-23T19:35:40+100</time>
      </trkpt>
      <trkpt lat="47.63945" lon="6.87062">
        <ele>408.943584</ele>
        <time>2012-11-23T19:35:42+100</time>
      </trkpt>
      <trkpt lat="47.63954" lon="6.87055">
        <ele>409.9436</ele>
        <time>2012-11-23T19:35:47+100</time>
      </trkpt>
      <trkpt lat="47.63963" lon="6.87047">
        <ele>406.943611</ele>
        <time>2012-11-23T19:35:55+100</time>
      </trkpt>
      <trkpt lat="47.63964" lon="6.87045">
        <ele>406.943607</ele>
        <time>2012-11-23T19:35:56+100</time>
      </trkpt>
      <trkpt lat="47.63965" lon="6.87042">
        <ele>406.943611</ele>
        <time>2012-11-23T19:35:57+100</time>
      </trkpt>
      <trkpt lat="47.63967" lon="6.8704">
        <ele>406.943611</ele>
        <time>2012-11-23T19:35:58+100</time>
      </trkpt>
      <trkpt lat="47.63968" lon="6.87038">
        <ele>406.943619</ele>
        <time>2012-11-23T19:36:00+100</time>
      </trkpt>
      <trkpt lat="47.6397" lon="6.87035">
        <ele>406.943619</ele>
        <time>2012-11-23T19:36:00+100</time>
      </trkpt>
      <trkpt lat="47.63971" lon="6.87033">
        <ele>406.943619</ele>
        <time>2012-11-23T19:36:01+100</time>
      </trkpt>
      <trkpt lat="47.63972" lon="6.8703">
        <ele>406.943623</ele>
        <time>2012-11-23T19:36:03+100</time>
      </trkpt>
      <trkpt lat="47.63973" lon="6.87027">
        <ele>406.943623</ele>
        <time>2012-11-23T19:36:03+100</time>
      </trkpt>
      <trkpt lat="47.63974" lon="6.87025">
        <ele>406.943626</ele>
        <time>2012-11-23T19:36:04+100</time>
      </trkpt>
      <trkpt lat="47.63976" lon="6.87023">
        <ele>406.943626</ele>
        <time>2012-11-23T19:36:05+100</time>
      </trkpt>
      <trkpt lat="47.63977" lon="6.87021">
        <ele>406.94363</ele>
        <time>2012-11-23T19:36:06+100</time>
      </trkpt>
      <trkpt lat="47.63979" lon="6.8702">
        <ele>406.94363</ele>
        <time>2012-11-23T19:36:07+100</time>
      </trkpt>
      <trkpt lat="47.6398" lon="6.87019">
        <ele>405.94363</ele>
        <time>2012-11-23T19:36:08+100</time>
      </trkpt>
      <trkpt lat="47.63982" lon="6.87018">
        <ele>405.943634</ele>
        <time>2012-11-23T19:36:09+100</time>
      </trkpt>
      <trkpt lat="47.63984" lon="6.87017">
        <ele>405.943638</ele>
        <time>2012-11-23T19:36:10+100</time>
      </trkpt>
      <trkpt lat="47.63987" lon="6.87017">
        <ele>405.943642</ele>
        <time>2012-11-23T19:36:11+100</time>
      </trkpt>
      <trkpt lat="47.63989" lon="6.87017">
        <ele>405.943645</ele>
        <time>2012-11-23T19:36:12+100</time>
      </trkpt>
      <trkpt lat="47.63991" lon="6.87018">
        <ele>405.943645</ele>
        <time>2012-11-23T19:36:13+100</time>
      </trkpt>
      <trkpt lat="47.63998" lon="6.87022">
        <ele>404.943657</ele>
        <time>2012-11-23T19:36:16+100</time>
      </trkpt>
      <trkpt lat="47.64" lon="6.87024">
        <ele>404.943665</ele>
        <time>2012-11-23T19:36:17+100</time>
      </trkpt>
      <trkpt lat="47.64002" lon="6.87026">
        <ele>404.943668</ele>
        <time>2012-11-23T19:36:18+100</time>
      </trkpt>
      <trkpt lat="47.64004" lon="6.87029">
        <ele>404.943672</ele>
        <time>2012-11-23T19:36:19+100</time>
      </trkpt>
      <trkpt lat="47.64006" lon="6.87032">
        <ele>404.943676</ele>
        <time>2012-11-23T19:36:20+100</time>
      </trkpt>
      <trkpt lat="47.64007" lon="6.87036">
        <ele>404.943676</ele>
        <time>2012-11-23T19:36:21+100</time>
      </trkpt>
      <trkpt lat="47.64008" lon="6.87039">
        <ele>404.94368</ele>
        <time>2012-11-23T19:36:22+100</time>
      </trkpt>
      <trkpt lat="47.6401" lon="6.87043">
        <ele>404.943684</ele>
        <time>2012-11-23T19:36:23+100</time>
      </trkpt>
      <trkpt lat="47.64011" lon="6.87046">
        <ele>403.943687</ele>
        <time>2012-11-23T19:36:24+100</time>
      </trkpt>
      <trkpt lat="47.64012" lon="6.87049">
        <ele>403.943687</ele>
        <time>2012-11-23T19:36:25+100</time>
      </trkpt>
      <trkpt lat="47.64013" lon="6.87052">
        <ele>403.943687</ele>
        <time>2012-11-23T19:36:26+100</time>
      </trkpt>
      <trkpt lat="47.64014" lon="6.87055">
        <ele>403.943691</ele>
        <time>2012-11-23T19:36:27+100</time>
      </trkpt>
      <trkpt lat="47.64015" lon="6.87058">
        <ele>403.943691</ele>
        <time>2012-11-23T19:36:28+100</time>
      </trkpt>
      <trkpt lat="47.64015" lon="6.87062">
        <ele>403.943695</ele>
        <time>2012-11-23T19:36:29+100</time>
      </trkpt>
      <trkpt lat="47.64016" lon="6.87065">
        <ele>404.943695</ele>
        <time>2012-11-23T19:36:30+100</time>
      </trkpt>
      <trkpt lat="47.64017" lon="6.87068">
        <ele>404.943695</ele>
        <time>2012-11-23T19:36:31+100</time>
      </trkpt>
      <trkpt lat="47.64017" lon="6.87072">
        <ele>404.943699</ele>
        <time>2012-11-23T19:36:32+100</time>
      </trkpt>
      <trkpt lat="47.64018" lon="6.87075">
        <ele>404.943703</ele>
        <time>2012-11-23T19:36:33+100</time>
      </trkpt>
      <trkpt lat="47.64018" lon="6.87079">
        <ele>404.943703</ele>
        <time>2012-11-23T19:36:34+100</time>
      </trkpt>
      <trkpt lat="47.64018" lon="6.87082">
        <ele>404.943703</ele>
        <time>2012-11-23T19:36:35+100</time>
      </trkpt>
      <trkpt lat="47.64018" lon="6.87086">
        <ele>404.943703</ele>
        <time>2012-11-23T19:36:36+100</time>
      </trkpt>
      <trkpt lat="47.64019" lon="6.8709">
        <ele>404.943703</ele>
        <time>2012-11-23T19:36:37+100</time>
      </trkpt>
      <trkpt lat="47.64019" lon="6.87094">
        <ele>404.943707</ele>
        <time>2012-11-23T19:36:38+100</time>
      </trkpt>
      <trkpt lat="47.6402" lon="6.87097">
        <ele>404.943707</ele>
        <time>2012-11-23T19:36:39+100</time>
      </trkpt>
      <trkpt lat="47.6402" lon="6.87101">
        <ele>403.943707</ele>
        <time>2012-11-23T19:36:40+100</time>
      </trkpt>
      <trkpt lat="47.64021" lon="6.87104">
        <ele>403.943714</ele>
        <time>2012-11-23T19:36:41+100</time>
      </trkpt>
      <trkpt lat="47.64023" lon="6.87107">
        <ele>403.943718</ele>
        <time>2012-11-23T19:36:42+100</time>
      </trkpt>
      <trkpt lat="47.64024" lon="6.8711">
        <ele>404.943718</ele>
        <time>2012-11-23T19:36:43+100</time>
      </trkpt>
      <trkpt lat="47.64025" lon="6.87113">
        <ele>405.943722</ele>
        <time>2012-11-23T19:36:44+100</time>
      </trkpt>
      <trkpt lat="47.64026" lon="6.87116">
        <ele>406.943722</ele>
        <time>2012-11-23T19:36:45+100</time>
      </trkpt>
      <trkpt lat="47.64027" lon="6.87119">
        <ele>407.943722</ele>
        <time>2012-11-23T19:36:46+100</time>
      </trkpt>
      <trkpt lat="47.64028" lon="6.87122">
        <ele>408.943729</ele>
        <time>2012-11-23T19:36:47+100</time>
      </trkpt>
      <trkpt lat="47.6403" lon="6.87125">
        <ele>409.943726</ele>
        <time>2012-11-23T19:36:48+100</time>
      </trkpt>
      <trkpt lat="47.64031" lon="6.87127">
        <ele>410.943733</ele>
        <time>2012-11-23T19:36:49+100</time>
      </trkpt>
      <trkpt lat="47.64032" lon="6.8713">
        <ele>411.943733</ele>
        <time>2012-11-23T19:36:50+100</time>
      </trkpt>
      <trkpt lat="47.64033" lon="6.87132">
        <ele>412.943741</ele>
        <time>2012-11-23T19:36:51+100</time>
      </trkpt>
      <trkpt lat="47.64034" lon="6.87134">
        <ele>413.943737</ele>
        <time>2012-11-23T19:36:52+100</time>
      </trkpt>
      <trkpt lat="47.64037" lon="6.87138">
        <ele>414.943741</ele>
        <time>2012-11-23T19:36:54+100</time>
      </trkpt>
      <trkpt lat="47.64038" lon="6.8714">
        <ele>414.943741</ele>
        <time>2012-11-23T19:36:56+100</time>
      </trkpt>
      <trkpt lat="47.64039" lon="6.87141">
        <ele>414.943748</ele>
        <time>2012-11-23T19:36:56+100</time>
      </trkpt>
      <trkpt lat="47.64041" lon="6.87143">
        <ele>415.943752</ele>
        <time>2012-11-23T19:36:57+100</time>
      </trkpt>
      <trkpt lat="47.64056" lon="6.87154">
        <ele>415.943779</ele>
        <time>2012-11-23T19:37:07+100</time>
      </trkpt>
      <trkpt lat="47.64057" lon="6.87156">
        <ele>415.943775</ele>
        <time>2012-11-23T19:37:08+100</time>
      </trkpt>
      <trkpt lat="47.64059" lon="6.87158">
        <ele>415.943779</ele>
        <time>2012-11-23T19:37:09+100</time>
      </trkpt>
      <trkpt lat="47.64061" lon="6.8716">
        <ele>416.943787</ele>
        <time>2012-11-23T19:37:10+100</time>
      </trkpt>
      <trkpt lat="47.64062" lon="6.87162">
        <ele>416.943787</ele>
        <time>2012-11-23T19:37:11+100</time>
      </trkpt>
      <trkpt lat="47.64064" lon="6.87164">
        <ele>417.943787</ele>
        <time>2012-11-23T19:37:12+100</time>
      </trkpt>
      <trkpt lat="47.64066" lon="6.87166">
        <ele>417.94379</ele>
        <time>2012-11-23T19:37:13+100</time>
      </trkpt>
      <trkpt lat="47.64068" lon="6.87168">
        <ele>417.943798</ele>
        <time>2012-11-23T19:37:14+100</time>
      </trkpt>
      <trkpt lat="47.6407" lon="6.8717">
        <ele>418.943802</ele>
        <time>2012-11-23T19:37:15+100</time>
      </trkpt>
      <trkpt lat="47.64072" lon="6.87171">
        <ele>419.943802</ele>
        <time>2012-11-23T19:37:16+100</time>
      </trkpt>
      <trkpt lat="47.64074" lon="6.87173">
        <ele>419.943802</ele>
        <time>2012-11-23T19:37:17+100</time>
      </trkpt>
      <trkpt lat="47.64076" lon="6.87174">
        <ele>420.943813</ele>
        <time>2012-11-23T19:37:18+100</time>
      </trkpt>
      <trkpt lat="47.64078" lon="6.87175">
        <ele>420.943813</ele>
        <time>2012-11-23T19:37:19+100</time>
      </trkpt>
      <trkpt lat="47.6408" lon="6.87177">
        <ele>420.943817</ele>
        <time>2012-11-23T19:37:20+100</time>
      </trkpt>
      <trkpt lat="47.64082" lon="6.87178">
        <ele>420.943817</ele>
        <time>2012-11-23T19:37:21+100</time>
      </trkpt>
      <trkpt lat="47.64084" lon="6.87179">
        <ele>420.943825</ele>
        <time>2012-11-23T19:37:22+100</time>
      </trkpt>
      <trkpt lat="47.64091" lon="6.87183">
        <ele>420.943836</ele>
        <time>2012-11-23T19:37:25+100</time>
      </trkpt>
      <trkpt lat="47.64093" lon="6.87185">
        <ele>420.943844</ele>
        <time>2012-11-23T19:37:26+100</time>
      </trkpt>
      <trkpt lat="47.64095" lon="6.87186">
        <ele>420.943844</ele>
        <time>2012-11-23T19:37:27+100</time>
      </trkpt>
      <trkpt lat="47.64097" lon="6.87188">
        <ele>420.943844</ele>
        <time>2012-11-23T19:37:28+100</time>
      </trkpt>
      <trkpt lat="47.64099" lon="6.87189">
        <ele>420.943848</ele>
        <time>2012-11-23T19:37:29+100</time>
      </trkpt>
      <trkpt lat="47.64101" lon="6.87191">
        <ele>420.943855</ele>
        <time>2012-11-23T19:37:30+100</time>
      </trkpt>
      <trkpt lat="47.64103" lon="6.87193">
        <ele>420.943855</ele>
        <time>2012-11-23T19:37:31+100</time>
      </trkpt>
      <trkpt lat="47.64105" lon="6.87194">
        <ele>420.943855</ele>
        <time>2012-11-23T19:37:32+100</time>
      </trkpt>
      <trkpt lat="47.64107" lon="6.87196">
        <ele>421.943863</ele>
        <time>2012-11-23T19:37:33+100</time>
      </trkpt>
      <trkpt lat="47.64108" lon="6.87197">
        <ele>421.943863</ele>
        <time>2012-11-23T19:37:34+100</time>
      </trkpt>
      <trkpt lat="47.6411" lon="6.87199">
        <ele>421.943867</ele>
        <time>2012-11-23T19:37:35+100</time>
      </trkpt>
      <trkpt lat="47.64112" lon="6.87201">
        <ele>421.943871</ele>
        <time>2012-11-23T19:37:36+100</time>
      </trkpt>
      <trkpt lat="47.64113" lon="6.87203">
        <ele>421.943874</ele>
        <time>2012-11-23T19:37:37+100</time>
      </trkpt>
      <trkpt lat="47.64115" lon="6.87205">
        <ele>421.943878</ele>
        <time>2012-11-23T19:37:38+100</time>
      </trkpt>
      <trkpt lat="47.64116" lon="6.87207">
        <ele>420.943878</ele>
        <time>2012-11-23T19:37:39+100</time>
      </trkpt>
      <trkpt lat="47.64118" lon="6.87209">
        <ele>420.943882</ele>
        <time>2012-11-23T19:37:40+100</time>
      </trkpt>
      <trkpt lat="47.6412" lon="6.87211">
        <ele>420.943882</ele>
        <time>2012-11-23T19:37:42+100</time>
      </trkpt>
      <trkpt lat="47.64121" lon="6.87213">
        <ele>421.94389</ele>
        <time>2012-11-23T19:37:42+100</time>
      </trkpt>
      <trkpt lat="47.64123" lon="6.87215">
        <ele>421.943893</ele>
        <time>2012-11-23T19:37:43+100</time>
      </trkpt>
      <trkpt lat="47.64125" lon="6.87217">
        <ele>421.943893</ele>
        <time>2012-11-23T19:37:44+100</time>
      </trkpt>
      <trkpt lat="47.64126" lon="6.87219">
        <ele>421.943893</ele>
        <time>2012-11-23T19:37:45+100</time>
      </trkpt>
      <trkpt lat="47.64128" lon="6.87221">
        <ele>422.943901</ele>
        <time>2012-11-23T19:37:46+100</time>
      </trkpt>
      <trkpt lat="47.6413" lon="6.87223">
        <ele>422.943905</ele>
        <time>2012-11-23T19:37:47+100</time>
      </trkpt>
      <trkpt lat="47.64131" lon="6.87226">
        <ele>422.943909</ele>
        <time>2012-11-23T19:37:48+100</time>
      </trkpt>
      <trkpt lat="47.64133" lon="6.87228">
        <ele>423.943905</ele>
        <time>2012-11-23T19:37:49+100</time>
      </trkpt>
      <trkpt lat="47.64134" lon="6.8723">
        <ele>423.943913</ele>
        <time>2012-11-23T19:37:50+100</time>
      </trkpt>
      <trkpt lat="47.64136" lon="6.87232">
        <ele>424.943916</ele>
        <time>2012-11-23T19:37:51+100</time>
      </trkpt>
      <trkpt lat="47.64138" lon="6.87234">
        <ele>425.943916</ele>
        <time>2012-11-23T19:37:52+100</time>
      </trkpt>
      <trkpt lat="47.64139" lon="6.87237">
        <ele>425.94392</ele>
        <time>2012-11-23T19:37:53+100</time>
      </trkpt>
      <trkpt lat="47.64141" lon="6.87239">
        <ele>426.94392</ele>
        <time>2012-11-23T19:37:54+100</time>
      </trkpt>
      <trkpt lat="47.64142" lon="6.87242">
        <ele>426.943924</ele>
        <time>2012-11-23T19:37:55+100</time>
      </trkpt>
      <trkpt lat="47.64143" lon="6.87244">
        <ele>426.943928</ele>
        <time>2012-11-23T19:37:56+100</time>
      </trkpt>
      <trkpt lat="47.64145" lon="6.87247">
        <ele>426.943932</ele>
        <time>2012-11-23T19:37:57+100</time>
      </trkpt>
      <trkpt lat="47.64146" lon="6.8725">
        <ele>426.943935</ele>
        <time>2012-11-23T19:37:58+100</time>
      </trkpt>
      <trkpt lat="47.64147" lon="6.87253">
        <ele>426.943935</ele>
        <time>2012-11-23T19:37:59+100</time>
      </trkpt>
      <trkpt lat="47.64147" lon="6.87256">
        <ele>426.943935</ele>
        <time>2012-11-23T19:38:00+100</time>
      </trkpt>
      <trkpt lat="47.64148" lon="6.87259">
        <ele>426.943935</ele>
        <time>2012-11-23T19:38:01+100</time>
      </trkpt>
      <trkpt lat="47.64149" lon="6.87262">
        <ele>426.943943</ele>
        <time>2012-11-23T19:38:02+100</time>
      </trkpt>
      <trkpt lat="47.6415" lon="6.87265">
        <ele>426.943943</ele>
        <time>2012-11-23T19:38:03+100</time>
      </trkpt>
      <trkpt lat="47.64151" lon="6.87268">
        <ele>425.943943</ele>
        <time>2012-11-23T19:38:04+100</time>
      </trkpt>
      <trkpt lat="47.64152" lon="6.87271">
        <ele>425.943947</ele>
        <time>2012-11-23T19:38:05+100</time>
      </trkpt>
      <trkpt lat="47.64153" lon="6.87274">
        <ele>425.943951</ele>
        <time>2012-11-23T19:38:06+100</time>
      </trkpt>
      <trkpt lat="47.64154" lon="6.87277">
        <ele>425.943951</ele>
        <time>2012-11-23T19:38:07+100</time>
      </trkpt>
      <trkpt lat="47.64156" lon="6.87279">
        <ele>425.943951</ele>
        <time>2012-11-23T19:38:08+100</time>
      </trkpt>
      <trkpt lat="47.64157" lon="6.87282">
        <ele>424.943954</ele>
        <time>2012-11-23T19:38:09+100</time>
      </trkpt>
      <trkpt lat="47.64158" lon="6.87285">
        <ele>424.943958</ele>
        <time>2012-11-23T19:38:10+100</time>
      </trkpt>
      <trkpt lat="47.6416" lon="6.87288">
        <ele>424.943958</ele>
        <time>2012-11-23T19:38:11+100</time>
      </trkpt>
      <trkpt lat="47.64161" lon="6.8729">
        <ele>424.943966</ele>
        <time>2012-11-23T19:38:12+100</time>
      </trkpt>
      <trkpt lat="47.64163" lon="6.87293">
        <ele>424.94397</ele>
        <time>2012-11-23T19:38:14+100</time>
      </trkpt>
      <trkpt lat="47.64164" lon="6.87296">
        <ele>424.94397</ele>
        <time>2012-11-23T19:38:14+100</time>
      </trkpt>
      <trkpt lat="47.64165" lon="6.87298">
        <ele>424.94397</ele>
        <time>2012-11-23T19:38:15+100</time>
      </trkpt>
      <trkpt lat="47.64166" lon="6.87301">
        <ele>424.943974</ele>
        <time>2012-11-23T19:38:16+100</time>
      </trkpt>
      <trkpt lat="47.64168" lon="6.87303">
        <ele>425.943977</ele>
        <time>2012-11-23T19:38:17+100</time>
      </trkpt>
      <trkpt lat="47.64169" lon="6.87304">
        <ele>426.943977</ele>
        <time>2012-11-23T19:38:18+100</time>
      </trkpt>
      <trkpt lat="47.6417" lon="6.87305">
        <ele>427.943981</ele>
        <time>2012-11-23T19:38:19+100</time>
      </trkpt>
      <trkpt lat="47.64171" lon="6.87307">
        <ele>427.943977</ele>
        <time>2012-11-23T19:38:20+100</time>
      </trkpt>
      <trkpt lat="47.64172" lon="6.87309">
        <ele>427.943985</ele>
        <time>2012-11-23T19:38:21+100</time>
      </trkpt>
      <trkpt lat="47.64173" lon="6.8731">
        <ele>428.943989</ele>
        <time>2012-11-23T19:38:22+100</time>
      </trkpt>
      <trkpt lat="47.64174" lon="6.87312">
        <ele>428.943989</ele>
        <time>2012-11-23T19:38:23+100</time>
      </trkpt>
      <trkpt lat="47.64177" lon="6.87318">
        <ele>430.943993</ele>
        <time>2012-11-23T19:38:26+100</time>
      </trkpt>
      <trkpt lat="47.64178" lon="6.8732">
        <ele>430.944</ele>
        <time>2012-11-23T19:38:27+100</time>
      </trkpt>
      <trkpt lat="47.64179" lon="6.87322">
        <ele>430.943996</ele>
        <time>2012-11-23T19:38:28+100</time>
      </trkpt>
      <trkpt lat="47.64179" lon="6.87324">
        <ele>430.944</ele>
        <time>2012-11-23T19:38:29+100</time>
      </trkpt>
      <trkpt lat="47.64181" lon="6.87327">
        <ele>430.944</ele>
        <time>2012-11-23T19:38:31+100</time>
      </trkpt>
      <trkpt lat="47.64182" lon="6.87328">
        <ele>431.944004</ele>
        <time>2012-11-23T19:38:32+100</time>
      </trkpt>
      <trkpt lat="47.64182" lon="6.87329">
        <ele>431.944004</ele>
        <time>2012-11-23T19:38:33+100</time>
      </trkpt>
      <trkpt lat="47.64183" lon="6.87328">
        <ele>433.944004</ele>
        <time>2012-11-23T19:38:35+100</time>
      </trkpt>
      <trkpt lat="47.64181" lon="6.87325">
        <ele>434.944</ele>
        <time>2012-11-23T19:38:46+100</time>
      </trkpt>
      <trkpt lat="47.64182" lon="6.87325">
        <ele>432.944</ele>
        <time>2012-11-23T19:38:56+100</time>
      </trkpt>
      <trkpt lat="47.64182" lon="6.87325">
        <ele>432.944</ele>
        <time>2012-11-23T19:38:58+100</time>
      </trkpt>
      <trkpt lat="47.64183" lon="6.87326">
        <ele>432.944004</ele>
        <time>2012-11-23T19:39:01+100</time>
      </trkpt>
      <trkpt lat="47.64183" lon="6.87326">
        <ele>428.944004</ele>
        <time>2012-11-23T19:39:19+100</time>
      </trkpt>
      <trkpt lat="47.64183" lon="6.87328">
        <ele>429.944004</ele>
        <time>2012-11-23T19:39:20+100</time>
      </trkpt>
      <trkpt lat="47.64184" lon="6.87335">
        <ele>427.944008</ele>
        <time>2012-11-23T19:39:26+100</time>
      </trkpt>
      <trkpt lat="47.64185" lon="6.87337">
        <ele>427.944008</ele>
        <time>2012-11-23T19:39:27+100</time>
      </trkpt>
      <trkpt lat="47.64186" lon="6.87339">
        <ele>427.944012</ele>
        <time>2012-11-23T19:39:28+100</time>
      </trkpt>
      <trkpt lat="47.64187" lon="6.87342">
        <ele>426.944016</ele>
        <time>2012-11-23T19:39:29+100</time>
      </trkpt>
      <trkpt lat="47.64191" lon="6.8735">
        <ele>424.944023</ele>
        <time>2012-11-23T19:39:33+100</time>
      </trkpt>
      <trkpt lat="47.64193" lon="6.87353">
        <ele>423.944023</ele>
        <time>2012-11-23T19:39:34+100</time>
      </trkpt>
      <trkpt lat="47.64198" lon="6.87361">
        <ele>422.944035</ele>
        <time>2012-11-23T19:39:37+100</time>
      </trkpt>
      <trkpt lat="47.64199" lon="6.87364">
        <ele>422.944035</ele>
        <time>2012-11-23T19:39:38+100</time>
      </trkpt>
      <trkpt lat="47.642" lon="6.87367">
        <ele>423.944042</ele>
        <time>2012-11-23T19:39:39+100</time>
      </trkpt>
      <trkpt lat="47.64201" lon="6.87369">
        <ele>423.944042</ele>
        <time>2012-11-23T19:39:40+100</time>
      </trkpt>
      <trkpt lat="47.64203" lon="6.87372">
        <ele>424.944042</ele>
        <time>2012-11-23T19:39:41+100</time>
      </trkpt>
      <trkpt lat="47.64204" lon="6.87374">
        <ele>424.944046</ele>
        <time>2012-11-23T19:39:42+100</time>
      </trkpt>
      <trkpt lat="47.64205" lon="6.87377">
        <ele>425.944054</ele>
        <time>2012-11-23T19:39:43+100</time>
      </trkpt>
      <trkpt lat="47.64207" lon="6.87379">
        <ele>425.944054</ele>
        <time>2012-11-23T19:39:44+100</time>
      </trkpt>
      <trkpt lat="47.64208" lon="6.87382">
        <ele>425.944054</ele>
        <time>2012-11-23T19:39:45+100</time>
      </trkpt>
      <trkpt lat="47.6421" lon="6.87384">
        <ele>425.944057</ele>
        <time>2012-11-23T19:39:46+100</time>
      </trkpt>
      <trkpt lat="47.64211" lon="6.87386">
        <ele>425.944057</ele>
        <time>2012-11-23T19:39:47+100</time>
      </trkpt>
      <trkpt lat="47.64213" lon="6.87389">
        <ele>425.944061</ele>
        <time>2012-11-23T19:39:49+100</time>
      </trkpt>
      <trkpt lat="47.64214" lon="6.87391">
        <ele>425.944065</ele>
        <time>2012-11-23T19:39:49+100</time>
      </trkpt>
      <trkpt lat="47.64216" lon="6.87393">
        <ele>425.944069</ele>
        <time>2012-11-23T19:39:50+100</time>
      </trkpt>
      <trkpt lat="47.64218" lon="6.87396">
        <ele>426.944073</ele>
        <time>2012-11-23T19:39:51+100</time>
      </trkpt>
      <trkpt lat="47.64219" lon="6.87398">
        <ele>426.944077</ele>
        <time>2012-11-23T19:39:52+100</time>
      </trkpt>
      <trkpt lat="47.64221" lon="6.874">
        <ele>426.944077</ele>
        <time>2012-11-23T19:39:53+100</time>
      </trkpt>
      <trkpt lat="47.64222" lon="6.87402">
        <ele>427.94408</ele>
        <time>2012-11-23T19:39:54+100</time>
      </trkpt>
      <trkpt lat="47.64224" lon="6.87404">
        <ele>427.944084</ele>
        <time>2012-11-23T19:39:55+100</time>
      </trkpt>
      <trkpt lat="47.64225" lon="6.87406">
        <ele>427.944084</ele>
        <time>2012-11-23T19:39:56+100</time>
      </trkpt>
      <trkpt lat="47.64227" lon="6.87408">
        <ele>427.944088</ele>
        <time>2012-11-23T19:39:57+100</time>
      </trkpt>
      <trkpt lat="47.64232" lon="6.87416">
        <ele>427.944099</ele>
        <time>2012-11-23T19:40:01+100</time>
      </trkpt>
      <trkpt lat="47.64233" lon="6.87419">
        <ele>427.944096</ele>
        <time>2012-11-23T19:40:02+100</time>
      </trkpt>
      <trkpt lat="47.64234" lon="6.87421">
        <ele>427.944103</ele>
        <time>2012-11-23T19:40:03+100</time>
      </trkpt>
      <trkpt lat="47.64235" lon="6.87424">
        <ele>427.944107</ele>
        <time>2012-11-23T19:40:04+100</time>
      </trkpt>
      <trkpt lat="47.64236" lon="6.87427">
        <ele>426.944103</ele>
        <time>2012-11-23T19:40:05+100</time>
      </trkpt>
      <trkpt lat="47.64237" lon="6.87429">
        <ele>426.944107</ele>
        <time>2012-11-23T19:40:06+100</time>
      </trkpt>
      <trkpt lat="47.64238" lon="6.87432">
        <ele>426.944107</ele>
        <time>2012-11-23T19:40:07+100</time>
      </trkpt>
      <trkpt lat="47.64239" lon="6.87435">
        <ele>426.944115</ele>
        <time>2012-11-23T19:40:08+100</time>
      </trkpt>
      <trkpt lat="47.6424" lon="6.87438">
        <ele>426.944115</ele>
        <time>2012-11-23T19:40:09+100</time>
      </trkpt>
      <trkpt lat="47.64241" lon="6.8744">
        <ele>425.944115</ele>
        <time>2012-11-23T19:40:10+100</time>
      </trkpt>
      <trkpt lat="47.64242" lon="6.87443">
        <ele>426.944115</ele>
        <time>2012-11-23T19:40:11+100</time>
      </trkpt>
      <trkpt lat="47.64243" lon="6.87446">
        <ele>425.944122</ele>
        <time>2012-11-23T19:40:12+100</time>
      </trkpt>
      <trkpt lat="47.64244" lon="6.87449">
        <ele>424.944122</ele>
        <time>2012-11-23T19:40:14+100</time>
      </trkpt>
      <trkpt lat="47.64245" lon="6.87451">
        <ele>424.944126</ele>
        <time>2012-11-23T19:40:14+100</time>
      </trkpt>
      <trkpt lat="47.64247" lon="6.87454">
        <ele>423.944126</ele>
        <time>2012-11-23T19:40:15+100</time>
      </trkpt>
      <trkpt lat="47.64248" lon="6.87456">
        <ele>423.94413</ele>
        <time>2012-11-23T19:40:17+100</time>
      </trkpt>
      <trkpt lat="47.64249" lon="6.87459">
        <ele>424.944134</ele>
        <time>2012-11-23T19:40:17+100</time>
      </trkpt>
      <trkpt lat="47.6425" lon="6.87461">
        <ele>424.944134</ele>
        <time>2012-11-23T19:40:18+100</time>
      </trkpt>
      <trkpt lat="47.64252" lon="6.87464">
        <ele>424.944138</ele>
        <time>2012-11-23T19:40:19+100</time>
      </trkpt>
      <trkpt lat="47.64253" lon="6.87466">
        <ele>424.944138</ele>
        <time>2012-11-23T19:40:20+100</time>
      </trkpt>
      <trkpt lat="47.64254" lon="6.87468">
        <ele>425.944141</ele>
        <time>2012-11-23T19:40:21+100</time>
      </trkpt>
      <trkpt lat="47.64256" lon="6.87471">
        <ele>426.944145</ele>
        <time>2012-11-23T19:40:22+100</time>
      </trkpt>
      <trkpt lat="47.64257" lon="6.87473">
        <ele>426.944149</ele>
        <time>2012-11-23T19:40:24+100</time>
      </trkpt>
      <trkpt lat="47.64258" lon="6.87475">
        <ele>426.944149</ele>
        <time>2012-11-23T19:40:25+100</time>
      </trkpt>
      <trkpt lat="47.64259" lon="6.87478">
        <ele>427.944149</ele>
        <time>2012-11-23T19:40:25+100</time>
      </trkpt>
      <trkpt lat="47.6426" lon="6.87481">
        <ele>427.944153</ele>
        <time>2012-11-23T19:40:26+100</time>
      </trkpt>
      <trkpt lat="47.64262" lon="6.87483">
        <ele>428.94416</ele>
        <time>2012-11-23T19:40:27+100</time>
      </trkpt>
      <trkpt lat="47.64263" lon="6.87485">
        <ele>428.94416</ele>
        <time>2012-11-23T19:40:28+100</time>
      </trkpt>
      <trkpt lat="47.64264" lon="6.87488">
        <ele>428.94416</ele>
        <time>2012-11-23T19:40:29+100</time>
      </trkpt>
      <trkpt lat="47.64266" lon="6.8749">
        <ele>428.94416</ele>
        <time>2012-11-23T19:40:30+100</time>
      </trkpt>
      <trkpt lat="47.64267" lon="6.87493">
        <ele>428.944164</ele>
        <time>2012-11-23T19:40:31+100</time>
      </trkpt>
      <trkpt lat="47.64269" lon="6.87495">
        <ele>428.944168</ele>
        <time>2012-11-23T19:40:32+100</time>
      </trkpt>
      <trkpt lat="47.6427" lon="6.87498">
        <ele>428.944168</ele>
        <time>2012-11-23T19:40:33+100</time>
      </trkpt>
      <trkpt lat="47.64272" lon="6.875">
        <ele>427.944172</ele>
        <time>2012-11-23T19:40:34+100</time>
      </trkpt>
      <trkpt lat="47.64273" lon="6.87503">
        <ele>427.944176</ele>
        <time>2012-11-23T19:40:35+100</time>
      </trkpt>
      <trkpt lat="47.64274" lon="6.87505">
        <ele>427.94418</ele>
        <time>2012-11-23T19:40:36+100</time>
      </trkpt>
      <trkpt lat="47.64275" lon="6.87508">
        <ele>427.944183</ele>
        <time>2012-11-23T19:40:37+100</time>
      </trkpt>
      <trkpt lat="47.64277" lon="6.8751">
        <ele>427.944183</ele>
        <time>2012-11-23T19:40:38+100</time>
      </trkpt>
      <trkpt lat="47.64278" lon="6.87513">
        <ele>427.944187</ele>
        <time>2012-11-23T19:40:40+100</time>
      </trkpt>
      <trkpt lat="47.64279" lon="6.87515">
        <ele>427.944187</ele>
        <time>2012-11-23T19:40:40+100</time>
      </trkpt>
      <trkpt lat="47.6428" lon="6.87518">
        <ele>426.944191</ele>
        <time>2012-11-23T19:40:41+100</time>
      </trkpt>
      <trkpt lat="47.64281" lon="6.8752">
        <ele>427.944191</ele>
        <time>2012-11-23T19:40:42+100</time>
      </trkpt>
      <trkpt lat="47.64283" lon="6.87523">
        <ele>428.944199</ele>
        <time>2012-11-23T19:40:44+100</time>
      </trkpt>
      <trkpt lat="47.64284" lon="6.87525">
        <ele>428.944199</ele>
        <time>2012-11-23T19:40:44+100</time>
      </trkpt>
      <trkpt lat="47.64285" lon="6.87528">
        <ele>429.944199</ele>
        <time>2012-11-23T19:40:45+100</time>
      </trkpt>
      <trkpt lat="47.64286" lon="6.8753">
        <ele>429.944199</ele>
        <time>2012-11-23T19:40:46+100</time>
      </trkpt>
      <trkpt lat="47.64287" lon="6.87533">
        <ele>429.944202</ele>
        <time>2012-11-23T19:40:47+100</time>
      </trkpt>
      <trkpt lat="47.64288" lon="6.87536">
        <ele>430.944206</ele>
        <time>2012-11-23T19:40:48+100</time>
      </trkpt>
      <trkpt lat="47.64289" lon="6.87539">
        <ele>430.944206</ele>
        <time>2012-11-23T19:40:49+100</time>
      </trkpt>
      <trkpt lat="47.64289" lon="6.87542">
        <ele>430.944206</ele>
        <time>2012-11-23T19:40:50+100</time>
      </trkpt>
      <trkpt lat="47.6429" lon="6.87545">
        <ele>430.944214</ele>
        <time>2012-11-23T19:40:51+100</time>
      </trkpt>
      <trkpt lat="47.6429" lon="6.87548">
        <ele>430.944214</ele>
        <time>2012-11-23T19:40:52+100</time>
      </trkpt>
      <trkpt lat="47.6429" lon="6.87551">
        <ele>430.94421</ele>
        <time>2012-11-23T19:40:53+100</time>
      </trkpt>
      <trkpt lat="47.64291" lon="6.87561">
        <ele>430.944218</ele>
        <time>2012-11-23T19:40:56+100</time>
      </trkpt>
      <trkpt lat="47.64291" lon="6.87564">
        <ele>430.944218</ele>
        <time>2012-11-23T19:40:57+100</time>
      </trkpt>
      <trkpt lat="47.6429" lon="6.87567">
        <ele>430.944218</ele>
        <time>2012-11-23T19:40:58+100</time>
      </trkpt>
      <trkpt lat="47.6429" lon="6.87571">
        <ele>430.944214</ele>
        <time>2012-11-23T19:40:59+100</time>
      </trkpt>
      <trkpt lat="47.6429" lon="6.87574">
        <ele>430.944218</ele>
        <time>2012-11-23T19:41:00+100</time>
      </trkpt>
      <trkpt lat="47.6429" lon="6.87577">
        <ele>430.944221</ele>
        <time>2012-11-23T19:41:01+100</time>
      </trkpt>
      <trkpt lat="47.6429" lon="6.8758">
        <ele>430.944214</ele>
        <time>2012-11-23T19:41:02+100</time>
      </trkpt>
      <trkpt lat="47.6429" lon="6.87583">
        <ele>430.944218</ele>
        <time>2012-11-23T19:41:03+100</time>
      </trkpt>
      <trkpt lat="47.6429" lon="6.87586">
        <ele>430.944214</ele>
        <time>2012-11-23T19:41:04+100</time>
      </trkpt>
      <trkpt lat="47.6429" lon="6.87589">
        <ele>430.944221</ele>
        <time>2012-11-23T19:41:05+100</time>
      </trkpt>
      <trkpt lat="47.6429" lon="6.87593">
        <ele>430.944221</ele>
        <time>2012-11-23T19:41:06+100</time>
      </trkpt>
      <trkpt lat="47.6429" lon="6.876">
        <ele>430.944221</ele>
        <time>2012-11-23T19:41:08+100</time>
      </trkpt>
      <trkpt lat="47.64291" lon="6.87603">
        <ele>430.944225</ele>
        <time>2012-11-23T19:41:09+100</time>
      </trkpt>
      <trkpt lat="47.64291" lon="6.87607">
        <ele>430.944221</ele>
        <time>2012-11-23T19:41:10+100</time>
      </trkpt>
      <trkpt lat="47.64291" lon="6.87611">
        <ele>430.944221</ele>
        <time>2012-11-23T19:41:11+100</time>
      </trkpt>
      <trkpt lat="47.64291" lon="6.87615">
        <ele>430.944225</ele>
        <time>2012-11-23T19:41:12+100</time>
      </trkpt>
      <trkpt lat="47.64292" lon="6.87618">
        <ele>430.944229</ele>
        <time>2012-11-23T19:41:13+100</time>
      </trkpt>
      <trkpt lat="47.64293" lon="6.87622">
        <ele>430.944229</ele>
        <time>2012-11-23T19:41:14+100</time>
      </trkpt>
      <trkpt lat="47.64293" lon="6.87626">
        <ele>430.944229</ele>
        <time>2012-11-23T19:41:15+100</time>
      </trkpt>
      <trkpt lat="47.64294" lon="6.87629">
        <ele>430.944229</ele>
        <time>2012-11-23T19:41:17+100</time>
      </trkpt>
      <trkpt lat="47.64294" lon="6.87633">
        <ele>430.944233</ele>
        <time>2012-11-23T19:41:17+100</time>
      </trkpt>
      <trkpt lat="47.64295" lon="6.87636">
        <ele>430.944237</ele>
        <time>2012-11-23T19:41:18+100</time>
      </trkpt>
      <trkpt lat="47.64295" lon="6.87639">
        <ele>430.944233</ele>
        <time>2012-11-23T19:41:19+100</time>
      </trkpt>
      <trkpt lat="47.64295" lon="6.87642">
        <ele>431.944233</ele>
        <time>2012-11-23T19:41:21+100</time>
      </trkpt>
      <trkpt lat="47.64295" lon="6.87644">
        <ele>431.944241</ele>
        <time>2012-11-23T19:41:22+100</time>
      </trkpt>
      <trkpt lat="47.64296" lon="6.87648">
        <ele>431.944237</ele>
        <time>2012-11-23T19:41:24+100</time>
      </trkpt>
      <trkpt lat="47.64296" lon="6.87651">
        <ele>432.944241</ele>
        <time>2012-11-23T19:41:25+100</time>
      </trkpt>
      <trkpt lat="47.64295" lon="6.87653">
        <ele>432.944237</ele>
        <time>2012-11-23T19:41:26+100</time>
      </trkpt>
      <trkpt lat="47.64295" lon="6.87656">
        <ele>433.944237</ele>
        <time>2012-11-23T19:41:27+100</time>
      </trkpt>
      <trkpt lat="47.64295" lon="6.87659">
        <ele>433.944237</ele>
        <time>2012-11-23T19:41:28+100</time>
      </trkpt>
      <trkpt lat="47.64295" lon="6.87661">
        <ele>433.944241</ele>
        <time>2012-11-23T19:41:29+100</time>
      </trkpt>
      <trkpt lat="47.64295" lon="6.87668">
        <ele>433.944237</ele>
        <time>2012-11-23T19:41:33+100</time>
      </trkpt>
      <trkpt lat="47.64294" lon="6.8767">
        <ele>432.944241</ele>
        <time>2012-11-23T19:41:33+100</time>
      </trkpt>
      <trkpt lat="47.64294" lon="6.87672">
        <ele>432.944237</ele>
        <time>2012-11-23T19:41:35+100</time>
      </trkpt>
      <trkpt lat="47.64293" lon="6.87673">
        <ele>431.944237</ele>
        <time>2012-11-23T19:41:35+100</time>
      </trkpt>
      <trkpt lat="47.64293" lon="6.87675">
        <ele>431.944237</ele>
        <time>2012-11-23T19:41:36+100</time>
      </trkpt>
      <trkpt lat="47.64293" lon="6.87676">
        <ele>431.944237</ele>
        <time>2012-11-23T19:41:37+100</time>
      </trkpt>
      <trkpt lat="47.64292" lon="6.87676">
        <ele>430.944237</ele>
        <time>2012-11-23T19:41:39+100</time>
      </trkpt>
      <trkpt lat="47.64291" lon="6.87676">
        <ele>429.944237</ele>
        <time>2012-11-23T19:41:44+100</time>
      </trkpt>
      <trkpt lat="47.64291" lon="6.87677">
        <ele>430.944237</ele>
        <time>2012-11-23T19:41:47+100</time>
      </trkpt>
      <trkpt lat="47.6429" lon="6.87677">
        <ele>429.944237</ele>
        <time>2012-11-23T19:41:48+100</time>
      </trkpt>
      <trkpt lat="47.6429" lon="6.87678">
        <ele>429.944233</ele>
        <time>2012-11-23T19:41:50+100</time>
      </trkpt>
      <trkpt lat="47.6429" lon="6.87679">
        <ele>431.944237</ele>
        <time>2012-11-23T19:41:53+100</time>
      </trkpt>
      <trkpt lat="47.6429" lon="6.87679">
        <ele>432.944237</ele>
        <time>2012-11-23T19:41:56+100</time>
      </trkpt>
      <trkpt lat="47.6429" lon="6.8768">
        <ele>432.944237</ele>
        <time>2012-11-23T19:41:57+100</time>
      </trkpt>
      <trkpt lat="47.6429" lon="6.8768">
        <ele>433.944237</ele>
        <time>2012-11-23T19:42:04+100</time>
      </trkpt>
      <trkpt lat="47.6429" lon="6.87681">
        <ele>434.944237</ele>
        <time>2012-11-23T19:42:06+100</time>
      </trkpt>
      <trkpt lat="47.6429" lon="6.87682">
        <ele>435.944237</ele>
        <time>2012-11-23T19:42:07+100</time>
      </trkpt>
      <trkpt lat="47.6429" lon="6.87684">
        <ele>435.944237</ele>
        <time>2012-11-23T19:42:08+100</time>
      </trkpt>
      <trkpt lat="47.64288" lon="6.87693">
        <ele>434.944233</ele>
        <time>2012-11-23T19:42:11+100</time>
      </trkpt>
      <trkpt lat="47.64287" lon="6.87697">
        <ele>434.944237</ele>
        <time>2012-11-23T19:42:12+100</time>
      </trkpt>
      <trkpt lat="47.64286" lon="6.877">
        <ele>433.944233</ele>
        <time>2012-11-23T19:42:14+100</time>
      </trkpt>
      <trkpt lat="47.64284" lon="6.87704">
        <ele>433.944233</ele>
        <time>2012-11-23T19:42:14+100</time>
      </trkpt>
      <trkpt lat="47.64282" lon="6.87707">
        <ele>432.944229</ele>
        <time>2012-11-23T19:42:15+100</time>
      </trkpt>
      <trkpt lat="47.64281" lon="6.87709">
        <ele>432.944225</ele>
        <time>2012-11-23T19:42:16+100</time>
      </trkpt>
      <trkpt lat="47.64279" lon="6.87712">
        <ele>431.944221</ele>
        <time>2012-11-23T19:42:17+100</time>
      </trkpt>
      <trkpt lat="47.64276" lon="6.87714">
        <ele>431.944218</ele>
        <time>2012-11-23T19:42:18+100</time>
      </trkpt>
      <trkpt lat="47.64274" lon="6.87717">
        <ele>431.944218</ele>
        <time>2012-11-23T19:42:19+100</time>
      </trkpt>
      <trkpt lat="47.64272" lon="6.87719">
        <ele>430.944214</ele>
        <time>2012-11-23T19:42:21+100</time>
      </trkpt>
      <trkpt lat="47.6427" lon="6.87721">
        <ele>430.944214</ele>
        <time>2012-11-23T19:42:21+100</time>
      </trkpt>
      <trkpt lat="47.64268" lon="6.87724">
        <ele>430.944206</ele>
        <time>2012-11-23T19:42:22+100</time>
      </trkpt>
      <trkpt lat="47.64265" lon="6.87726">
        <ele>429.944202</ele>
        <time>2012-11-23T19:42:23+100</time>
      </trkpt>
      <trkpt lat="47.64264" lon="6.87728">
        <ele>428.944202</ele>
        <time>2012-11-23T19:42:24+100</time>
      </trkpt>
      <trkpt lat="47.64262" lon="6.8773">
        <ele>428.944199</ele>
        <time>2012-11-23T19:42:26+100</time>
      </trkpt>
      <trkpt lat="47.64261" lon="6.87732">
        <ele>428.944199</ele>
        <time>2012-11-23T19:42:26+100</time>
      </trkpt>
      <trkpt lat="47.64259" lon="6.87734">
        <ele>428.944195</ele>
        <time>2012-11-23T19:42:27+100</time>
      </trkpt>
      <trkpt lat="47.64257" lon="6.87737">
        <ele>428.944191</ele>
        <time>2012-11-23T19:42:28+100</time>
      </trkpt>
      <trkpt lat="47.64255" lon="6.8774">
        <ele>427.944195</ele>
        <time>2012-11-23T19:42:29+100</time>
      </trkpt>
      <trkpt lat="47.64254" lon="6.87743">
        <ele>427.944191</ele>
        <time>2012-11-23T19:42:30+100</time>
      </trkpt>
      <trkpt lat="47.64252" lon="6.87746">
        <ele>426.944187</ele>
        <time>2012-11-23T19:42:31+100</time>
      </trkpt>
      <trkpt lat="47.64252" lon="6.8775">
        <ele>426.944187</ele>
        <time>2012-11-23T19:42:33+100</time>
      </trkpt>
      <trkpt lat="47.64251" lon="6.87754">
        <ele>426.944187</ele>
        <time>2012-11-23T19:42:33+100</time>
      </trkpt>
      <trkpt lat="47.6425" lon="6.87758">
        <ele>426.944187</ele>
        <time>2012-11-23T19:42:34+100</time>
      </trkpt>
      <trkpt lat="47.6425" lon="6.87762">
        <ele>426.944191</ele>
        <time>2012-11-23T19:42:35+100</time>
      </trkpt>
      <trkpt lat="47.6425" lon="6.87765">
        <ele>426.944187</ele>
        <time>2012-11-23T19:42:36+100</time>
      </trkpt>
      <trkpt lat="47.64251" lon="6.87769">
        <ele>425.944187</ele>
        <time>2012-11-23T19:42:37+100</time>
      </trkpt>
      <trkpt lat="47.64251" lon="6.87772">
        <ele>425.944191</ele>
        <time>2012-11-23T19:42:38+100</time>
      </trkpt>
      <trkpt lat="47.64251" lon="6.87776">
        <ele>425.944191</ele>
        <time>2012-11-23T19:42:39+100</time>
      </trkpt>
      <trkpt lat="47.64252" lon="6.87779">
        <ele>425.944195</ele>
        <time>2012-11-23T19:42:40+100</time>
      </trkpt>
      <trkpt lat="47.64253" lon="6.87781">
        <ele>425.944199</ele>
        <time>2012-11-23T19:42:41+100</time>
      </trkpt>
      <trkpt lat="47.64253" lon="6.87784">
        <ele>425.944191</ele>
        <time>2012-11-23T19:42:42+100</time>
      </trkpt>
      <trkpt lat="47.64254" lon="6.87786">
        <ele>425.944199</ele>
        <time>2012-11-23T19:42:43+100</time>
      </trkpt>
      <trkpt lat="47.64254" lon="6.87788">
        <ele>425.944199</ele>
        <time>2012-11-23T19:42:44+100</time>
      </trkpt>
      <trkpt lat="47.64255" lon="6.87791">
        <ele>425.944202</ele>
        <time>2012-11-23T19:42:45+100</time>
      </trkpt>
      <trkpt lat="47.64255" lon="6.87793">
        <ele>424.944199</ele>
        <time>2012-11-23T19:42:46+100</time>
      </trkpt>
      <trkpt lat="47.64256" lon="6.87796">
        <ele>424.944199</ele>
        <time>2012-11-23T19:42:47+100</time>
      </trkpt>
      <trkpt lat="47.64257" lon="6.87799">
        <ele>424.944206</ele>
        <time>2012-11-23T19:42:48+100</time>
      </trkpt>
      <trkpt lat="47.64257" lon="6.87802">
        <ele>424.94421</ele>
        <time>2012-11-23T19:42:50+100</time>
      </trkpt>
      <trkpt lat="47.64258" lon="6.87805">
        <ele>423.944206</ele>
        <time>2012-11-23T19:42:50+100</time>
      </trkpt>
      <trkpt lat="47.64259" lon="6.87808">
        <ele>423.94421</ele>
        <time>2012-11-23T19:42:51+100</time>
      </trkpt>
      <trkpt lat="47.6426" lon="6.87811">
        <ele>423.944214</ele>
        <time>2012-11-23T19:42:52+100</time>
      </trkpt>
      <trkpt lat="47.64261" lon="6.87815">
        <ele>422.944214</ele>
        <time>2012-11-23T19:42:53+100</time>
      </trkpt>
      <trkpt lat="47.64262" lon="6.8782">
        <ele>422.944214</ele>
        <time>2012-11-23T19:42:54+100</time>
      </trkpt>
      <trkpt lat="47.64263" lon="6.87823">
        <ele>422.944221</ele>
        <time>2012-11-23T19:42:55+100</time>
      </trkpt>
      <trkpt lat="47.64264" lon="6.87827">
        <ele>423.944221</ele>
        <time>2012-11-23T19:42:56+100</time>
      </trkpt>
      <trkpt lat="47.64266" lon="6.8783">
        <ele>423.944221</ele>
        <time>2012-11-23T19:42:57+100</time>
      </trkpt>
      <trkpt lat="47.64267" lon="6.87832">
        <ele>423.944225</ele>
        <time>2012-11-23T19:42:58+100</time>
      </trkpt>
      <trkpt lat="47.64269" lon="6.87835">
        <ele>423.944229</ele>
        <time>2012-11-23T19:42:59+100</time>
      </trkpt>
      <trkpt lat="47.6427" lon="6.87837">
        <ele>423.944237</ele>
        <time>2012-11-23T19:43:00+100</time>
      </trkpt>
      <trkpt lat="47.64272" lon="6.8784">
        <ele>423.944233</ele>
        <time>2012-11-23T19:43:01+100</time>
      </trkpt>
      <trkpt lat="47.64273" lon="6.87843">
        <ele>423.944237</ele>
        <time>2012-11-23T19:43:02+100</time>
      </trkpt>
      <trkpt lat="47.64275" lon="6.87845">
        <ele>423.944241</ele>
        <time>2012-11-23T19:43:03+100</time>
      </trkpt>
      <trkpt lat="47.64277" lon="6.87848">
        <ele>423.944244</ele>
        <time>2012-11-23T19:43:04+100</time>
      </trkpt>
      <trkpt lat="47.64278" lon="6.87851">
        <ele>422.944248</ele>
        <time>2012-11-23T19:43:05+100</time>
      </trkpt>
      <trkpt lat="47.6428" lon="6.87854">
        <ele>422.944252</ele>
        <time>2012-11-23T19:43:06+100</time>
      </trkpt>
      <trkpt lat="47.64282" lon="6.87857">
        <ele>423.944256</ele>
        <time>2012-11-23T19:43:07+100</time>
      </trkpt>
      <trkpt lat="47.64284" lon="6.8786">
        <ele>423.944256</ele>
        <time>2012-11-23T19:43:08+100</time>
      </trkpt>
      <trkpt lat="47.64286" lon="6.87862">
        <ele>423.944263</ele>
        <time>2012-11-23T19:43:09+100</time>
      </trkpt>
      <trkpt lat="47.64288" lon="6.87865">
        <ele>423.944263</ele>
        <time>2012-11-23T19:43:10+100</time>
      </trkpt>
      <trkpt lat="47.6429" lon="6.87866">
        <ele>423.944267</ele>
        <time>2012-11-23T19:43:11+100</time>
      </trkpt>
      <trkpt lat="47.64293" lon="6.87868">
        <ele>423.944271</ele>
        <time>2012-11-23T19:43:12+100</time>
      </trkpt>
      <trkpt lat="47.64295" lon="6.87869">
        <ele>422.944279</ele>
        <time>2012-11-23T19:43:13+100</time>
      </trkpt>
      <trkpt lat="47.64297" lon="6.8787">
        <ele>423.944283</ele>
        <time>2012-11-23T19:43:14+100</time>
      </trkpt>
      <trkpt lat="47.643" lon="6.87871">
        <ele>423.944286</ele>
        <time>2012-11-23T19:43:15+100</time>
      </trkpt>
      <trkpt lat="47.64302" lon="6.87871">
        <ele>423.944286</ele>
        <time>2012-11-23T19:43:16+100</time>
      </trkpt>
      <trkpt lat="47.64305" lon="6.87872">
        <ele>423.94429</ele>
        <time>2012-11-23T19:43:17+100</time>
      </trkpt>
      <trkpt lat="47.64307" lon="6.87872">
        <ele>423.944298</ele>
        <time>2012-11-23T19:43:18+100</time>
      </trkpt>
      <trkpt lat="47.64309" lon="6.87873">
        <ele>423.944302</ele>
        <time>2012-11-23T19:43:19+100</time>
      </trkpt>
      <trkpt lat="47.64309" lon="6.87873">
        <ele>423.944302</ele>
        <time>2012-11-23T19:43:20+100</time>
      </trkpt>
      <trkpt lat="47.64311" lon="6.87873">
        <ele>423.944302</ele>
        <time>2012-11-23T19:43:21+100</time>
      </trkpt>
      <trkpt lat="47.64315" lon="6.87873">
        <ele>422.944309</ele>
        <time>2012-11-23T19:43:27+100</time>
      </trkpt>
      <trkpt lat="47.6432" lon="6.87872">
        <ele>422.944313</ele>
        <time>2012-11-23T19:43:31+100</time>
      </trkpt>
      <trkpt lat="47.64322" lon="6.87872">
        <ele>422.944321</ele>
        <time>2012-11-23T19:43:32+100</time>
      </trkpt>
      <trkpt lat="47.64324" lon="6.87873">
        <ele>422.944324</ele>
        <time>2012-11-23T19:43:33+100</time>
      </trkpt>
      <trkpt lat="47.64325" lon="6.87874">
        <ele>423.944328</ele>
        <time>2012-11-23T19:43:34+100</time>
      </trkpt>
      <trkpt lat="47.64327" lon="6.87875">
        <ele>423.944328</ele>
        <time>2012-11-23T19:43:35+100</time>
      </trkpt>
      <trkpt lat="47.64328" lon="6.87876">
        <ele>423.944332</ele>
        <time>2012-11-23T19:43:36+100</time>
      </trkpt>
      <trkpt lat="47.6433" lon="6.87877">
        <ele>423.944328</ele>
        <time>2012-11-23T19:43:37+100</time>
      </trkpt>
      <trkpt lat="47.64331" lon="6.87878">
        <ele>423.944332</ele>
        <time>2012-11-23T19:43:38+100</time>
      </trkpt>
      <trkpt lat="47.64332" lon="6.8788">
        <ele>424.94434</ele>
        <time>2012-11-23T19:43:39+100</time>
      </trkpt>
      <trkpt lat="47.64334" lon="6.87881">
        <ele>424.94434</ele>
        <time>2012-11-23T19:43:40+100</time>
      </trkpt>
      <trkpt lat="47.64335" lon="6.87883">
        <ele>425.944344</ele>
        <time>2012-11-23T19:43:41+100</time>
      </trkpt>
      <trkpt lat="47.64338" lon="6.87885">
        <ele>426.944347</ele>
        <time>2012-11-23T19:43:43+100</time>
      </trkpt>
      <trkpt lat="47.6434" lon="6.87886">
        <ele>426.944351</ele>
        <time>2012-11-23T19:43:44+100</time>
      </trkpt>
      <trkpt lat="47.64341" lon="6.87887">
        <ele>426.944351</ele>
        <time>2012-11-23T19:43:45+100</time>
      </trkpt>
      <trkpt lat="47.64343" lon="6.87888">
        <ele>425.944355</ele>
        <time>2012-11-23T19:43:46+100</time>
      </trkpt>
      <trkpt lat="47.64344" lon="6.87889">
        <ele>425.944355</ele>
        <time>2012-11-23T19:43:47+100</time>
      </trkpt>
      <trkpt lat="47.64345" lon="6.8789">
        <ele>425.944363</ele>
        <time>2012-11-23T19:43:48+100</time>
      </trkpt>
      <trkpt lat="47.64349" lon="6.87892">
        <ele>426.944363</ele>
        <time>2012-11-23T19:43:50+100</time>
      </trkpt>
      <trkpt lat="47.64351" lon="6.87893">
        <ele>425.94437</ele>
        <time>2012-11-23T19:43:51+100</time>
      </trkpt>
      <trkpt lat="47.64359" lon="6.87901">
        <ele>425.944382</ele>
        <time>2012-11-23T19:43:56+100</time>
      </trkpt>
      <trkpt lat="47.64367" lon="6.8791">
        <ele>426.944393</ele>
        <time>2012-11-23T19:44:00+100</time>
      </trkpt>
      <trkpt lat="47.64376" lon="6.87913">
        <ele>428.944412</ele>
        <time>2012-11-23T19:44:08+100</time>
      </trkpt>
      <trkpt lat="47.64378" lon="6.87913">
        <ele>428.944416</ele>
        <time>2012-11-23T19:44:09+100</time>
      </trkpt>
      <trkpt lat="47.6438" lon="6.87913">
        <ele>428.94442</ele>
        <time>2012-11-23T19:44:10+100</time>
      </trkpt>
      <trkpt lat="47.64382" lon="6.87913">
        <ele>428.94442</ele>
        <time>2012-11-23T19:44:11+100</time>
      </trkpt>
      <trkpt lat="47.64383" lon="6.87914">
        <ele>429.94442</ele>
        <time>2012-11-23T19:44:12+100</time>
      </trkpt>
      <trkpt lat="47.64385" lon="6.87914">
        <ele>429.944427</ele>
        <time>2012-11-23T19:44:13+100</time>
      </trkpt>
      <trkpt lat="47.64387" lon="6.87914">
        <ele>429.944427</ele>
        <time>2012-11-23T19:44:14+100</time>
      </trkpt>
      <trkpt lat="47.64388" lon="6.87914">
        <ele>429.944427</ele>
        <time>2012-11-23T19:44:15+100</time>
      </trkpt>
      <trkpt lat="47.64389" lon="6.87915">
        <ele>430.944431</ele>
        <time>2012-11-23T19:44:16+100</time>
      </trkpt>
      <trkpt lat="47.64389" lon="6.87915">
        <ele>430.944431</ele>
        <time>2012-11-23T19:44:17+100</time>
      </trkpt>
      <trkpt lat="47.6439" lon="6.87915">
        <ele>430.944435</ele>
        <time>2012-11-23T19:44:18+100</time>
      </trkpt>
      <trkpt lat="47.64392" lon="6.87917">
        <ele>429.944435</ele>
        <time>2012-11-23T19:44:22+100</time>
      </trkpt>
      <trkpt lat="47.64393" lon="6.87918">
        <ele>429.944439</ele>
        <time>2012-11-23T19:44:23+100</time>
      </trkpt>
      <trkpt lat="47.64394" lon="6.87919">
        <ele>429.944443</ele>
        <time>2012-11-23T19:44:25+100</time>
      </trkpt>
      <trkpt lat="47.64396" lon="6.87919">
        <ele>430.944443</ele>
        <time>2012-11-23T19:44:25+100</time>
      </trkpt>
      <trkpt lat="47.64396" lon="6.8792">
        <ele>430.944443</ele>
        <time>2012-11-23T19:44:26+100</time>
      </trkpt>
      <trkpt lat="47.64397" lon="6.87921">
        <ele>430.944447</ele>
        <time>2012-11-23T19:44:27+100</time>
      </trkpt>
      <trkpt lat="47.64398" lon="6.87922">
        <ele>430.944447</ele>
        <time>2012-11-23T19:44:28+100</time>
      </trkpt>
      <trkpt lat="47.64399" lon="6.87923">
        <ele>430.944447</ele>
        <time>2012-11-23T19:44:29+100</time>
      </trkpt>
      <trkpt lat="47.644" lon="6.87924">
        <ele>430.944454</ele>
        <time>2012-11-23T19:44:30+100</time>
      </trkpt>
      <trkpt lat="47.64402" lon="6.87933">
        <ele>429.944454</ele>
        <time>2012-11-23T19:44:35+100</time>
      </trkpt>
      <trkpt lat="47.64403" lon="6.87934">
        <ele>429.944458</ele>
        <time>2012-11-23T19:44:37+100</time>
      </trkpt>
      <trkpt lat="47.64403" lon="6.87936">
        <ele>429.944462</ele>
        <time>2012-11-23T19:44:37+100</time>
      </trkpt>
      <trkpt lat="47.64404" lon="6.87937">
        <ele>429.944458</ele>
        <time>2012-11-23T19:44:39+100</time>
      </trkpt>
      <trkpt lat="47.64404" lon="6.87938">
        <ele>429.944458</ele>
        <time>2012-11-23T19:44:40+100</time>
      </trkpt>
      <trkpt lat="47.64405" lon="6.8794">
        <ele>429.944462</ele>
        <time>2012-11-23T19:44:41+100</time>
      </trkpt>
      <trkpt lat="47.64405" lon="6.87941">
        <ele>429.944462</ele>
        <time>2012-11-23T19:44:41+100</time>
      </trkpt>
      <trkpt lat="47.64406" lon="6.87943">
        <ele>429.944466</ele>
        <time>2012-11-23T19:44:42+100</time>
      </trkpt>
      <trkpt lat="47.64407" lon="6.87944">
        <ele>429.944462</ele>
        <time>2012-11-23T19:44:43+100</time>
      </trkpt>
      <trkpt lat="47.64407" lon="6.87946">
        <ele>429.944469</ele>
        <time>2012-11-23T19:44:44+100</time>
      </trkpt>
      <trkpt lat="47.64408" lon="6.87947">
        <ele>429.944469</ele>
        <time>2012-11-23T19:44:45+100</time>
      </trkpt>
      <trkpt lat="47.64409" lon="6.87953">
        <ele>430.944469</ele>
        <time>2012-11-23T19:44:49+100</time>
      </trkpt>
      <trkpt lat="47.6441" lon="6.87954">
        <ele>430.944473</ele>
        <time>2012-11-23T19:44:50+100</time>
      </trkpt>
      <trkpt lat="47.64409" lon="6.87956">
        <ele>430.944469</ele>
        <time>2012-11-23T19:44:51+100</time>
      </trkpt>
      <trkpt lat="47.64409" lon="6.87958">
        <ele>430.944469</ele>
        <time>2012-11-23T19:44:52+100</time>
      </trkpt>
      <trkpt lat="47.64408" lon="6.8796">
        <ele>430.944466</ele>
        <time>2012-11-23T19:44:53+100</time>
      </trkpt>
      <trkpt lat="47.64408" lon="6.87962">
        <ele>430.944473</ele>
        <time>2012-11-23T19:44:55+100</time>
      </trkpt>
      <trkpt lat="47.64407" lon="6.87964">
        <ele>430.944473</ele>
        <time>2012-11-23T19:44:55+100</time>
      </trkpt>
      <trkpt lat="47.64406" lon="6.87967">
        <ele>430.944469</ele>
        <time>2012-11-23T19:44:56+100</time>
      </trkpt>
      <trkpt lat="47.64406" lon="6.87969">
        <ele>431.944466</ele>
        <time>2012-11-23T19:44:58+100</time>
      </trkpt>
      <trkpt lat="47.64405" lon="6.87972">
        <ele>432.944469</ele>
        <time>2012-11-23T19:44:58+100</time>
      </trkpt>
      <trkpt lat="47.64405" lon="6.87974">
        <ele>432.944466</ele>
        <time>2012-11-23T19:44:59+100</time>
      </trkpt>
      <trkpt lat="47.64405" lon="6.87976">
        <ele>432.944469</ele>
        <time>2012-11-23T19:45:00+100</time>
      </trkpt>
      <trkpt lat="47.64406" lon="6.87982">
        <ele>432.944469</ele>
        <time>2012-11-23T19:45:02+100</time>
      </trkpt>
      <trkpt lat="47.64406" lon="6.87985">
        <ele>433.944469</ele>
        <time>2012-11-23T19:45:03+100</time>
      </trkpt>
      <trkpt lat="47.64406" lon="6.87987">
        <ele>433.944473</ele>
        <time>2012-11-23T19:45:04+100</time>
      </trkpt>
      <trkpt lat="47.64407" lon="6.87989">
        <ele>434.944469</ele>
        <time>2012-11-23T19:45:05+100</time>
      </trkpt>
      <trkpt lat="47.64408" lon="6.87991">
        <ele>434.944473</ele>
        <time>2012-11-23T19:45:07+100</time>
      </trkpt>
      <trkpt lat="47.64409" lon="6.87993">
        <ele>434.944477</ele>
        <time>2012-11-23T19:45:07+100</time>
      </trkpt>
      <trkpt lat="47.6441" lon="6.87994">
        <ele>434.944481</ele>
        <time>2012-11-23T19:45:08+100</time>
      </trkpt>
      <trkpt lat="47.64411" lon="6.87996">
        <ele>435.944481</ele>
        <time>2012-11-23T19:45:09+100</time>
      </trkpt>
      <trkpt lat="47.64412" lon="6.87997">
        <ele>434.944481</ele>
        <time>2012-11-23T19:45:10+100</time>
      </trkpt>
      <trkpt lat="47.64413" lon="6.87999">
        <ele>434.944481</ele>
        <time>2012-11-23T19:45:11+100</time>
      </trkpt>
      <trkpt lat="47.64414" lon="6.88">
        <ele>435.944485</ele>
        <time>2012-11-23T19:45:13+100</time>
      </trkpt>
      <trkpt lat="47.64415" lon="6.88001">
        <ele>435.944489</ele>
        <time>2012-11-23T19:45:13+100</time>
      </trkpt>
      <trkpt lat="47.64419" lon="6.88006">
        <ele>435.944496</ele>
        <time>2012-11-23T19:45:17+100</time>
      </trkpt>
      <trkpt lat="47.6442" lon="6.88008">
        <ele>435.944496</ele>
        <time>2012-11-23T19:45:18+100</time>
      </trkpt>
      <trkpt lat="47.64422" lon="6.88013">
        <ele>435.944504</ele>
        <time>2012-11-23T19:45:21+100</time>
      </trkpt>
      <trkpt lat="47.64423" lon="6.88015">
        <ele>435.9445</ele>
        <time>2012-11-23T19:45:22+100</time>
      </trkpt>
      <trkpt lat="47.64424" lon="6.88016">
        <ele>435.944504</ele>
        <time>2012-11-23T19:45:23+100</time>
      </trkpt>
      <trkpt lat="47.64425" lon="6.88018">
        <ele>434.944504</ele>
        <time>2012-11-23T19:45:24+100</time>
      </trkpt>
      <trkpt lat="47.64425" lon="6.88019">
        <ele>434.944508</ele>
        <time>2012-11-23T19:45:25+100</time>
      </trkpt>
      <trkpt lat="47.64426" lon="6.88021">
        <ele>434.944511</ele>
        <time>2012-11-23T19:45:26+100</time>
      </trkpt>
      <trkpt lat="47.64427" lon="6.88024">
        <ele>435.944511</ele>
        <time>2012-11-23T19:45:28+100</time>
      </trkpt>
      <trkpt lat="47.64428" lon="6.88026">
        <ele>436.944511</ele>
        <time>2012-11-23T19:45:29+100</time>
      </trkpt>
      <trkpt lat="47.64428" lon="6.88028">
        <ele>436.944511</ele>
        <time>2012-11-23T19:45:30+100</time>
      </trkpt>
      <trkpt lat="47.64429" lon="6.8803">
        <ele>437.944515</ele>
        <time>2012-11-23T19:45:31+100</time>
      </trkpt>
      <trkpt lat="47.64429" lon="6.88032">
        <ele>437.944515</ele>
        <time>2012-11-23T19:45:32+100</time>
      </trkpt>
      <trkpt lat="47.6443" lon="6.88034">
        <ele>437.944519</ele>
        <time>2012-11-23T19:45:33+100</time>
      </trkpt>
      <trkpt lat="47.6443" lon="6.88036">
        <ele>437.944519</ele>
        <time>2012-11-23T19:45:34+100</time>
      </trkpt>
      <trkpt lat="47.6443" lon="6.88038">
        <ele>438.944519</ele>
        <time>2012-11-23T19:45:35+100</time>
      </trkpt>
      <trkpt lat="47.64431" lon="6.8804">
        <ele>438.944519</ele>
        <time>2012-11-23T19:45:36+100</time>
      </trkpt>
      <trkpt lat="47.64431" lon="6.88041">
        <ele>437.944519</ele>
        <time>2012-11-23T19:45:37+100</time>
      </trkpt>
      <trkpt lat="47.64432" lon="6.88042">
        <ele>437.944523</ele>
        <time>2012-11-23T19:45:38+100</time>
      </trkpt>
      <trkpt lat="47.64432" lon="6.88044">
        <ele>438.944523</ele>
        <time>2012-11-23T19:45:39+100</time>
      </trkpt>
      <trkpt lat="47.64433" lon="6.88045">
        <ele>438.944527</ele>
        <time>2012-11-23T19:45:40+100</time>
      </trkpt>
      <trkpt lat="47.64434" lon="6.88047">
        <ele>438.944527</ele>
        <time>2012-11-23T19:45:41+100</time>
      </trkpt>
      <trkpt lat="47.64434" lon="6.88048">
        <ele>438.944523</ele>
        <time>2012-11-23T19:45:42+100</time>
      </trkpt>
      <trkpt lat="47.64435" lon="6.8805">
        <ele>438.944527</ele>
        <time>2012-11-23T19:45:43+100</time>
      </trkpt>
      <trkpt lat="47.64436" lon="6.88052">
        <ele>438.944527</ele>
        <time>2012-11-23T19:45:44+100</time>
      </trkpt>
      <trkpt lat="47.64441" lon="6.88061">
        <ele>439.944542</ele>
        <time>2012-11-23T19:45:49+100</time>
      </trkpt>
      <trkpt lat="47.64442" lon="6.88063">
        <ele>440.944538</ele>
        <time>2012-11-23T19:45:50+100</time>
      </trkpt>
      <trkpt lat="47.64443" lon="6.88064">
        <ele>440.944542</ele>
        <time>2012-11-23T19:45:51+100</time>
      </trkpt>
      <trkpt lat="47.64444" lon="6.88066">
        <ele>440.944542</ele>
        <time>2012-11-23T19:45:53+100</time>
      </trkpt>
      <trkpt lat="47.64445" lon="6.88067">
        <ele>440.94455</ele>
        <time>2012-11-23T19:45:53+100</time>
      </trkpt>
      <trkpt lat="47.64445" lon="6.88068">
        <ele>439.94455</ele>
        <time>2012-11-23T19:45:54+100</time>
      </trkpt>
      <trkpt lat="47.64446" lon="6.88069">
        <ele>440.944546</ele>
        <time>2012-11-23T19:45:55+100</time>
      </trkpt>
      <trkpt lat="47.64447" lon="6.8807">
        <ele>439.94455</ele>
        <time>2012-11-23T19:45:56+100</time>
      </trkpt>
      <trkpt lat="47.64448" lon="6.88071">
        <ele>439.94455</ele>
        <time>2012-11-23T19:45:57+100</time>
      </trkpt>
      <trkpt lat="47.64452" lon="6.88075">
        <ele>439.944557</ele>
        <time>2012-11-23T19:46:01+100</time>
      </trkpt>
      <trkpt lat="47.64453" lon="6.88077">
        <ele>439.944557</ele>
        <time>2012-11-23T19:46:02+100</time>
      </trkpt>
      <trkpt lat="47.64454" lon="6.88078">
        <ele>439.944561</ele>
        <time>2012-11-23T19:46:03+100</time>
      </trkpt>
      <trkpt lat="47.64454" lon="6.8808">
        <ele>439.944565</ele>
        <time>2012-11-23T19:46:04+100</time>
      </trkpt>
      <trkpt lat="47.64455" lon="6.88081">
        <ele>440.944565</ele>
        <time>2012-11-23T19:46:05+100</time>
      </trkpt>
      <trkpt lat="47.64456" lon="6.88083">
        <ele>440.944565</ele>
        <time>2012-11-23T19:46:06+100</time>
      </trkpt>
      <trkpt lat="47.64457" lon="6.88085">
        <ele>440.944569</ele>
        <time>2012-11-23T19:46:07+100</time>
      </trkpt>
      <trkpt lat="47.64458" lon="6.88087">
        <ele>440.944572</ele>
        <time>2012-11-23T19:46:08+100</time>
      </trkpt>
      <trkpt lat="47.64459" lon="6.88088">
        <ele>441.944569</ele>
        <time>2012-11-23T19:46:09+100</time>
      </trkpt>
      <trkpt lat="47.6446" lon="6.8809">
        <ele>441.944572</ele>
        <time>2012-11-23T19:46:10+100</time>
      </trkpt>
      <trkpt lat="47.64461" lon="6.88092">
        <ele>441.944572</ele>
        <time>2012-11-23T19:46:11+100</time>
      </trkpt>
      <trkpt lat="47.64462" lon="6.88094">
        <ele>442.944576</ele>
        <time>2012-11-23T19:46:12+100</time>
      </trkpt>
      <trkpt lat="47.64462" lon="6.88096">
        <ele>442.94458</ele>
        <time>2012-11-23T19:46:13+100</time>
      </trkpt>
      <trkpt lat="47.64463" lon="6.88097">
        <ele>442.94458</ele>
        <time>2012-11-23T19:46:14+100</time>
      </trkpt>
      <trkpt lat="47.64464" lon="6.88099">
        <ele>443.944584</ele>
        <time>2012-11-23T19:46:15+100</time>
      </trkpt>
      <trkpt lat="47.64468" lon="6.88105">
        <ele>442.944588</ele>
        <time>2012-11-23T19:46:19+100</time>
      </trkpt>
      <trkpt lat="47.64468" lon="6.88105">
        <ele>442.944588</ele>
        <time>2012-11-23T19:46:20+100</time>
      </trkpt>
      <trkpt lat="47.64469" lon="6.88106">
        <ele>442.944592</ele>
        <time>2012-11-23T19:46:21+100</time>
      </trkpt>
      <trkpt lat="47.64469" lon="6.88105">
        <ele>444.944592</ele>
        <time>2012-11-23T19:46:25+100</time>
      </trkpt>
      <trkpt lat="47.64469" lon="6.88104">
        <ele>441.944592</ele>
        <time>2012-11-23T19:46:29+100</time>
      </trkpt>
      <trkpt lat="47.64469" lon="6.88103">
        <ele>439.944588</ele>
        <time>2012-11-23T19:46:32+100</time>
      </trkpt>
      <trkpt lat="47.6447" lon="6.88103">
        <ele>440.944588</ele>
        <time>2012-11-23T19:46:33+100</time>
      </trkpt>
      <trkpt lat="47.6447" lon="6.88104">
        <ele>441.944588</ele>
        <time>2012-11-23T19:46:41+100</time>
      </trkpt>
      <trkpt lat="47.6447" lon="6.88104">
        <ele>444.944592</ele>
        <time>2012-11-23T19:46:45+100</time>
      </trkpt>
      <trkpt lat="47.64469" lon="6.88105">
        <ele>444.944588</ele>
        <time>2012-11-23T19:46:50+100</time>
      </trkpt>
      <trkpt lat="47.64469" lon="6.88105">
        <ele>445.944588</ele>
        <time>2012-11-23T19:46:52+100</time>
      </trkpt>
      <trkpt lat="47.64468" lon="6.88106">
        <ele>445.944592</ele>
        <time>2012-11-23T19:46:54+100</time>
      </trkpt>
      <trkpt lat="47.64468" lon="6.88107">
        <ele>445.944592</ele>
        <time>2012-11-23T19:46:57+100</time>
      </trkpt>
      <trkpt lat="47.64467" lon="6.88107">
        <ele>446.944592</ele>
        <time>2012-11-23T19:47:00+100</time>
      </trkpt>
      <trkpt lat="47.64467" lon="6.88107">
        <ele>446.944592</ele>
        <time>2012-11-23T19:47:02+100</time>
      </trkpt>
      <trkpt lat="47.64467" lon="6.88107">
        <ele>446.944584</ele>
        <time>2012-11-23T19:47:05+100</time>
      </trkpt>
      <trkpt lat="47.64465" lon="6.88107">
        <ele>443.94458</ele>
        <time>2012-11-23T19:47:10+100</time>
      </trkpt>
      <trkpt lat="47.64464" lon="6.88108">
        <ele>443.94458</ele>
        <time>2012-11-23T19:47:12+100</time>
      </trkpt>
      <trkpt lat="47.64465" lon="6.88107">
        <ele>443.944584</ele>
        <time>2012-11-23T19:47:15+100</time>
      </trkpt>
      <trkpt lat="47.64465" lon="6.88106">
        <ele>442.94458</ele>
        <time>2012-11-23T19:47:17+100</time>
      </trkpt>
      <trkpt lat="47.64465" lon="6.88106">
        <ele>442.94458</ele>
        <time>2012-11-23T19:47:19+100</time>
      </trkpt>
      <trkpt lat="47.64472" lon="6.88116">
        <ele>442.944595</ele>
        <time>2012-11-23T19:47:37+100</time>
      </trkpt>
      <trkpt lat="47.64475" lon="6.88119">
        <ele>442.944603</ele>
        <time>2012-11-23T19:47:37+100</time>
      </trkpt>
      <trkpt lat="47.64477" lon="6.88123">
        <ele>442.944607</ele>
        <time>2012-11-23T19:47:38+100</time>
      </trkpt>
      <trkpt lat="47.6448" lon="6.88127">
        <ele>441.944611</ele>
        <time>2012-11-23T19:47:39+100</time>
      </trkpt>
      <trkpt lat="47.64483" lon="6.8813">
        <ele>441.944614</ele>
        <time>2012-11-23T19:47:40+100</time>
      </trkpt>
      <trkpt lat="47.64485" lon="6.88133">
        <ele>440.944618</ele>
        <time>2012-11-23T19:47:42+100</time>
      </trkpt>
      <trkpt lat="47.64487" lon="6.88136">
        <ele>440.944626</ele>
        <time>2012-11-23T19:47:42+100</time>
      </trkpt>
      <trkpt lat="47.64489" lon="6.8814">
        <ele>439.94463</ele>
        <time>2012-11-23T19:47:44+100</time>
      </trkpt>
      <trkpt lat="47.64491" lon="6.88143">
        <ele>439.94463</ele>
        <time>2012-11-23T19:47:44+100</time>
      </trkpt>
      <trkpt lat="47.64493" lon="6.88146">
        <ele>438.944637</ele>
        <time>2012-11-23T19:47:45+100</time>
      </trkpt>
      <trkpt lat="47.64494" lon="6.88149">
        <ele>438.944637</ele>
        <time>2012-11-23T19:47:47+100</time>
      </trkpt>
      <trkpt lat="47.64496" lon="6.88152">
        <ele>438.944641</ele>
        <time>2012-11-23T19:47:47+100</time>
      </trkpt>
      <trkpt lat="47.64498" lon="6.88155">
        <ele>437.944641</ele>
        <time>2012-11-23T19:47:49+100</time>
      </trkpt>
      <trkpt lat="47.645" lon="6.88159">
        <ele>437.944649</ele>
        <time>2012-11-23T19:47:49+100</time>
      </trkpt>
      <trkpt lat="47.64501" lon="6.88162">
        <ele>436.944653</ele>
        <time>2012-11-23T19:47:50+100</time>
      </trkpt>
      <trkpt lat="47.64503" lon="6.88165">
        <ele>435.944653</ele>
        <time>2012-11-23T19:47:51+100</time>
      </trkpt>
      <trkpt lat="47.64505" lon="6.88167">
        <ele>435.94466</ele>
        <time>2012-11-23T19:47:53+100</time>
      </trkpt>
      <trkpt lat="47.64507" lon="6.8817">
        <ele>435.94466</ele>
        <time>2012-11-23T19:47:54+100</time>
      </trkpt>
      <trkpt lat="47.64508" lon="6.88172">
        <ele>435.944664</ele>
        <time>2012-11-23T19:47:54+100</time>
      </trkpt>
      <trkpt lat="47.6451" lon="6.88175">
        <ele>435.944664</ele>
        <time>2012-11-23T19:47:55+100</time>
      </trkpt>
      <trkpt lat="47.64511" lon="6.88177">
        <ele>435.944672</ele>
        <time>2012-11-23T19:47:56+100</time>
      </trkpt>
      <trkpt lat="47.64512" lon="6.8818">
        <ele>435.944672</ele>
        <time>2012-11-23T19:47:57+100</time>
      </trkpt>
      <trkpt lat="47.64514" lon="6.88184">
        <ele>435.944672</ele>
        <time>2012-11-23T19:47:58+100</time>
      </trkpt>
      <trkpt lat="47.64515" lon="6.88187">
        <ele>434.944672</ele>
        <time>2012-11-23T19:47:59+100</time>
      </trkpt>
      <trkpt lat="47.64515" lon="6.8819">
        <ele>434.944679</ele>
        <time>2012-11-23T19:48:00+100</time>
      </trkpt>
      <trkpt lat="47.64516" lon="6.88192">
        <ele>434.944679</ele>
        <time>2012-11-23T19:48:01+100</time>
      </trkpt>
      <trkpt lat="47.64517" lon="6.882">
        <ele>434.944679</ele>
        <time>2012-11-23T19:48:05+100</time>
      </trkpt>
      <trkpt lat="47.64517" lon="6.88202">
        <ele>434.944679</ele>
        <time>2012-11-23T19:48:05+100</time>
      </trkpt>
      <trkpt lat="47.64518" lon="6.88214">
        <ele>434.944683</ele>
        <time>2012-11-23T19:48:08+100</time>
      </trkpt>
      <trkpt lat="47.6452" lon="6.88223">
        <ele>435.944687</ele>
        <time>2012-11-23T19:48:11+100</time>
      </trkpt>
      <trkpt lat="47.64521" lon="6.88232">
        <ele>435.944695</ele>
        <time>2012-11-23T19:48:14+100</time>
      </trkpt>
      <trkpt lat="47.64521" lon="6.88235">
        <ele>434.944695</ele>
        <time>2012-11-23T19:48:15+100</time>
      </trkpt>
      <trkpt lat="47.64523" lon="6.88243">
        <ele>435.944698</ele>
        <time>2012-11-23T19:48:19+100</time>
      </trkpt>
      <trkpt lat="47.64523" lon="6.88245">
        <ele>435.944698</ele>
        <time>2012-11-23T19:48:20+100</time>
      </trkpt>
      <trkpt lat="47.64523" lon="6.88249">
        <ele>434.944702</ele>
        <time>2012-11-23T19:48:22+100</time>
      </trkpt>
      <trkpt lat="47.64523" lon="6.8825">
        <ele>434.944702</ele>
        <time>2012-11-23T19:48:23+100</time>
      </trkpt>
      <trkpt lat="47.64524" lon="6.88254">
        <ele>433.944702</ele>
        <time>2012-11-23T19:48:24+100</time>
      </trkpt>
      <trkpt lat="47.64524" lon="6.88257">
        <ele>433.944702</ele>
        <time>2012-11-23T19:48:25+100</time>
      </trkpt>
      <trkpt lat="47.64524" lon="6.8826">
        <ele>433.944702</ele>
        <time>2012-11-23T19:48:26+100</time>
      </trkpt>
      <trkpt lat="47.64524" lon="6.88265">
        <ele>433.944706</ele>
        <time>2012-11-23T19:48:27+100</time>
      </trkpt>
      <trkpt lat="47.64524" lon="6.88272">
        <ele>434.944702</ele>
        <time>2012-11-23T19:48:29+100</time>
      </trkpt>
      <trkpt lat="47.64525" lon="6.88277">
        <ele>435.944706</ele>
        <time>2012-11-23T19:48:30+100</time>
      </trkpt>
      <trkpt lat="47.64525" lon="6.88281">
        <ele>435.94471</ele>
        <time>2012-11-23T19:48:31+100</time>
      </trkpt>
      <trkpt lat="47.64526" lon="6.88285">
        <ele>435.944706</ele>
        <time>2012-11-23T19:48:33+100</time>
      </trkpt>
      <trkpt lat="47.64527" lon="6.88289">
        <ele>435.944714</ele>
        <time>2012-11-23T19:48:33+100</time>
      </trkpt>
      <trkpt lat="47.64528" lon="6.88293">
        <ele>435.944714</ele>
        <time>2012-11-23T19:48:34+100</time>
      </trkpt>
      <trkpt lat="47.64532" lon="6.88306">
        <ele>434.944725</ele>
        <time>2012-11-23T19:48:38+100</time>
      </trkpt>
      <trkpt lat="47.64533" lon="6.88308">
        <ele>434.944725</ele>
        <time>2012-11-23T19:48:39+100</time>
      </trkpt>
      <trkpt lat="47.64532" lon="6.88313">
        <ele>433.944725</ele>
        <time>2012-11-23T19:48:41+100</time>
      </trkpt>
      <trkpt lat="47.64532" lon="6.88317">
        <ele>433.944729</ele>
        <time>2012-11-23T19:48:41+100</time>
      </trkpt>
      <trkpt lat="47.64532" lon="6.88321">
        <ele>433.944729</ele>
        <time>2012-11-23T19:48:42+100</time>
      </trkpt>
      <trkpt lat="47.64532" lon="6.88325">
        <ele>433.944725</ele>
        <time>2012-11-23T19:48:43+100</time>
      </trkpt>
      <trkpt lat="47.64531" lon="6.88332">
        <ele>434.944729</ele>
        <time>2012-11-23T19:48:45+100</time>
      </trkpt>
      <trkpt lat="47.64532" lon="6.88336">
        <ele>433.944729</ele>
        <time>2012-11-23T19:48:46+100</time>
      </trkpt>
      <trkpt lat="47.64532" lon="6.88339">
        <ele>433.944729</ele>
        <time>2012-11-23T19:48:47+100</time>
      </trkpt>
      <trkpt lat="47.64532" lon="6.88342">
        <ele>433.944729</ele>
        <time>2012-11-23T19:48:48+100</time>
      </trkpt>
      <trkpt lat="47.64532" lon="6.88345">
        <ele>433.944733</ele>
        <time>2012-11-23T19:48:50+100</time>
      </trkpt>
      <trkpt lat="47.64533" lon="6.88348">
        <ele>432.944733</ele>
        <time>2012-11-23T19:48:50+100</time>
      </trkpt>
      <trkpt lat="47.64533" lon="6.88351">
        <ele>432.944733</ele>
        <time>2012-11-23T19:48:51+100</time>
      </trkpt>
      <trkpt lat="47.64532" lon="6.88365">
        <ele>431.944733</ele>
        <time>2012-11-23T19:48:56+100</time>
      </trkpt>
      <trkpt lat="47.64532" lon="6.88378">
        <ele>430.944736</ele>
        <time>2012-11-23T19:49:02+100</time>
      </trkpt>
      <trkpt lat="47.64532" lon="6.88379">
        <ele>430.944736</ele>
        <time>2012-11-23T19:49:03+100</time>
      </trkpt>
      <trkpt lat="47.64532" lon="6.88387">
        <ele>429.94474</ele>
        <time>2012-11-23T19:49:05+100</time>
      </trkpt>
      <trkpt lat="47.64532" lon="6.8839">
        <ele>429.944736</ele>
        <time>2012-11-23T19:49:05+100</time>
      </trkpt>
      <trkpt lat="47.64532" lon="6.88395">
        <ele>428.94474</ele>
        <time>2012-11-23T19:49:06+100</time>
      </trkpt>
      <trkpt lat="47.64533" lon="6.88397">
        <ele>428.944744</ele>
        <time>2012-11-23T19:49:07+100</time>
      </trkpt>
      <trkpt lat="47.64533" lon="6.88399">
        <ele>428.944744</ele>
        <time>2012-11-23T19:49:08+100</time>
      </trkpt>
      <trkpt lat="47.64534" lon="6.88404">
        <ele>427.94474</ele>
        <time>2012-11-23T19:49:09+100</time>
      </trkpt>
      <trkpt lat="47.64535" lon="6.88405">
        <ele>427.944748</ele>
        <time>2012-11-23T19:49:10+100</time>
      </trkpt>
      <trkpt lat="47.64535" lon="6.8841">
        <ele>426.944748</ele>
        <time>2012-11-23T19:49:11+100</time>
      </trkpt>
      <trkpt lat="47.64535" lon="6.88411">
        <ele>426.944748</ele>
        <time>2012-11-23T19:49:12+100</time>
      </trkpt>
      <trkpt lat="47.64536" lon="6.88415">
        <ele>426.944752</ele>
        <time>2012-11-23T19:49:14+100</time>
      </trkpt>
      <trkpt lat="47.64537" lon="6.88417">
        <ele>426.944752</ele>
        <time>2012-11-23T19:49:14+100</time>
      </trkpt>
      <trkpt lat="47.64538" lon="6.88418">
        <ele>426.944752</ele>
        <time>2012-11-23T19:49:15+100</time>
      </trkpt>
      <trkpt lat="47.64539" lon="6.88424">
        <ele>426.944756</ele>
        <time>2012-11-23T19:49:16+100</time>
      </trkpt>
      <trkpt lat="47.64542" lon="6.8844">
        <ele>424.944763</ele>
        <time>2012-11-23T19:49:20+100</time>
      </trkpt>
      <trkpt lat="47.64544" lon="6.88451">
        <ele>422.944771</ele>
        <time>2012-11-23T19:49:23+100</time>
      </trkpt>
      <trkpt lat="47.64545" lon="6.88453">
        <ele>421.944767</ele>
        <time>2012-11-23T19:49:24+100</time>
      </trkpt>
      <trkpt lat="47.64546" lon="6.88456">
        <ele>421.944771</ele>
        <time>2012-11-23T19:49:25+100</time>
      </trkpt>
      <trkpt lat="47.64546" lon="6.88459">
        <ele>421.944778</ele>
        <time>2012-11-23T19:49:26+100</time>
      </trkpt>
      <trkpt lat="47.64546" lon="6.88463">
        <ele>421.944778</ele>
        <time>2012-11-23T19:49:27+100</time>
      </trkpt>
      <trkpt lat="47.64547" lon="6.88468">
        <ele>422.944778</ele>
        <time>2012-11-23T19:49:28+100</time>
      </trkpt>
      <trkpt lat="47.64547" lon="6.88484">
        <ele>423.944778</ele>
        <time>2012-11-23T19:49:31+100</time>
      </trkpt>
      <trkpt lat="47.64548" lon="6.88501">
        <ele>423.944782</ele>
        <time>2012-11-23T19:49:34+100</time>
      </trkpt>
      <trkpt lat="47.64548" lon="6.88506">
        <ele>424.944786</ele>
        <time>2012-11-23T19:49:35+100</time>
      </trkpt>
      <trkpt lat="47.64548" lon="6.88515">
        <ele>424.944786</ele>
        <time>2012-11-23T19:49:37+100</time>
      </trkpt>
      <trkpt lat="47.64548" lon="6.8852">
        <ele>425.944786</ele>
        <time>2012-11-23T19:49:38+100</time>
      </trkpt>
      <trkpt lat="47.64548" lon="6.88524">
        <ele>425.94479</ele>
        <time>2012-11-23T19:49:40+100</time>
      </trkpt>
      <trkpt lat="47.64548" lon="6.88528">
        <ele>426.94479</ele>
        <time>2012-11-23T19:49:40+100</time>
      </trkpt>
      <trkpt lat="47.64548" lon="6.88532">
        <ele>426.94479</ele>
        <time>2012-11-23T19:49:41+100</time>
      </trkpt>
      <trkpt lat="47.64548" lon="6.88536">
        <ele>426.94479</ele>
        <time>2012-11-23T19:49:42+100</time>
      </trkpt>
      <trkpt lat="47.64548" lon="6.8854">
        <ele>426.944794</ele>
        <time>2012-11-23T19:49:43+100</time>
      </trkpt>
      <trkpt lat="47.64548" lon="6.88544">
        <ele>427.944794</ele>
        <time>2012-11-23T19:49:44+100</time>
      </trkpt>
      <trkpt lat="47.64549" lon="6.88547">
        <ele>427.944794</ele>
        <time>2012-11-23T19:49:45+100</time>
      </trkpt>
      <trkpt lat="47.64549" lon="6.88551">
        <ele>427.944794</ele>
        <time>2012-11-23T19:49:46+100</time>
      </trkpt>
      <trkpt lat="47.64549" lon="6.88558">
        <ele>428.944794</ele>
        <time>2012-11-23T19:49:48+100</time>
      </trkpt>
      <trkpt lat="47.64548" lon="6.88562">
        <ele>427.944794</ele>
        <time>2012-11-23T19:49:49+100</time>
      </trkpt>
      <trkpt lat="47.64547" lon="6.88566">
        <ele>427.944794</ele>
        <time>2012-11-23T19:49:50+100</time>
      </trkpt>
      <trkpt lat="47.64547" lon="6.8857">
        <ele>428.944798</ele>
        <time>2012-11-23T19:49:51+100</time>
      </trkpt>
      <trkpt lat="47.64546" lon="6.88577">
        <ele>428.944794</ele>
        <time>2012-11-23T19:49:54+100</time>
      </trkpt>
      <trkpt lat="47.64546" lon="6.88578">
        <ele>428.944794</ele>
        <time>2012-11-23T19:49:55+100</time>
      </trkpt>
      <trkpt lat="47.64546" lon="6.8858">
        <ele>429.944798</ele>
        <time>2012-11-23T19:49:57+100</time>
      </trkpt>
      <trkpt lat="47.64545" lon="6.88585">
        <ele>429.944794</ele>
        <time>2012-11-23T19:50:00+100</time>
      </trkpt>
      <trkpt lat="47.64545" lon="6.88586">
        <ele>429.944794</ele>
        <time>2012-11-23T19:50:02+100</time>
      </trkpt>
      <trkpt lat="47.64545" lon="6.88588">
        <ele>429.944798</ele>
        <time>2012-11-23T19:50:02+100</time>
      </trkpt>
      <trkpt lat="47.64544" lon="6.8859">
        <ele>430.944794</ele>
        <time>2012-11-23T19:50:03+100</time>
      </trkpt>
      <trkpt lat="47.64544" lon="6.88599">
        <ele>431.944798</ele>
        <time>2012-11-23T19:50:08+100</time>
      </trkpt>
      <trkpt lat="47.64544" lon="6.88601">
        <ele>431.944794</ele>
        <time>2012-11-23T19:50:08+100</time>
      </trkpt>
      <trkpt lat="47.64544" lon="6.88604">
        <ele>431.944798</ele>
        <time>2012-11-23T19:50:09+100</time>
      </trkpt>
      <trkpt lat="47.64545" lon="6.88606">
        <ele>431.944798</ele>
        <time>2012-11-23T19:50:10+100</time>
      </trkpt>
      <trkpt lat="47.64545" lon="6.88611">
        <ele>430.944798</ele>
        <time>2012-11-23T19:50:15+100</time>
      </trkpt>
      <trkpt lat="47.64546" lon="6.88612">
        <ele>430.944801</ele>
        <time>2012-11-23T19:50:15+100</time>
      </trkpt>
      <trkpt lat="47.64546" lon="6.88614">
        <ele>429.944798</ele>
        <time>2012-11-23T19:50:16+100</time>
      </trkpt>
      <trkpt lat="47.64546" lon="6.88616">
        <ele>429.944801</ele>
        <time>2012-11-23T19:50:17+100</time>
      </trkpt>
      <trkpt lat="47.64546" lon="6.88618">
        <ele>429.944805</ele>
        <time>2012-11-23T19:50:18+100</time>
      </trkpt>
      <trkpt lat="47.64546" lon="6.88619">
        <ele>429.944801</ele>
        <time>2012-11-23T19:50:20+100</time>
      </trkpt>
      <trkpt lat="47.64547" lon="6.88623">
        <ele>429.944801</ele>
        <time>2012-11-23T19:50:22+100</time>
      </trkpt>
      <trkpt lat="47.64547" lon="6.88625">
        <ele>429.944801</ele>
        <time>2012-11-23T19:50:22+100</time>
      </trkpt>
      <trkpt lat="47.64547" lon="6.88637">
        <ele>429.944809</ele>
        <time>2012-11-23T19:50:30+100</time>
      </trkpt>
      <trkpt lat="47.64548" lon="6.8864">
        <ele>429.944809</ele>
        <time>2012-11-23T19:50:31+100</time>
      </trkpt>
      <trkpt lat="47.64551" lon="6.88653">
        <ele>429.944817</ele>
        <time>2012-11-23T19:50:36+100</time>
      </trkpt>
      <trkpt lat="47.64553" lon="6.88655">
        <ele>429.944817</ele>
        <time>2012-11-23T19:50:38+100</time>
      </trkpt>
      <trkpt lat="47.64554" lon="6.88658">
        <ele>428.94482</ele>
        <time>2012-11-23T19:50:39+100</time>
      </trkpt>
      <trkpt lat="47.64555" lon="6.88661">
        <ele>428.944824</ele>
        <time>2012-11-23T19:50:39+100</time>
      </trkpt>
      <trkpt lat="47.64558" lon="6.88668">
        <ele>427.944828</ele>
        <time>2012-11-23T19:50:41+100</time>
      </trkpt>
      <trkpt lat="47.64559" lon="6.88671">
        <ele>428.944832</ele>
        <time>2012-11-23T19:50:42+100</time>
      </trkpt>
      <trkpt lat="47.64564" lon="6.88684">
        <ele>428.944843</ele>
        <time>2012-11-23T19:50:47+100</time>
      </trkpt>
      <trkpt lat="47.64565" lon="6.88688">
        <ele>428.944843</ele>
        <time>2012-11-23T19:50:48+100</time>
      </trkpt>
      <trkpt lat="47.64565" lon="6.8869">
        <ele>428.944839</ele>
        <time>2012-11-23T19:50:49+100</time>
      </trkpt>
      <trkpt lat="47.64566" lon="6.88693">
        <ele>428.944843</ele>
        <time>2012-11-23T19:50:50+100</time>
      </trkpt>
      <trkpt lat="47.64566" lon="6.88696">
        <ele>428.944851</ele>
        <time>2012-11-23T19:50:51+100</time>
      </trkpt>
      <trkpt lat="47.64566" lon="6.887">
        <ele>428.944843</ele>
        <time>2012-11-23T19:50:52+100</time>
      </trkpt>
      <trkpt lat="47.64566" lon="6.88703">
        <ele>428.944847</ele>
        <time>2012-11-23T19:50:53+100</time>
      </trkpt>
      <trkpt lat="47.64569" lon="6.8871">
        <ele>427.944855</ele>
        <time>2012-11-23T19:50:56+100</time>
      </trkpt>
      <trkpt lat="47.6457" lon="6.88712">
        <ele>427.944855</ele>
        <time>2012-11-23T19:50:57+100</time>
      </trkpt>
      <trkpt lat="47.64571" lon="6.88714">
        <ele>427.944859</ele>
        <time>2012-11-23T19:50:58+100</time>
      </trkpt>
      <trkpt lat="47.64573" lon="6.88716">
        <ele>427.944859</ele>
        <time>2012-11-23T19:50:59+100</time>
      </trkpt>
      <trkpt lat="47.64574" lon="6.88717">
        <ele>427.944862</ele>
        <time>2012-11-23T19:51:00+100</time>
      </trkpt>
      <trkpt lat="47.64576" lon="6.88718">
        <ele>427.944866</ele>
        <time>2012-11-23T19:51:02+100</time>
      </trkpt>
      <trkpt lat="47.64576" lon="6.8872">
        <ele>427.94487</ele>
        <time>2012-11-23T19:51:02+100</time>
      </trkpt>
      <trkpt lat="47.64579" lon="6.88721">
        <ele>426.944874</ele>
        <time>2012-11-23T19:51:03+100</time>
      </trkpt>
      <trkpt lat="47.6458" lon="6.88722">
        <ele>426.94487</ele>
        <time>2012-11-23T19:51:04+100</time>
      </trkpt>
      <trkpt lat="47.64581" lon="6.88722">
        <ele>427.944878</ele>
        <time>2012-11-23T19:51:05+100</time>
      </trkpt>
      <trkpt lat="47.64582" lon="6.88722">
        <ele>427.944878</ele>
        <time>2012-11-23T19:51:06+100</time>
      </trkpt>
      <trkpt lat="47.64584" lon="6.88722">
        <ele>427.944878</ele>
        <time>2012-11-23T19:51:07+100</time>
      </trkpt>
      <trkpt lat="47.64585" lon="6.88722">
        <ele>427.944881</ele>
        <time>2012-11-23T19:51:08+100</time>
      </trkpt>
      <trkpt lat="47.64586" lon="6.88722">
        <ele>427.944881</ele>
        <time>2012-11-23T19:51:09+100</time>
      </trkpt>
      <trkpt lat="47.64587" lon="6.8872">
        <ele>427.944881</ele>
        <time>2012-11-23T19:51:10+100</time>
      </trkpt>
      <trkpt lat="47.64588" lon="6.8872">
        <ele>426.944881</ele>
        <time>2012-11-23T19:51:11+100</time>
      </trkpt>
      <trkpt lat="47.64589" lon="6.88719">
        <ele>426.944885</ele>
        <time>2012-11-23T19:51:12+100</time>
      </trkpt>
      <trkpt lat="47.6459" lon="6.88718">
        <ele>426.944885</ele>
        <time>2012-11-23T19:51:13+100</time>
      </trkpt>
      <trkpt lat="47.6459" lon="6.88717">
        <ele>426.944889</ele>
        <time>2012-11-23T19:51:14+100</time>
      </trkpt>
      <trkpt lat="47.64595" lon="6.88705">
        <ele>427.944893</ele>
        <time>2012-11-23T19:51:25+100</time>
      </trkpt>
      <trkpt lat="47.64596" lon="6.88701">
        <ele>427.944893</ele>
        <time>2012-11-23T19:51:27+100</time>
      </trkpt>
      <trkpt lat="47.64596" lon="6.88698">
        <ele>428.944893</ele>
        <time>2012-11-23T19:51:28+100</time>
      </trkpt>
      <trkpt lat="47.64597" lon="6.88692">
        <ele>428.944893</ele>
        <time>2012-11-23T19:51:31+100</time>
      </trkpt>
      <trkpt lat="47.64597" lon="6.8869">
        <ele>428.944893</ele>
        <time>2012-11-23T19:51:32+100</time>
      </trkpt>
      <trkpt lat="47.64599" lon="6.88676">
        <ele>429.944893</ele>
        <time>2012-11-23T19:51:40+100</time>
      </trkpt>
      <trkpt lat="47.64599" lon="6.88674">
        <ele>429.944893</ele>
        <time>2012-11-23T19:51:41+100</time>
      </trkpt>
      <trkpt lat="47.64599" lon="6.88672">
        <ele>429.944893</ele>
        <time>2012-11-23T19:51:42+100</time>
      </trkpt>
      <trkpt lat="47.64599" lon="6.8867">
        <ele>429.944893</ele>
        <time>2012-11-23T19:51:43+100</time>
      </trkpt>
      <trkpt lat="47.64599" lon="6.88664">
        <ele>429.944889</ele>
        <time>2012-11-23T19:51:45+100</time>
      </trkpt>
      <trkpt lat="47.64599" lon="6.8866">
        <ele>429.944893</ele>
        <time>2012-11-23T19:51:46+100</time>
      </trkpt>
      <trkpt lat="47.64599" lon="6.88657">
        <ele>429.944893</ele>
        <time>2012-11-23T19:51:47+100</time>
      </trkpt>
      <trkpt lat="47.64599" lon="6.88653">
        <ele>429.944893</ele>
        <time>2012-11-23T19:51:48+100</time>
      </trkpt>
      <trkpt lat="47.64599" lon="6.8865">
        <ele>429.944885</ele>
        <time>2012-11-23T19:51:49+100</time>
      </trkpt>
      <trkpt lat="47.64599" lon="6.88647">
        <ele>429.944889</ele>
        <time>2012-11-23T19:51:51+100</time>
      </trkpt>
      <trkpt lat="47.64599" lon="6.88632">
        <ele>428.944885</ele>
        <time>2012-11-23T19:51:56+100</time>
      </trkpt>
      <trkpt lat="47.64598" lon="6.88614">
        <ele>429.944881</ele>
        <time>2012-11-23T19:52:02+100</time>
      </trkpt>
      <trkpt lat="47.64598" lon="6.8861">
        <ele>429.944885</ele>
        <time>2012-11-23T19:52:03+100</time>
      </trkpt>
      <trkpt lat="47.64598" lon="6.88607">
        <ele>429.944881</ele>
        <time>2012-11-23T19:52:04+100</time>
      </trkpt>
      <trkpt lat="47.64599" lon="6.88604">
        <ele>429.944878</ele>
        <time>2012-11-23T19:52:05+100</time>
      </trkpt>
      <trkpt lat="47.64599" lon="6.88599">
        <ele>429.944881</ele>
        <time>2012-11-23T19:52:07+100</time>
      </trkpt>
      <trkpt lat="47.64599" lon="6.88595">
        <ele>429.944878</ele>
        <time>2012-11-23T19:52:08+100</time>
      </trkpt>
      <trkpt lat="47.64599" lon="6.88587">
        <ele>429.944878</ele>
        <time>2012-11-23T19:52:11+100</time>
      </trkpt>
      <trkpt lat="47.64596" lon="6.88571">
        <ele>429.94487</ele>
        <time>2012-11-23T19:52:23+100</time>
      </trkpt>
      <trkpt lat="47.64595" lon="6.88562">
        <ele>430.94487</ele>
        <time>2012-11-23T19:52:28+100</time>
      </trkpt>
      <trkpt lat="47.64595" lon="6.88561">
        <ele>430.944866</ele>
        <time>2012-11-23T19:52:29+100</time>
      </trkpt>
      <trkpt lat="47.64596" lon="6.88558">
        <ele>430.94487</ele>
        <time>2012-11-23T19:52:30+100</time>
      </trkpt>
      <trkpt lat="47.64596" lon="6.88556">
        <ele>430.944866</ele>
        <time>2012-11-23T19:52:31+100</time>
      </trkpt>
      <trkpt lat="47.64598" lon="6.88548">
        <ele>430.94487</ele>
        <time>2012-11-23T19:52:36+100</time>
      </trkpt>
      <trkpt lat="47.64598" lon="6.88547">
        <ele>430.94487</ele>
        <time>2012-11-23T19:52:37+100</time>
      </trkpt>
      <trkpt lat="47.64599" lon="6.88546">
        <ele>430.94487</ele>
        <time>2012-11-23T19:52:38+100</time>
      </trkpt>
      <trkpt lat="47.64599" lon="6.88544">
        <ele>430.944874</ele>
        <time>2012-11-23T19:52:39+100</time>
      </trkpt>
      <trkpt lat="47.64599" lon="6.88543">
        <ele>430.944874</ele>
        <time>2012-11-23T19:52:40+100</time>
      </trkpt>
      <trkpt lat="47.64599" lon="6.8854">
        <ele>430.94487</ele>
        <time>2012-11-23T19:52:41+100</time>
      </trkpt>
      <trkpt lat="47.646" lon="6.88539">
        <ele>430.94487</ele>
        <time>2012-11-23T19:52:42+100</time>
      </trkpt>
      <trkpt lat="47.646" lon="6.88537">
        <ele>429.94487</ele>
        <time>2012-11-23T19:52:43+100</time>
      </trkpt>
      <trkpt lat="47.646" lon="6.88536">
        <ele>429.94487</ele>
        <time>2012-11-23T19:52:44+100</time>
      </trkpt>
      <trkpt lat="47.646" lon="6.88535">
        <ele>429.94487</ele>
        <time>2012-11-23T19:52:45+100</time>
      </trkpt>
      <trkpt lat="47.646" lon="6.88533">
        <ele>429.94487</ele>
        <time>2012-11-23T19:52:46+100</time>
      </trkpt>
      <trkpt lat="47.64601" lon="6.8853">
        <ele>428.944874</ele>
        <time>2012-11-23T19:52:48+100</time>
      </trkpt>
      <trkpt lat="47.64601" lon="6.88529">
        <ele>428.94487</ele>
        <time>2012-11-23T19:52:49+100</time>
      </trkpt>
      <trkpt lat="47.64601" lon="6.88528">
        <ele>428.94487</ele>
        <time>2012-11-23T19:52:50+100</time>
      </trkpt>
      <trkpt lat="47.64601" lon="6.88525">
        <ele>427.944874</ele>
        <time>2012-11-23T19:52:55+100</time>
      </trkpt>
      <trkpt lat="47.64601" lon="6.88521">
        <ele>426.94487</ele>
        <time>2012-11-23T19:52:59+100</time>
      </trkpt>
      <trkpt lat="47.64599" lon="6.88518">
        <ele>426.944866</ele>
        <time>2012-11-23T19:53:28+100</time>
      </trkpt>
      <trkpt lat="47.64599" lon="6.88517">
        <ele>426.944866</ele>
        <time>2012-11-23T19:53:30+100</time>
      </trkpt>
      <trkpt lat="47.646" lon="6.88516">
        <ele>426.944866</ele>
        <time>2012-11-23T19:53:32+100</time>
      </trkpt>
      <trkpt lat="47.646" lon="6.88516">
        <ele>426.94487</ele>
        <time>2012-11-23T19:53:33+100</time>
      </trkpt>
      <trkpt lat="47.64609" lon="6.8851">
        <ele>424.944878</ele>
        <time>2012-11-23T19:53:39+100</time>
      </trkpt>
      <trkpt lat="47.64611" lon="6.88508">
        <ele>423.944885</ele>
        <time>2012-11-23T19:53:40+100</time>
      </trkpt>
      <trkpt lat="47.64613" lon="6.88507">
        <ele>423.944885</ele>
        <time>2012-11-23T19:53:41+100</time>
      </trkpt>
      <trkpt lat="47.64615" lon="6.88505">
        <ele>422.944889</ele>
        <time>2012-11-23T19:53:42+100</time>
      </trkpt>
      <trkpt lat="47.64618" lon="6.88504">
        <ele>422.944893</ele>
        <time>2012-11-23T19:53:43+100</time>
      </trkpt>
      <trkpt lat="47.6462" lon="6.88504">
        <ele>421.944893</ele>
        <time>2012-11-23T19:53:44+100</time>
      </trkpt>
      <trkpt lat="47.64623" lon="6.88503">
        <ele>421.944901</ele>
        <time>2012-11-23T19:53:45+100</time>
      </trkpt>
      <trkpt lat="47.64626" lon="6.88503">
        <ele>420.944904</ele>
        <time>2012-11-23T19:53:46+100</time>
      </trkpt>
      <trkpt lat="47.64628" lon="6.88503">
        <ele>420.944908</ele>
        <time>2012-11-23T19:53:47+100</time>
      </trkpt>
      <trkpt lat="47.64631" lon="6.88503">
        <ele>420.944916</ele>
        <time>2012-11-23T19:53:49+100</time>
      </trkpt>
      <trkpt lat="47.64634" lon="6.88502">
        <ele>420.94492</ele>
        <time>2012-11-23T19:53:49+100</time>
      </trkpt>
      <trkpt lat="47.64637" lon="6.88502">
        <ele>420.94492</ele>
        <time>2012-11-23T19:53:50+100</time>
      </trkpt>
      <trkpt lat="47.6464" lon="6.88502">
        <ele>420.944927</ele>
        <time>2012-11-23T19:53:51+100</time>
      </trkpt>
      <trkpt lat="47.64642" lon="6.88501">
        <ele>419.944931</ele>
        <time>2012-11-23T19:53:52+100</time>
      </trkpt>
      <trkpt lat="47.64645" lon="6.885">
        <ele>418.944935</ele>
        <time>2012-11-23T19:53:53+100</time>
      </trkpt>
      <trkpt lat="47.64647" lon="6.88499">
        <ele>417.944939</ele>
        <time>2012-11-23T19:53:54+100</time>
      </trkpt>
      <trkpt lat="47.64649" lon="6.88498">
        <ele>417.944939</ele>
        <time>2012-11-23T19:53:55+100</time>
      </trkpt>
      <trkpt lat="47.64651" lon="6.88496">
        <ele>417.944942</ele>
        <time>2012-11-23T19:53:56+100</time>
      </trkpt>
      <trkpt lat="47.64666" lon="6.88476">
        <ele>413.944965</ele>
        <time>2012-11-23T19:54:07+100</time>
      </trkpt>
      <trkpt lat="47.64668" lon="6.88474">
        <ele>413.944969</ele>
        <time>2012-11-23T19:54:08+100</time>
      </trkpt>
      <trkpt lat="47.6467" lon="6.88471">
        <ele>413.944969</ele>
        <time>2012-11-23T19:54:09+100</time>
      </trkpt>
      <trkpt lat="47.64673" lon="6.88469">
        <ele>413.944973</ele>
        <time>2012-11-23T19:54:10+100</time>
      </trkpt>
      <trkpt lat="47.64675" lon="6.88467">
        <ele>413.944973</ele>
        <time>2012-11-23T19:54:11+100</time>
      </trkpt>
      <trkpt lat="47.64679" lon="6.88464">
        <ele>413.944984</ele>
        <time>2012-11-23T19:54:14+100</time>
      </trkpt>
      <trkpt lat="47.64681" lon="6.88462">
        <ele>412.944984</ele>
        <time>2012-11-23T19:54:15+100</time>
      </trkpt>
      <trkpt lat="47.64685" lon="6.88459">
        <ele>411.944988</ele>
        <time>2012-11-23T19:54:18+100</time>
      </trkpt>
      <trkpt lat="47.64687" lon="6.88457">
        <ele>411.944996</ele>
        <time>2012-11-23T19:54:19+100</time>
      </trkpt>
      <trkpt lat="47.64694" lon="6.8845">
        <ele>409.945007</ele>
        <time>2012-11-23T19:54:25+100</time>
      </trkpt>
      <trkpt lat="47.64695" lon="6.88449">
        <ele>409.945004</ele>
        <time>2012-11-23T19:54:26+100</time>
      </trkpt>
      <trkpt lat="47.64698" lon="6.88447">
        <ele>409.945007</ele>
        <time>2012-11-23T19:54:28+100</time>
      </trkpt>
      <trkpt lat="47.64699" lon="6.88446">
        <ele>408.945011</ele>
        <time>2012-11-23T19:54:29+100</time>
      </trkpt>
      <trkpt lat="47.64706" lon="6.88441">
        <ele>407.945019</ele>
        <time>2012-11-23T19:54:33+100</time>
      </trkpt>
      <trkpt lat="47.64711" lon="6.88438">
        <ele>407.945026</ele>
        <time>2012-11-23T19:54:35+100</time>
      </trkpt>
      <trkpt lat="47.64714" lon="6.88436">
        <ele>406.945034</ele>
        <time>2012-11-23T19:54:36+100</time>
      </trkpt>
      <trkpt lat="47.64724" lon="6.88425">
        <ele>405.945045</ele>
        <time>2012-11-23T19:54:41+100</time>
      </trkpt>
      <trkpt lat="47.64728" lon="6.88418">
        <ele>404.945053</ele>
        <time>2012-11-23T19:54:44+100</time>
      </trkpt>
      <trkpt lat="47.6473" lon="6.88416">
        <ele>403.945049</ele>
        <time>2012-11-23T19:54:45+100</time>
      </trkpt>
      <trkpt lat="47.64732" lon="6.88413">
        <ele>403.945057</ele>
        <time>2012-11-23T19:54:46+100</time>
      </trkpt>
      <trkpt lat="47.64733" lon="6.88411">
        <ele>402.945053</ele>
        <time>2012-11-23T19:54:47+100</time>
      </trkpt>
      <trkpt lat="47.64734" lon="6.88409">
        <ele>401.945057</ele>
        <time>2012-11-23T19:54:48+100</time>
      </trkpt>
      <trkpt lat="47.64735" lon="6.88408">
        <ele>401.945057</ele>
        <time>2012-11-23T19:54:49+100</time>
      </trkpt>
      <trkpt lat="47.64735" lon="6.88407">
        <ele>400.945061</ele>
        <time>2012-11-23T19:54:50+100</time>
      </trkpt>
      <trkpt lat="47.64735" lon="6.88406">
        <ele>400.945061</ele>
        <time>2012-11-23T19:54:51+100</time>
      </trkpt>
      <trkpt lat="47.64735" lon="6.88405">
        <ele>398.945057</ele>
        <time>2012-11-23T19:54:53+100</time>
      </trkpt>
      <trkpt lat="47.64736" lon="6.88404">
        <ele>397.945061</ele>
        <time>2012-11-23T19:54:54+100</time>
      </trkpt>
      <trkpt lat="47.64736" lon="6.88402">
        <ele>395.945057</ele>
        <time>2012-11-23T19:54:56+100</time>
      </trkpt>
      <trkpt lat="47.64736" lon="6.88398">
        <ele>394.945061</ele>
        <time>2012-11-23T19:55:04+100</time>
      </trkpt>
      <trkpt lat="47.64736" lon="6.88398">
        <ele>394.945061</ele>
        <time>2012-11-23T19:55:06+100</time>
      </trkpt>
      <trkpt lat="47.64737" lon="6.88398">
        <ele>394.945061</ele>
        <time>2012-11-23T19:55:11+100</time>
      </trkpt>
      <trkpt lat="47.64737" lon="6.88398">
        <ele>395.945061</ele>
        <time>2012-11-23T19:55:13+100</time>
      </trkpt>
      <trkpt lat="47.64736" lon="6.88399">
        <ele>395.945061</ele>
        <time>2012-11-23T19:55:21+100</time>
      </trkpt>
      <trkpt lat="47.64736" lon="6.88398">
        <ele>393.945057</ele>
        <time>2012-11-23T19:55:23+100</time>
      </trkpt>
      <trkpt lat="47.64735" lon="6.88395">
        <ele>388.945053</ele>
        <time>2012-11-23T19:55:29+100</time>
      </trkpt>
      <trkpt lat="47.64734" lon="6.88393">
        <ele>387.945053</ele>
        <time>2012-11-23T19:55:33+100</time>
      </trkpt>
      <trkpt lat="47.64734" lon="6.8839">
        <ele>387.945049</ele>
        <time>2012-11-23T19:55:45+100</time>
      </trkpt>
      <trkpt lat="47.64734" lon="6.88389">
        <ele>387.945053</ele>
        <time>2012-11-23T19:55:46+100</time>
      </trkpt>
      <trkpt lat="47.64735" lon="6.88387">
        <ele>387.945053</ele>
        <time>2012-11-23T19:55:47+100</time>
      </trkpt>
      <trkpt lat="47.64736" lon="6.88386">
        <ele>386.945053</ele>
        <time>2012-11-23T19:55:48+100</time>
      </trkpt>
      <trkpt lat="47.64737" lon="6.88385">
        <ele>386.945057</ele>
        <time>2012-11-23T19:55:49+100</time>
      </trkpt>
      <trkpt lat="47.64738" lon="6.88383">
        <ele>386.945057</ele>
        <time>2012-11-23T19:55:50+100</time>
      </trkpt>
      <trkpt lat="47.64739" lon="6.88382">
        <ele>385.945061</ele>
        <time>2012-11-23T19:55:52+100</time>
      </trkpt>
      <trkpt lat="47.6474" lon="6.8838">
        <ele>384.945061</ele>
        <time>2012-11-23T19:55:54+100</time>
      </trkpt>
      <trkpt lat="47.64741" lon="6.8838">
        <ele>384.945065</ele>
        <time>2012-11-23T19:55:55+100</time>
      </trkpt>
      <trkpt lat="47.64741" lon="6.8838">
        <ele>383.945061</ele>
        <time>2012-11-23T19:55:57+100</time>
      </trkpt>
      <trkpt lat="47.64742" lon="6.88381">
        <ele>383.945065</ele>
        <time>2012-11-23T19:55:59+100</time>
      </trkpt>
      <trkpt lat="47.64743" lon="6.8838">
        <ele>382.945065</ele>
        <time>2012-11-23T19:56:01+100</time>
      </trkpt>
      <trkpt lat="47.64743" lon="6.8838">
        <ele>382.945065</ele>
        <time>2012-11-23T19:56:02+100</time>
      </trkpt>
      <trkpt lat="47.64745" lon="6.8838">
        <ele>382.945068</ele>
        <time>2012-11-23T19:56:07+100</time>
      </trkpt>
      <trkpt lat="47.64745" lon="6.8838">
        <ele>382.945068</ele>
        <time>2012-11-23T19:56:08+100</time>
      </trkpt>
      <trkpt lat="47.64744" lon="6.88378">
        <ele>380.945065</ele>
        <time>2012-11-23T19:56:22+100</time>
      </trkpt>
      <trkpt lat="47.64743" lon="6.88379">
        <ele>380.945065</ele>
        <time>2012-11-23T19:56:23+100</time>
      </trkpt>
      <trkpt lat="47.64741" lon="6.88381">
        <ele>380.945065</ele>
        <time>2012-11-23T19:56:30+100</time>
      </trkpt>
      <trkpt lat="47.64742" lon="6.88381">
        <ele>380.945065</ele>
        <time>2012-11-23T19:56:31+100</time>
      </trkpt>
      <trkpt lat="47.64743" lon="6.8838">
        <ele>380.945065</ele>
        <time>2012-11-23T19:56:32+100</time>
      </trkpt>
      <trkpt lat="47.64745" lon="6.8838">
        <ele>379.945068</ele>
        <time>2012-11-23T19:56:33+100</time>
      </trkpt>
      <trkpt lat="47.64746" lon="6.88379">
        <ele>379.945072</ele>
        <time>2012-11-23T19:56:34+100</time>
      </trkpt>
      <trkpt lat="47.64747" lon="6.88378">
        <ele>379.945072</ele>
        <time>2012-11-23T19:56:35+100</time>
      </trkpt>
      <trkpt lat="47.64748" lon="6.88377">
        <ele>379.945072</ele>
        <time>2012-11-23T19:56:36+100</time>
      </trkpt>
      <trkpt lat="47.64749" lon="6.88376">
        <ele>380.945072</ele>
        <time>2012-11-23T19:56:37+100</time>
      </trkpt>
      <trkpt lat="47.6475" lon="6.88374">
        <ele>380.945076</ele>
        <time>2012-11-23T19:56:39+100</time>
      </trkpt>
      <trkpt lat="47.64751" lon="6.88373">
        <ele>380.945076</ele>
        <time>2012-11-23T19:56:40+100</time>
      </trkpt>
      <trkpt lat="47.64753" lon="6.8837">
        <ele>381.94508</ele>
        <time>2012-11-23T19:56:41+100</time>
      </trkpt>
      <trkpt lat="47.64754" lon="6.88368">
        <ele>381.945084</ele>
        <time>2012-11-23T19:56:42+100</time>
      </trkpt>
      <trkpt lat="47.64755" lon="6.88366">
        <ele>381.945084</ele>
        <time>2012-11-23T19:56:43+100</time>
      </trkpt>
      <trkpt lat="47.64756" lon="6.88361">
        <ele>380.945084</ele>
        <time>2012-11-23T19:56:45+100</time>
      </trkpt>
      <trkpt lat="47.64757" lon="6.88358">
        <ele>380.945084</ele>
        <time>2012-11-23T19:56:46+100</time>
      </trkpt>
      <trkpt lat="47.64755" lon="6.88343">
        <ele>382.945076</ele>
        <time>2012-11-23T19:56:50+100</time>
      </trkpt>
      <trkpt lat="47.64752" lon="6.88324">
        <ele>382.945068</ele>
        <time>2012-11-23T19:56:55+100</time>
      </trkpt>
      <trkpt lat="47.64742" lon="6.88292">
        <ele>384.945053</ele>
        <time>2012-11-23T19:57:07+100</time>
      </trkpt>
      <trkpt lat="47.64741" lon="6.88291">
        <ele>384.945049</ele>
        <time>2012-11-23T19:57:11+100</time>
      </trkpt>
      <trkpt lat="47.6474" lon="6.88292">
        <ele>384.945045</ele>
        <time>2012-11-23T19:57:12+100</time>
      </trkpt>
      <trkpt lat="47.6474" lon="6.88292">
        <ele>385.945045</ele>
        <time>2012-11-23T19:57:13+100</time>
      </trkpt>
      <trkpt lat="47.6474" lon="6.88293">
        <ele>385.945045</ele>
        <time>2012-11-23T19:57:14+100</time>
      </trkpt>
      <trkpt lat="47.6474" lon="6.88295">
        <ele>385.945045</ele>
        <time>2012-11-23T19:57:15+100</time>
      </trkpt>
      <trkpt lat="47.6474" lon="6.88296">
        <ele>385.945045</ele>
        <time>2012-11-23T19:57:17+100</time>
      </trkpt>
      <trkpt lat="47.6474" lon="6.88297">
        <ele>385.945049</ele>
        <time>2012-11-23T19:57:17+100</time>
      </trkpt>
      <trkpt lat="47.6474" lon="6.88298">
        <ele>386.945049</ele>
        <time>2012-11-23T19:57:18+100</time>
      </trkpt>
      <trkpt lat="47.6474" lon="6.88298">
        <ele>387.945049</ele>
        <time>2012-11-23T19:57:19+100</time>
      </trkpt>
      <trkpt lat="47.6474" lon="6.88299">
        <ele>387.945049</ele>
        <time>2012-11-23T19:57:20+100</time>
      </trkpt>
      <trkpt lat="47.64739" lon="6.88299">
        <ele>388.945045</ele>
        <time>2012-11-23T19:57:23+100</time>
      </trkpt>
      <trkpt lat="47.64739" lon="6.88298">
        <ele>387.945049</ele>
        <time>2012-11-23T19:57:27+100</time>
      </trkpt>
      <trkpt lat="47.64739" lon="6.88298">
        <ele>386.945049</ele>
        <time>2012-11-23T19:57:28+100</time>
      </trkpt>
      <trkpt lat="47.64738" lon="6.88298">
        <ele>385.945042</ele>
        <time>2012-11-23T19:57:36+100</time>
      </trkpt>
      <trkpt lat="47.64738" lon="6.88296">
        <ele>385.945045</ele>
        <time>2012-11-23T19:57:43+100</time>
      </trkpt>
      <trkpt lat="47.64738" lon="6.88295">
        <ele>384.945045</ele>
        <time>2012-11-23T19:57:44+100</time>
      </trkpt>
      <trkpt lat="47.64738" lon="6.88294">
        <ele>384.945038</ele>
        <time>2012-11-23T19:57:46+100</time>
      </trkpt>
      <trkpt lat="47.64737" lon="6.88293">
        <ele>384.945038</ele>
        <time>2012-11-23T19:57:51+100</time>
      </trkpt>
      <trkpt lat="47.64736" lon="6.88291">
        <ele>383.945038</ele>
        <time>2012-11-23T19:57:58+100</time>
      </trkpt>
      <trkpt lat="47.64734" lon="6.88288">
        <ele>382.945034</ele>
        <time>2012-11-23T19:58:07+100</time>
      </trkpt>
      <trkpt lat="47.64732" lon="6.88287">
        <ele>389.945034</ele>
        <time>2012-11-23T19:58:13+100</time>
      </trkpt>
      <trkpt lat="47.64733" lon="6.88287">
        <ele>390.945034</ele>
        <time>2012-11-23T19:58:15+100</time>
      </trkpt>
      <trkpt lat="47.64734" lon="6.88287">
        <ele>391.945038</ele>
        <time>2012-11-23T19:58:16+100</time>
      </trkpt>
      <trkpt lat="47.64736" lon="6.88285">
        <ele>391.945042</ele>
        <time>2012-11-23T19:58:17+100</time>
      </trkpt>
      <trkpt lat="47.64739" lon="6.88284">
        <ele>391.945042</ele>
        <time>2012-11-23T19:58:18+100</time>
      </trkpt>
      <trkpt lat="47.64742" lon="6.88282">
        <ele>390.945045</ele>
        <time>2012-11-23T19:58:19+100</time>
      </trkpt>
      <trkpt lat="47.64744" lon="6.88281">
        <ele>390.945049</ele>
        <time>2012-11-23T19:58:20+100</time>
      </trkpt>
      <trkpt lat="47.64747" lon="6.88279">
        <ele>390.945053</ele>
        <time>2012-11-23T19:58:21+100</time>
      </trkpt>
      <trkpt lat="47.6475" lon="6.88277">
        <ele>390.945061</ele>
        <time>2012-11-23T19:58:22+100</time>
      </trkpt>
      <trkpt lat="47.64753" lon="6.88275">
        <ele>390.945065</ele>
        <time>2012-11-23T19:58:23+100</time>
      </trkpt>
      <trkpt lat="47.64755" lon="6.88273">
        <ele>389.945065</ele>
        <time>2012-11-23T19:58:24+100</time>
      </trkpt>
      <trkpt lat="47.64758" lon="6.88271">
        <ele>389.945072</ele>
        <time>2012-11-23T19:58:25+100</time>
      </trkpt>
      <trkpt lat="47.6476" lon="6.88268">
        <ele>389.945072</ele>
        <time>2012-11-23T19:58:26+100</time>
      </trkpt>
      <trkpt lat="47.64762" lon="6.88265">
        <ele>389.945076</ele>
        <time>2012-11-23T19:58:27+100</time>
      </trkpt>
      <trkpt lat="47.64763" lon="6.88262">
        <ele>389.945076</ele>
        <time>2012-11-23T19:58:28+100</time>
      </trkpt>
      <trkpt lat="47.64765" lon="6.88259">
        <ele>389.945084</ele>
        <time>2012-11-23T19:58:29+100</time>
      </trkpt>
      <trkpt lat="47.64766" lon="6.88255">
        <ele>389.94508</ele>
        <time>2012-11-23T19:58:30+100</time>
      </trkpt>
      <trkpt lat="47.64768" lon="6.88251">
        <ele>388.945084</ele>
        <time>2012-11-23T19:58:31+100</time>
      </trkpt>
      <trkpt lat="47.64769" lon="6.88248">
        <ele>389.945084</ele>
        <time>2012-11-23T19:58:32+100</time>
      </trkpt>
      <trkpt lat="47.6477" lon="6.88244">
        <ele>389.945084</ele>
        <time>2012-11-23T19:58:33+100</time>
      </trkpt>
      <trkpt lat="47.64771" lon="6.88241">
        <ele>389.945087</ele>
        <time>2012-11-23T19:58:34+100</time>
      </trkpt>
      <trkpt lat="47.64773" lon="6.88237">
        <ele>389.945084</ele>
        <time>2012-11-23T19:58:35+100</time>
      </trkpt>
      <trkpt lat="47.64774" lon="6.88234">
        <ele>389.945087</ele>
        <time>2012-11-23T19:58:36+100</time>
      </trkpt>
      <trkpt lat="47.64775" lon="6.8823">
        <ele>389.945091</ele>
        <time>2012-11-23T19:58:37+100</time>
      </trkpt>
      <trkpt lat="47.64776" lon="6.88226">
        <ele>388.945091</ele>
        <time>2012-11-23T19:58:38+100</time>
      </trkpt>
      <trkpt lat="47.64777" lon="6.88222">
        <ele>388.945091</ele>
        <time>2012-11-23T19:58:39+100</time>
      </trkpt>
      <trkpt lat="47.64779" lon="6.88219">
        <ele>388.945091</ele>
        <time>2012-11-23T19:58:40+100</time>
      </trkpt>
      <trkpt lat="47.6478" lon="6.88216">
        <ele>389.945091</ele>
        <time>2012-11-23T19:58:41+100</time>
      </trkpt>
      <trkpt lat="47.64781" lon="6.88212">
        <ele>389.945095</ele>
        <time>2012-11-23T19:58:42+100</time>
      </trkpt>
      <trkpt lat="47.64782" lon="6.8821">
        <ele>389.945099</ele>
        <time>2012-11-23T19:58:44+100</time>
      </trkpt>
      <trkpt lat="47.64783" lon="6.88208">
        <ele>389.945099</ele>
        <time>2012-11-23T19:58:44+100</time>
      </trkpt>
      <trkpt lat="47.64785" lon="6.88207">
        <ele>389.945099</ele>
        <time>2012-11-23T19:58:45+100</time>
      </trkpt>
      <trkpt lat="47.64788" lon="6.88206">
        <ele>389.945107</ele>
        <time>2012-11-23T19:58:47+100</time>
      </trkpt>
      <trkpt lat="47.64789" lon="6.88207">
        <ele>389.945107</ele>
        <time>2012-11-23T19:58:48+100</time>
      </trkpt>
      <trkpt lat="47.64791" lon="6.88208">
        <ele>389.94511</ele>
        <time>2012-11-23T19:58:49+100</time>
      </trkpt>
      <trkpt lat="47.64793" lon="6.88209">
        <ele>388.94511</ele>
        <time>2012-11-23T19:58:51+100</time>
      </trkpt>
      <trkpt lat="47.64794" lon="6.88211">
        <ele>388.945122</ele>
        <time>2012-11-23T19:58:51+100</time>
      </trkpt>
      <trkpt lat="47.64796" lon="6.88212">
        <ele>388.945122</ele>
        <time>2012-11-23T19:58:52+100</time>
      </trkpt>
      <trkpt lat="47.64797" lon="6.88214">
        <ele>388.945122</ele>
        <time>2012-11-23T19:58:53+100</time>
      </trkpt>
      <trkpt lat="47.64799" lon="6.88216">
        <ele>387.945126</ele>
        <time>2012-11-23T19:58:54+100</time>
      </trkpt>
      <trkpt lat="47.64801" lon="6.88218">
        <ele>387.945122</ele>
        <time>2012-11-23T19:58:55+100</time>
      </trkpt>
      <trkpt lat="47.64805" lon="6.88224">
        <ele>385.945137</ele>
        <time>2012-11-23T19:58:59+100</time>
      </trkpt>
      <trkpt lat="47.64807" lon="6.88226">
        <ele>385.945137</ele>
        <time>2012-11-23T19:58:59+100</time>
      </trkpt>
      <trkpt lat="47.64809" lon="6.88228">
        <ele>385.945141</ele>
        <time>2012-11-23T19:59:00+100</time>
      </trkpt>
      <trkpt lat="47.6481" lon="6.8823">
        <ele>384.945145</ele>
        <time>2012-11-23T19:59:01+100</time>
      </trkpt>
      <trkpt lat="47.64811" lon="6.88233">
        <ele>384.945145</ele>
        <time>2012-11-23T19:59:02+100</time>
      </trkpt>
      <trkpt lat="47.64812" lon="6.88235">
        <ele>385.945148</ele>
        <time>2012-11-23T19:59:03+100</time>
      </trkpt>
      <trkpt lat="47.64813" lon="6.88236">
        <ele>386.945152</ele>
        <time>2012-11-23T19:59:04+100</time>
      </trkpt>
      <trkpt lat="47.64814" lon="6.88238">
        <ele>386.945152</ele>
        <time>2012-11-23T19:59:05+100</time>
      </trkpt>
      <trkpt lat="47.64815" lon="6.8824">
        <ele>386.945152</ele>
        <time>2012-11-23T19:59:06+100</time>
      </trkpt>
      <trkpt lat="47.64815" lon="6.88241">
        <ele>386.945156</ele>
        <time>2012-11-23T19:59:07+100</time>
      </trkpt>
      <trkpt lat="47.64816" lon="6.88243">
        <ele>387.945156</ele>
        <time>2012-11-23T19:59:08+100</time>
      </trkpt>
      <trkpt lat="47.64817" lon="6.88246">
        <ele>388.945156</ele>
        <time>2012-11-23T19:59:10+100</time>
      </trkpt>
      <trkpt lat="47.64817" lon="6.88248">
        <ele>389.94516</ele>
        <time>2012-11-23T19:59:11+100</time>
      </trkpt>
      <trkpt lat="47.64817" lon="6.8825">
        <ele>389.94516</ele>
        <time>2012-11-23T19:59:12+100</time>
      </trkpt>
      <trkpt lat="47.64818" lon="6.88251">
        <ele>389.94516</ele>
        <time>2012-11-23T19:59:13+100</time>
      </trkpt>
      <trkpt lat="47.64818" lon="6.88252">
        <ele>390.94516</ele>
        <time>2012-11-23T19:59:15+100</time>
      </trkpt>
      <trkpt lat="47.64819" lon="6.88253">
        <ele>390.945164</ele>
        <time>2012-11-23T19:59:15+100</time>
      </trkpt>
      <trkpt lat="47.6482" lon="6.88254">
        <ele>390.945164</ele>
        <time>2012-11-23T19:59:16+100</time>
      </trkpt>
      <trkpt lat="47.6482" lon="6.88255">
        <ele>390.945164</ele>
        <time>2012-11-23T19:59:17+100</time>
      </trkpt>
      <trkpt lat="47.64821" lon="6.88256">
        <ele>389.945168</ele>
        <time>2012-11-23T19:59:18+100</time>
      </trkpt>
      <trkpt lat="47.64821" lon="6.88257">
        <ele>389.945168</ele>
        <time>2012-11-23T19:59:19+100</time>
      </trkpt>
      <trkpt lat="47.64822" lon="6.88258">
        <ele>389.945171</ele>
        <time>2012-11-23T19:59:20+100</time>
      </trkpt>
      <trkpt lat="47.64824" lon="6.8826">
        <ele>390.945171</ele>
        <time>2012-11-23T19:59:22+100</time>
      </trkpt>
      <trkpt lat="47.64824" lon="6.88261">
        <ele>390.945171</ele>
        <time>2012-11-23T19:59:23+100</time>
      </trkpt>
      <trkpt lat="47.64825" lon="6.88263">
        <ele>390.945175</ele>
        <time>2012-11-23T19:59:24+100</time>
      </trkpt>
      <trkpt lat="47.64825" lon="6.88264">
        <ele>390.945171</ele>
        <time>2012-11-23T19:59:25+100</time>
      </trkpt>
      <trkpt lat="47.64826" lon="6.88265">
        <ele>390.945175</ele>
        <time>2012-11-23T19:59:26+100</time>
      </trkpt>
      <trkpt lat="47.64826" lon="6.88267">
        <ele>391.945179</ele>
        <time>2012-11-23T19:59:27+100</time>
      </trkpt>
      <trkpt lat="47.64827" lon="6.88268">
        <ele>391.945179</ele>
        <time>2012-11-23T19:59:28+100</time>
      </trkpt>
      <trkpt lat="47.64827" lon="6.88269">
        <ele>390.945175</ele>
        <time>2012-11-23T19:59:29+100</time>
      </trkpt>
      <trkpt lat="47.64831" lon="6.88276">
        <ele>389.945187</ele>
        <time>2012-11-23T19:59:35+100</time>
      </trkpt>
      <trkpt lat="47.64832" lon="6.88277">
        <ele>389.945187</ele>
        <time>2012-11-23T19:59:36+100</time>
      </trkpt>
      <trkpt lat="47.64832" lon="6.88278">
        <ele>388.945187</ele>
        <time>2012-11-23T19:59:37+100</time>
      </trkpt>
      <trkpt lat="47.64833" lon="6.88278">
        <ele>388.94519</ele>
        <time>2012-11-23T19:59:38+100</time>
      </trkpt>
      <trkpt lat="47.64834" lon="6.88281">
        <ele>389.94519</ele>
        <time>2012-11-23T19:59:45+100</time>
      </trkpt>
      <trkpt lat="47.64835" lon="6.88282">
        <ele>389.94519</ele>
        <time>2012-11-23T19:59:45+100</time>
      </trkpt>
      <trkpt lat="47.64836" lon="6.88284">
        <ele>390.94519</ele>
        <time>2012-11-23T19:59:47+100</time>
      </trkpt>
      <trkpt lat="47.64836" lon="6.88285">
        <ele>390.945194</ele>
        <time>2012-11-23T19:59:48+100</time>
      </trkpt>
      <trkpt lat="47.64837" lon="6.88285">
        <ele>390.945194</ele>
        <time>2012-11-23T19:59:49+100</time>
      </trkpt>
      <trkpt lat="47.64838" lon="6.88287">
        <ele>390.945194</ele>
        <time>2012-11-23T19:59:50+100</time>
      </trkpt>
      <trkpt lat="47.64842" lon="6.88292">
        <ele>391.945206</ele>
        <time>2012-11-23T19:59:54+100</time>
      </trkpt>
      <trkpt lat="47.64843" lon="6.88293">
        <ele>391.945206</ele>
        <time>2012-11-23T19:59:55+100</time>
      </trkpt>
      <trkpt lat="47.64844" lon="6.88294">
        <ele>391.945206</ele>
        <time>2012-11-23T19:59:56+100</time>
      </trkpt>
      <trkpt lat="47.64845" lon="6.88295">
        <ele>391.945206</ele>
        <time>2012-11-23T19:59:57+100</time>
      </trkpt>
      <trkpt lat="47.64846" lon="6.88296">
        <ele>391.94521</ele>
        <time>2012-11-23T19:59:58+100</time>
      </trkpt>
      <trkpt lat="47.64847" lon="6.88297">
        <ele>391.945213</ele>
        <time>2012-11-23T19:59:59+100</time>
      </trkpt>
      <trkpt lat="47.64848" lon="6.88298">
        <ele>391.945213</ele>
        <time>2012-11-23T20:00:00+100</time>
      </trkpt>
      <trkpt lat="47.64849" lon="6.88299">
        <ele>391.945217</ele>
        <time>2012-11-23T20:00:01+100</time>
      </trkpt>
      <trkpt lat="47.64854" lon="6.88305">
        <ele>392.945229</ele>
        <time>2012-11-23T20:00:06+100</time>
      </trkpt>
      <trkpt lat="47.64855" lon="6.88306">
        <ele>393.945232</ele>
        <time>2012-11-23T20:00:07+100</time>
      </trkpt>
      <trkpt lat="47.64857" lon="6.88307">
        <ele>393.945229</ele>
        <time>2012-11-23T20:00:08+100</time>
      </trkpt>
      <trkpt lat="47.6486" lon="6.8831">
        <ele>394.945236</ele>
        <time>2012-11-23T20:00:11+100</time>
      </trkpt>
      <trkpt lat="47.64861" lon="6.88311">
        <ele>393.945236</ele>
        <time>2012-11-23T20:00:12+100</time>
      </trkpt>
      <trkpt lat="47.64863" lon="6.88313">
        <ele>394.94524</ele>
        <time>2012-11-23T20:00:14+100</time>
      </trkpt>
      <trkpt lat="47.64864" lon="6.88313">
        <ele>394.945244</ele>
        <time>2012-11-23T20:00:15+100</time>
      </trkpt>
      <trkpt lat="47.64865" lon="6.88314">
        <ele>394.945244</ele>
        <time>2012-11-23T20:00:16+100</time>
      </trkpt>
      <trkpt lat="47.64866" lon="6.88314">
        <ele>394.945244</ele>
        <time>2012-11-23T20:00:17+100</time>
      </trkpt>
      <trkpt lat="47.64867" lon="6.88315">
        <ele>394.945251</ele>
        <time>2012-11-23T20:00:18+100</time>
      </trkpt>
      <trkpt lat="47.64868" lon="6.88315">
        <ele>395.945251</ele>
        <time>2012-11-23T20:00:19+100</time>
      </trkpt>
      <trkpt lat="47.64869" lon="6.88315">
        <ele>395.945248</ele>
        <time>2012-11-23T20:00:21+100</time>
      </trkpt>
      <trkpt lat="47.6487" lon="6.88315">
        <ele>395.945251</ele>
        <time>2012-11-23T20:00:21+100</time>
      </trkpt>
      <trkpt lat="47.64872" lon="6.88316">
        <ele>395.945251</ele>
        <time>2012-11-23T20:00:22+100</time>
      </trkpt>
      <trkpt lat="47.64873" lon="6.88316">
        <ele>395.945259</ele>
        <time>2012-11-23T20:00:23+100</time>
      </trkpt>
      <trkpt lat="47.64874" lon="6.88317">
        <ele>395.945255</ele>
        <time>2012-11-23T20:00:25+100</time>
      </trkpt>
      <trkpt lat="47.64875" lon="6.88318">
        <ele>394.945259</ele>
        <time>2012-11-23T20:00:26+100</time>
      </trkpt>
      <trkpt lat="47.64876" lon="6.88319">
        <ele>394.945263</ele>
        <time>2012-11-23T20:00:27+100</time>
      </trkpt>
      <trkpt lat="47.64877" lon="6.8832">
        <ele>393.945263</ele>
        <time>2012-11-23T20:00:28+100</time>
      </trkpt>
      <trkpt lat="47.64878" lon="6.88321">
        <ele>393.945267</ele>
        <time>2012-11-23T20:00:29+100</time>
      </trkpt>
      <trkpt lat="47.64879" lon="6.88322">
        <ele>393.945267</ele>
        <time>2012-11-23T20:00:30+100</time>
      </trkpt>
      <trkpt lat="47.6488" lon="6.88323">
        <ele>394.945271</ele>
        <time>2012-11-23T20:00:31+100</time>
      </trkpt>
      <trkpt lat="47.64886" lon="6.88327">
        <ele>397.945278</ele>
        <time>2012-11-23T20:00:36+100</time>
      </trkpt>
      <trkpt lat="47.64887" lon="6.88328">
        <ele>398.945282</ele>
        <time>2012-11-23T20:00:37+100</time>
      </trkpt>
      <trkpt lat="47.64888" lon="6.88328">
        <ele>398.945286</ele>
        <time>2012-11-23T20:00:38+100</time>
      </trkpt>
      <trkpt lat="47.64889" lon="6.88329">
        <ele>398.945282</ele>
        <time>2012-11-23T20:00:39+100</time>
      </trkpt>
      <trkpt lat="47.6489" lon="6.88329">
        <ele>398.94529</ele>
        <time>2012-11-23T20:00:41+100</time>
      </trkpt>
      <trkpt lat="47.64891" lon="6.8833">
        <ele>398.94529</ele>
        <time>2012-11-23T20:00:41+100</time>
      </trkpt>
      <trkpt lat="47.64892" lon="6.8833">
        <ele>398.94529</ele>
        <time>2012-11-23T20:00:43+100</time>
      </trkpt>
      <trkpt lat="47.64894" lon="6.8833">
        <ele>399.945293</ele>
        <time>2012-11-23T20:00:44+100</time>
      </trkpt>
      <trkpt lat="47.64895" lon="6.8833">
        <ele>399.945293</ele>
        <time>2012-11-23T20:00:45+100</time>
      </trkpt>
      <trkpt lat="47.64896" lon="6.8833">
        <ele>400.945293</ele>
        <time>2012-11-23T20:00:47+100</time>
      </trkpt>
      <trkpt lat="47.64897" lon="6.8833">
        <ele>400.945297</ele>
        <time>2012-11-23T20:00:47+100</time>
      </trkpt>
      <trkpt lat="47.64898" lon="6.8833">
        <ele>400.945297</ele>
        <time>2012-11-23T20:00:48+100</time>
      </trkpt>
      <trkpt lat="47.649" lon="6.8833">
        <ele>401.945297</ele>
        <time>2012-11-23T20:00:49+100</time>
      </trkpt>
      <trkpt lat="47.64901" lon="6.8833">
        <ele>401.945305</ele>
        <time>2012-11-23T20:00:50+100</time>
      </trkpt>
      <trkpt lat="47.64904" lon="6.8833">
        <ele>402.945312</ele>
        <time>2012-11-23T20:00:54+100</time>
      </trkpt>
      <trkpt lat="47.64905" lon="6.8833">
        <ele>402.945312</ele>
        <time>2012-11-23T20:00:55+100</time>
      </trkpt>
      <trkpt lat="47.64905" lon="6.88331">
        <ele>403.945309</ele>
        <time>2012-11-23T20:00:56+100</time>
      </trkpt>
      <trkpt lat="47.64906" lon="6.88331">
        <ele>404.945309</ele>
        <time>2012-11-23T20:00:58+100</time>
      </trkpt>
      <trkpt lat="47.64906" lon="6.88331">
        <ele>405.945312</ele>
        <time>2012-11-23T20:01:00+100</time>
      </trkpt>
      <trkpt lat="47.64907" lon="6.88332">
        <ele>407.945316</ele>
        <time>2012-11-23T20:01:04+100</time>
      </trkpt>
      <trkpt lat="47.64907" lon="6.88332">
        <ele>408.945312</ele>
        <time>2012-11-23T20:01:07+100</time>
      </trkpt>
      <trkpt lat="47.64908" lon="6.88332">
        <ele>409.945312</ele>
        <time>2012-11-23T20:01:09+100</time>
      </trkpt>
      <trkpt lat="47.64908" lon="6.88331">
        <ele>408.945316</ele>
        <time>2012-11-23T20:01:11+100</time>
      </trkpt>
      <trkpt lat="47.64909" lon="6.88331">
        <ele>408.945316</ele>
        <time>2012-11-23T20:01:12+100</time>
      </trkpt>
      <trkpt lat="47.64909" lon="6.88331">
        <ele>408.945316</ele>
        <time>2012-11-23T20:01:14+100</time>
      </trkpt>
      <trkpt lat="47.64924" lon="6.8832">
        <ele>406.945335</ele>
        <time>2012-11-23T20:02:07+100</time>
      </trkpt>
      <trkpt lat="47.64926" lon="6.88319">
        <ele>407.945335</ele>
        <time>2012-11-23T20:02:08+100</time>
      </trkpt>
      <trkpt lat="47.64927" lon="6.88317">
        <ele>407.945339</ele>
        <time>2012-11-23T20:02:09+100</time>
      </trkpt>
      <trkpt lat="47.64928" lon="6.88316">
        <ele>407.945343</ele>
        <time>2012-11-23T20:02:10+100</time>
      </trkpt>
      <trkpt lat="47.64929" lon="6.88316">
        <ele>407.945347</ele>
        <time>2012-11-23T20:02:12+100</time>
      </trkpt>
      <trkpt lat="47.64929" lon="6.88316">
        <ele>407.945343</ele>
        <time>2012-11-23T20:02:12+100</time>
      </trkpt>
      <trkpt lat="47.6493" lon="6.88316">
        <ele>408.945347</ele>
        <time>2012-11-23T20:02:14+100</time>
      </trkpt>
      <trkpt lat="47.64933" lon="6.88314">
        <ele>409.945351</ele>
        <time>2012-11-23T20:02:16+100</time>
      </trkpt>
      <trkpt lat="47.64933" lon="6.88313">
        <ele>409.945347</ele>
        <time>2012-11-23T20:02:17+100</time>
      </trkpt>
      <trkpt lat="47.64934" lon="6.88312">
        <ele>409.945351</ele>
        <time>2012-11-23T20:02:18+100</time>
      </trkpt>
      <trkpt lat="47.64941" lon="6.88276">
        <ele>414.945358</ele>
        <time>2012-11-23T20:02:31+100</time>
      </trkpt>
      <trkpt lat="47.64942" lon="6.88274">
        <ele>414.945358</ele>
        <time>2012-11-23T20:02:32+100</time>
      </trkpt>
      <trkpt lat="47.64939" lon="6.88249">
        <ele>415.945351</ele>
        <time>2012-11-23T20:02:38+100</time>
      </trkpt>
      <trkpt lat="47.64931" lon="6.88208">
        <ele>411.945328</ele>
        <time>2012-11-23T20:02:52+100</time>
      </trkpt>
      <trkpt lat="47.64925" lon="6.88194">
        <ele>410.945316</ele>
        <time>2012-11-23T20:02:57+100</time>
      </trkpt>
      <trkpt lat="47.64915" lon="6.88163">
        <ele>407.94529</ele>
        <time>2012-11-23T20:03:10+100</time>
      </trkpt>
      <trkpt lat="47.64908" lon="6.88148">
        <ele>406.945282</ele>
        <time>2012-11-23T20:03:17+100</time>
      </trkpt>
      <trkpt lat="47.64903" lon="6.88131">
        <ele>403.945271</ele>
        <time>2012-11-23T20:03:23+100</time>
      </trkpt>
      <trkpt lat="47.64891" lon="6.8805">
        <ele>404.945236</ele>
        <time>2012-11-23T20:03:49+100</time>
      </trkpt>
      <trkpt lat="47.64892" lon="6.88048">
        <ele>404.945236</ele>
        <time>2012-11-23T20:03:50+100</time>
      </trkpt>
      <trkpt lat="47.64892" lon="6.88046">
        <ele>405.945236</ele>
        <time>2012-11-23T20:03:51+100</time>
      </trkpt>
      <trkpt lat="47.64892" lon="6.88044">
        <ele>405.94524</ele>
        <time>2012-11-23T20:03:52+100</time>
      </trkpt>
      <trkpt lat="47.64893" lon="6.88037">
        <ele>407.945244</ele>
        <time>2012-11-23T20:03:58+100</time>
      </trkpt>
      <trkpt lat="47.64894" lon="6.88034">
        <ele>407.94524</ele>
        <time>2012-11-23T20:04:00+100</time>
      </trkpt>
      <trkpt lat="47.64894" lon="6.88033">
        <ele>407.945244</ele>
        <time>2012-11-23T20:04:01+100</time>
      </trkpt>
      <trkpt lat="47.64895" lon="6.88029">
        <ele>408.945236</ele>
        <time>2012-11-23T20:04:02+100</time>
      </trkpt>
      <trkpt lat="47.64895" lon="6.88026">
        <ele>408.945236</ele>
        <time>2012-11-23T20:04:03+100</time>
      </trkpt>
      <trkpt lat="47.64896" lon="6.88022">
        <ele>408.945244</ele>
        <time>2012-11-23T20:04:05+100</time>
      </trkpt>
      <trkpt lat="47.64896" lon="6.88019">
        <ele>409.94524</ele>
        <time>2012-11-23T20:04:06+100</time>
      </trkpt>
      <trkpt lat="47.64897" lon="6.88016">
        <ele>409.945244</ele>
        <time>2012-11-23T20:04:08+100</time>
      </trkpt>
      <trkpt lat="47.64897" lon="6.88013">
        <ele>409.94524</ele>
        <time>2012-11-23T20:04:09+100</time>
      </trkpt>
      <trkpt lat="47.64897" lon="6.88009">
        <ele>410.94524</ele>
        <time>2012-11-23T20:04:11+100</time>
      </trkpt>
      <trkpt lat="47.64898" lon="6.88008">
        <ele>410.945236</ele>
        <time>2012-11-23T20:04:12+100</time>
      </trkpt>
      <trkpt lat="47.64898" lon="6.88006">
        <ele>410.94524</ele>
        <time>2012-11-23T20:04:13+100</time>
      </trkpt>
      <trkpt lat="47.64898" lon="6.88005">
        <ele>411.94524</ele>
        <time>2012-11-23T20:04:14+100</time>
      </trkpt>
      <trkpt lat="47.64899" lon="6.88002">
        <ele>411.945244</ele>
        <time>2012-11-23T20:04:16+100</time>
      </trkpt>
      <trkpt lat="47.64899" lon="6.88001">
        <ele>412.945244</ele>
        <time>2012-11-23T20:04:18+100</time>
      </trkpt>
      <trkpt lat="47.64899" lon="6.87999">
        <ele>412.945244</ele>
        <time>2012-11-23T20:04:19+100</time>
      </trkpt>
      <trkpt lat="47.64899" lon="6.87997">
        <ele>412.945244</ele>
        <time>2012-11-23T20:04:20+100</time>
      </trkpt>
      <trkpt lat="47.64899" lon="6.87996">
        <ele>412.945244</ele>
        <time>2012-11-23T20:04:21+100</time>
      </trkpt>
      <trkpt lat="47.64899" lon="6.87994">
        <ele>413.94524</ele>
        <time>2012-11-23T20:04:22+100</time>
      </trkpt>
      <trkpt lat="47.649" lon="6.87992">
        <ele>413.945244</ele>
        <time>2012-11-23T20:04:23+100</time>
      </trkpt>
      <trkpt lat="47.649" lon="6.87989">
        <ele>413.94524</ele>
        <time>2012-11-23T20:04:25+100</time>
      </trkpt>
      <trkpt lat="47.649" lon="6.87988">
        <ele>414.945236</ele>
        <time>2012-11-23T20:04:26+100</time>
      </trkpt>
      <trkpt lat="47.64893" lon="6.87945">
        <ele>419.945221</ele>
        <time>2012-11-23T20:04:57+100</time>
      </trkpt>
      <trkpt lat="47.6489" lon="6.87932">
        <ele>420.945213</ele>
        <time>2012-11-23T20:05:05+100</time>
      </trkpt>
      <trkpt lat="47.6489" lon="6.87931">
        <ele>420.945213</ele>
        <time>2012-11-23T20:05:06+100</time>
      </trkpt>
      <trkpt lat="47.64876" lon="6.87861">
        <ele>423.945179</ele>
        <time>2012-11-23T20:05:41+100</time>
      </trkpt>
      <trkpt lat="47.64872" lon="6.87828">
        <ele>420.945168</ele>
        <time>2012-11-23T20:05:56+100</time>
      </trkpt>
      <trkpt lat="47.6487" lon="6.87788">
        <ele>419.94516</ele>
        <time>2012-11-23T20:06:09+100</time>
      </trkpt>
      <trkpt lat="47.64869" lon="6.87776">
        <ele>419.945156</ele>
        <time>2012-11-23T20:06:12+100</time>
      </trkpt>
      <trkpt lat="47.64869" lon="6.87769">
        <ele>420.945152</ele>
        <time>2012-11-23T20:06:14+100</time>
      </trkpt>
      <trkpt lat="47.64869" lon="6.87766">
        <ele>421.945152</ele>
        <time>2012-11-23T20:06:15+100</time>
      </trkpt>
      <trkpt lat="47.64869" lon="6.87763">
        <ele>421.945156</ele>
        <time>2012-11-23T20:06:16+100</time>
      </trkpt>
      <trkpt lat="47.64869" lon="6.8776">
        <ele>421.945152</ele>
        <time>2012-11-23T20:06:17+100</time>
      </trkpt>
      <trkpt lat="47.6487" lon="6.87756">
        <ele>421.945156</ele>
        <time>2012-11-23T20:06:18+100</time>
      </trkpt>
      <trkpt lat="47.6487" lon="6.87743">
        <ele>421.945152</ele>
        <time>2012-11-23T20:06:22+100</time>
      </trkpt>
      <trkpt lat="47.64871" lon="6.8774">
        <ele>421.945152</ele>
        <time>2012-11-23T20:06:23+100</time>
      </trkpt>
      <trkpt lat="47.64871" lon="6.87737">
        <ele>420.945156</ele>
        <time>2012-11-23T20:06:24+100</time>
      </trkpt>
      <trkpt lat="47.64871" lon="6.87733">
        <ele>420.945152</ele>
        <time>2012-11-23T20:06:25+100</time>
      </trkpt>
      <trkpt lat="47.64872" lon="6.8773">
        <ele>420.945152</ele>
        <time>2012-11-23T20:06:26+100</time>
      </trkpt>
      <trkpt lat="47.64872" lon="6.87726">
        <ele>421.945152</ele>
        <time>2012-11-23T20:06:27+100</time>
      </trkpt>
      <trkpt lat="47.64872" lon="6.87723">
        <ele>420.945152</ele>
        <time>2012-11-23T20:06:28+100</time>
      </trkpt>
      <trkpt lat="47.64873" lon="6.87721">
        <ele>420.945152</ele>
        <time>2012-11-23T20:06:29+100</time>
      </trkpt>
      <trkpt lat="47.64873" lon="6.87719">
        <ele>420.945152</ele>
        <time>2012-11-23T20:06:30+100</time>
      </trkpt>
      <trkpt lat="47.64873" lon="6.87717">
        <ele>419.945152</ele>
        <time>2012-11-23T20:06:31+100</time>
      </trkpt>
      <trkpt lat="47.64874" lon="6.87713">
        <ele>419.945152</ele>
        <time>2012-11-23T20:06:32+100</time>
      </trkpt>
      <trkpt lat="47.64874" lon="6.87709">
        <ele>420.945148</ele>
        <time>2012-11-23T20:06:34+100</time>
      </trkpt>
      <trkpt lat="47.64874" lon="6.87705">
        <ele>420.945152</ele>
        <time>2012-11-23T20:06:34+100</time>
      </trkpt>
      <trkpt lat="47.64875" lon="6.87701">
        <ele>420.945152</ele>
        <time>2012-11-23T20:06:35+100</time>
      </trkpt>
      <trkpt lat="47.64875" lon="6.87691">
        <ele>421.945148</ele>
        <time>2012-11-23T20:06:37+100</time>
      </trkpt>
      <trkpt lat="47.64876" lon="6.87687">
        <ele>422.945152</ele>
        <time>2012-11-23T20:06:38+100</time>
      </trkpt>
      <trkpt lat="47.64876" lon="6.87679">
        <ele>422.945152</ele>
        <time>2012-11-23T20:06:40+100</time>
      </trkpt>
      <trkpt lat="47.64876" lon="6.87675">
        <ele>423.945152</ele>
        <time>2012-11-23T20:06:41+100</time>
      </trkpt>
      <trkpt lat="47.64877" lon="6.87672">
        <ele>423.945148</ele>
        <time>2012-11-23T20:06:42+100</time>
      </trkpt>
      <trkpt lat="47.64877" lon="6.87669">
        <ele>424.945152</ele>
        <time>2012-11-23T20:06:43+100</time>
      </trkpt>
      <trkpt lat="47.64883" lon="6.8763">
        <ele>424.945152</ele>
        <time>2012-11-23T20:07:00+100</time>
      </trkpt>
      <trkpt lat="47.64884" lon="6.87619">
        <ele>425.945148</ele>
        <time>2012-11-23T20:07:09+100</time>
      </trkpt>
      <trkpt lat="47.64884" lon="6.87618">
        <ele>425.945148</ele>
        <time>2012-11-23T20:07:10+100</time>
      </trkpt>
      <trkpt lat="47.64883" lon="6.8759">
        <ele>431.945145</ele>
        <time>2012-11-23T20:07:24+100</time>
      </trkpt>
      <trkpt lat="47.64883" lon="6.87588">
        <ele>431.945148</ele>
        <time>2012-11-23T20:07:25+100</time>
      </trkpt>
      <trkpt lat="47.64883" lon="6.87586">
        <ele>431.945145</ele>
        <time>2012-11-23T20:07:26+100</time>
      </trkpt>
      <trkpt lat="47.64883" lon="6.87585">
        <ele>432.945141</ele>
        <time>2012-11-23T20:07:27+100</time>
      </trkpt>
      <trkpt lat="47.6488" lon="6.87571">
        <ele>435.945137</ele>
        <time>2012-11-23T20:07:37+100</time>
      </trkpt>
      <trkpt lat="47.64878" lon="6.87567">
        <ele>436.945137</ele>
        <time>2012-11-23T20:07:39+100</time>
      </trkpt>
      <trkpt lat="47.64865" lon="6.87527">
        <ele>437.945107</ele>
        <time>2012-11-23T20:08:04+100</time>
      </trkpt>
      <trkpt lat="47.64859" lon="6.8751">
        <ele>439.945095</ele>
        <time>2012-11-23T20:08:48+100</time>
      </trkpt>
      <trkpt lat="47.64854" lon="6.87492">
        <ele>439.945084</ele>
        <time>2012-11-23T20:08:58+100</time>
      </trkpt>
      <trkpt lat="47.64853" lon="6.87484">
        <ele>439.945076</ele>
        <time>2012-11-23T20:09:02+100</time>
      </trkpt>
      <trkpt lat="47.64845" lon="6.8746">
        <ele>440.945061</ele>
        <time>2012-11-23T20:09:14+100</time>
      </trkpt>
      <trkpt lat="47.64839" lon="6.87446">
        <ele>441.945049</ele>
        <time>2012-11-23T20:09:22+100</time>
      </trkpt>
      <trkpt lat="47.64838" lon="6.87442">
        <ele>442.945049</ele>
        <time>2012-11-23T20:09:24+100</time>
      </trkpt>
      <trkpt lat="47.64831" lon="6.87419">
        <ele>441.945038</ele>
        <time>2012-11-23T20:09:36+100</time>
      </trkpt>
      <trkpt lat="47.64827" lon="6.87403">
        <ele>442.945026</ele>
        <time>2012-11-23T20:09:44+100</time>
      </trkpt>
      <trkpt lat="47.64812" lon="6.87365">
        <ele>443.944996</ele>
        <time>2012-11-23T20:10:06+100</time>
      </trkpt>
      <trkpt lat="47.64813" lon="6.87365">
        <ele>443.944996</ele>
        <time>2012-11-23T20:10:07+100</time>
      </trkpt>
      <trkpt lat="47.64814" lon="6.87365">
        <ele>444.945</ele>
        <time>2012-11-23T20:10:10+100</time>
      </trkpt>
      <trkpt lat="47.64814" lon="6.87365">
        <ele>443.945</ele>
        <time>2012-11-23T20:10:12+100</time>
      </trkpt>
      <trkpt lat="47.64814" lon="6.87365">
        <ele>443.944996</ele>
        <time>2012-11-23T20:10:14+100</time>
      </trkpt>
      <trkpt lat="47.64815" lon="6.87365">
        <ele>443.944996</ele>
        <time>2012-11-23T20:10:15+100</time>
      </trkpt>
      <trkpt lat="47.64815" lon="6.87365">
        <ele>443.945</ele>
        <time>2012-11-23T20:10:18+100</time>
      </trkpt>
      <trkpt lat="47.64816" lon="6.87364">
        <ele>442.945</ele>
        <time>2012-11-23T20:10:23+100</time>
      </trkpt>
      <trkpt lat="47.64815" lon="6.87354">
        <ele>443.944996</ele>
        <time>2012-11-23T20:10:27+100</time>
      </trkpt>
      <trkpt lat="47.64812" lon="6.87332">
        <ele>442.944992</ele>
        <time>2012-11-23T20:10:34+100</time>
      </trkpt>
      <trkpt lat="47.64813" lon="6.87318">
        <ele>441.944988</ele>
        <time>2012-11-23T20:10:41+100</time>
      </trkpt>
      <trkpt lat="47.64814" lon="6.87318">
        <ele>440.944992</ele>
        <time>2012-11-23T20:10:42+100</time>
      </trkpt>
      <trkpt lat="47.64816" lon="6.87319">
        <ele>440.944992</ele>
        <time>2012-11-23T20:10:43+100</time>
      </trkpt>
      <trkpt lat="47.64818" lon="6.8732">
        <ele>440.944996</ele>
        <time>2012-11-23T20:10:44+100</time>
      </trkpt>
      <trkpt lat="47.6482" lon="6.87322">
        <ele>439.945004</ele>
        <time>2012-11-23T20:10:46+100</time>
      </trkpt>
      <trkpt lat="47.64823" lon="6.87324">
        <ele>439.945004</ele>
        <time>2012-11-23T20:10:46+100</time>
      </trkpt>
      <trkpt lat="47.64825" lon="6.87326">
        <ele>439.945007</ele>
        <time>2012-11-23T20:10:47+100</time>
      </trkpt>
      <trkpt lat="47.64826" lon="6.87328">
        <ele>439.945007</ele>
        <time>2012-11-23T20:10:48+100</time>
      </trkpt>
      <trkpt lat="47.64827" lon="6.8733">
        <ele>438.945011</ele>
        <time>2012-11-23T20:10:49+100</time>
      </trkpt>
      <trkpt lat="47.64829" lon="6.87331">
        <ele>438.945019</ele>
        <time>2012-11-23T20:10:50+100</time>
      </trkpt>
      <trkpt lat="47.6483" lon="6.87333">
        <ele>438.945015</ele>
        <time>2012-11-23T20:10:51+100</time>
      </trkpt>
      <trkpt lat="47.64831" lon="6.87334">
        <ele>438.945019</ele>
        <time>2012-11-23T20:10:52+100</time>
      </trkpt>
      <trkpt lat="47.64833" lon="6.87335">
        <ele>437.945023</ele>
        <time>2012-11-23T20:10:53+100</time>
      </trkpt>
      <trkpt lat="47.64834" lon="6.87336">
        <ele>437.945023</ele>
        <time>2012-11-23T20:10:54+100</time>
      </trkpt>
      <trkpt lat="47.64836" lon="6.87338">
        <ele>437.94503</ele>
        <time>2012-11-23T20:10:55+100</time>
      </trkpt>
      <trkpt lat="47.64848" lon="6.87346">
        <ele>433.945045</ele>
        <time>2012-11-23T20:11:03+100</time>
      </trkpt>
      <trkpt lat="47.6485" lon="6.87345">
        <ele>432.945049</ele>
        <time>2012-11-23T20:11:04+100</time>
      </trkpt>
      <trkpt lat="47.6485" lon="6.87343">
        <ele>431.945053</ele>
        <time>2012-11-23T20:11:06+100</time>
      </trkpt>
      <trkpt lat="47.64851" lon="6.87341">
        <ele>431.945053</ele>
        <time>2012-11-23T20:11:06+100</time>
      </trkpt>
      <trkpt lat="47.64852" lon="6.87335">
        <ele>428.945049</ele>
        <time>2012-11-23T20:11:09+100</time>
      </trkpt>
      <trkpt lat="47.64851" lon="6.87331">
        <ele>426.945053</ele>
        <time>2012-11-23T20:11:11+100</time>
      </trkpt>
      <trkpt lat="47.6485" lon="6.87322">
        <ele>422.945049</ele>
        <time>2012-11-23T20:11:15+100</time>
      </trkpt>
      <trkpt lat="47.64847" lon="6.87312">
        <ele>421.945042</ele>
        <time>2012-11-23T20:11:20+100</time>
      </trkpt>
      <trkpt lat="47.64826" lon="6.87239">
        <ele>413.944996</ele>
        <time>2012-11-23T20:11:46+100</time>
      </trkpt>
      <trkpt lat="47.64825" lon="6.87235">
        <ele>412.944996</ele>
        <time>2012-11-23T20:11:48+100</time>
      </trkpt>
      <trkpt lat="47.64821" lon="6.87221">
        <ele>411.944984</ele>
        <time>2012-11-23T20:11:51+100</time>
      </trkpt>
      <trkpt lat="47.64814" lon="6.87198">
        <ele>410.944969</ele>
        <time>2012-11-23T20:11:57+100</time>
      </trkpt>
      <trkpt lat="47.64812" lon="6.87188">
        <ele>409.944965</ele>
        <time>2012-11-23T20:11:59+100</time>
      </trkpt>
      <trkpt lat="47.64806" lon="6.87167">
        <ele>409.94495</ele>
        <time>2012-11-23T20:12:04+100</time>
      </trkpt>
      <trkpt lat="47.64788" lon="6.8712">
        <ele>404.944916</ele>
        <time>2012-11-23T20:12:22+100</time>
      </trkpt>
      <trkpt lat="47.6478" lon="6.87098">
        <ele>403.944901</ele>
        <time>2012-11-23T20:12:30+100</time>
      </trkpt>
      <trkpt lat="47.64777" lon="6.87089">
        <ele>401.944889</ele>
        <time>2012-11-23T20:12:33+100</time>
      </trkpt>
      <trkpt lat="47.64768" lon="6.87039">
        <ele>398.94487</ele>
        <time>2012-11-23T20:12:45+100</time>
      </trkpt>
      <trkpt lat="47.64757" lon="6.86995">
        <ele>398.944843</ele>
        <time>2012-11-23T20:12:56+100</time>
      </trkpt>
      <trkpt lat="47.64751" lon="6.86975">
        <ele>394.944836</ele>
        <time>2012-11-23T20:13:02+100</time>
      </trkpt>
      <trkpt lat="47.64747" lon="6.86958">
        <ele>393.94482</ele>
        <time>2012-11-23T20:13:08+100</time>
      </trkpt>
      <trkpt lat="47.64724" lon="6.86897">
        <ele>391.944775</ele>
        <time>2012-11-23T20:13:29+100</time>
      </trkpt>
      <trkpt lat="47.64705" lon="6.86843">
        <ele>395.944733</ele>
        <time>2012-11-23T20:13:53+100</time>
      </trkpt>
      <trkpt lat="47.64695" lon="6.8681">
        <ele>394.944714</ele>
        <time>2012-11-23T20:14:07+100</time>
      </trkpt>
      <trkpt lat="47.64694" lon="6.86804">
        <ele>393.944714</ele>
        <time>2012-11-23T20:14:09+100</time>
      </trkpt>
      <trkpt lat="47.64673" lon="6.86755">
        <ele>382.944672</ele>
        <time>2012-11-23T20:14:25+100</time>
      </trkpt>
      <trkpt lat="47.64663" lon="6.86741">
        <ele>379.944656</ele>
        <time>2012-11-23T20:14:32+100</time>
      </trkpt>
      <trkpt lat="47.6466" lon="6.86737">
        <ele>379.944645</ele>
        <time>2012-11-23T20:14:33+100</time>
      </trkpt>
      <trkpt lat="47.64652" lon="6.8672">
        <ele>380.94463</ele>
        <time>2012-11-23T20:14:40+100</time>
      </trkpt>
      <trkpt lat="47.64644" lon="6.86712">
        <ele>379.944618</ele>
        <time>2012-11-23T20:14:44+100</time>
      </trkpt>
      <trkpt lat="47.64637" lon="6.86704">
        <ele>378.944599</ele>
        <time>2012-11-23T20:14:48+100</time>
      </trkpt>
      <trkpt lat="47.64635" lon="6.86703">
        <ele>378.944603</ele>
        <time>2012-11-23T20:14:49+100</time>
      </trkpt>
      <trkpt lat="47.64633" lon="6.86701">
        <ele>378.944599</ele>
        <time>2012-11-23T20:14:51+100</time>
      </trkpt>
      <trkpt lat="47.64609" lon="6.86651">
        <ele>376.94455</ele>
        <time>2012-11-23T20:15:07+100</time>
      </trkpt>
      <trkpt lat="47.64606" lon="6.86645">
        <ele>376.944546</ele>
        <time>2012-11-23T20:15:10+100</time>
      </trkpt>
      <trkpt lat="47.64601" lon="6.86627">
        <ele>377.944534</ele>
        <time>2012-11-23T20:15:15+100</time>
      </trkpt>
      <trkpt lat="47.64596" lon="6.86603">
        <ele>378.944527</ele>
        <time>2012-11-23T20:15:23+100</time>
      </trkpt>
      <trkpt lat="47.64567" lon="6.8656">
        <ele>380.944469</ele>
        <time>2012-11-23T20:16:06+100</time>
      </trkpt>
      <trkpt lat="47.6456" lon="6.86546">
        <ele>382.944454</ele>
        <time>2012-11-23T20:16:11+100</time>
      </trkpt>
      <trkpt lat="47.64553" lon="6.86534">
        <ele>381.944443</ele>
        <time>2012-11-23T20:16:15+100</time>
      </trkpt>
      <trkpt lat="47.64511" lon="6.86468">
        <ele>385.94437</ele>
        <time>2012-11-23T20:16:36+100</time>
      </trkpt>
      <trkpt lat="47.64503" lon="6.86458">
        <ele>384.944351</ele>
        <time>2012-11-23T20:16:41+100</time>
      </trkpt>
      <trkpt lat="47.64496" lon="6.86449">
        <ele>384.944336</ele>
        <time>2012-11-23T20:16:43+100</time>
      </trkpt>
      <trkpt lat="47.64468" lon="6.86403">
        <ele>380.944286</ele>
        <time>2012-11-23T20:16:58+100</time>
      </trkpt>
      <trkpt lat="47.64424" lon="6.86361">
        <ele>367.944214</ele>
        <time>2012-11-23T20:17:19+100</time>
      </trkpt>
      <trkpt lat="47.64415" lon="6.86353">
        <ele>366.944195</ele>
        <time>2012-11-23T20:17:22+100</time>
      </trkpt>
      <trkpt lat="47.64401" lon="6.86336">
        <ele>361.944168</ele>
        <time>2012-11-23T20:17:32+100</time>
      </trkpt>
      <trkpt lat="47.64388" lon="6.86316">
        <ele>361.944145</ele>
        <time>2012-11-23T20:17:39+100</time>
      </trkpt>
      <trkpt lat="47.64365" lon="6.86271">
        <ele>362.944103</ele>
        <time>2012-11-23T20:17:50+100</time>
      </trkpt>
      <trkpt lat="47.64359" lon="6.86254">
        <ele>362.944088</ele>
        <time>2012-11-23T20:17:53+100</time>
      </trkpt>
      <trkpt lat="47.64345" lon="6.86222">
        <ele>369.944061</ele>
        <time>2012-11-23T20:18:02+100</time>
      </trkpt>
      <trkpt lat="47.64336" lon="6.86216">
        <ele>369.944046</ele>
        <time>2012-11-23T20:18:08+100</time>
      </trkpt>
      <trkpt lat="47.64328" lon="6.86213">
        <ele>366.944035</ele>
        <time>2012-11-23T20:18:13+100</time>
      </trkpt>
      <trkpt lat="47.64322" lon="6.86209">
        <ele>365.944023</ele>
        <time>2012-11-23T20:18:18+100</time>
      </trkpt>
      <trkpt lat="47.64301" lon="6.86174">
        <ele>357.943985</ele>
        <time>2012-11-23T20:18:38+100</time>
      </trkpt>
      <trkpt lat="47.64295" lon="6.86163">
        <ele>355.943974</ele>
        <time>2012-11-23T20:18:44+100</time>
      </trkpt>
      <trkpt lat="47.64273" lon="6.86147">
        <ele>355.943935</ele>
        <time>2012-11-23T20:19:00+100</time>
      </trkpt>
      <trkpt lat="47.6426" lon="6.86143">
        <ele>354.943916</ele>
        <time>2012-11-23T20:19:08+100</time>
      </trkpt>
      <trkpt lat="47.64253" lon="6.8614">
        <ele>353.943901</ele>
        <time>2012-11-23T20:19:12+100</time>
      </trkpt>
      <trkpt lat="47.64243" lon="6.86129">
        <ele>351.943886</ele>
        <time>2012-11-23T20:19:18+100</time>
      </trkpt>
      <trkpt lat="47.64234" lon="6.86112">
        <ele>353.943867</ele>
        <time>2012-11-23T20:19:24+100</time>
      </trkpt>
      <trkpt lat="47.64233" lon="6.86108">
        <ele>353.943867</ele>
        <time>2012-11-23T20:19:25+100</time>
      </trkpt>
      <trkpt lat="47.64222" lon="6.86089">
        <ele>354.943848</ele>
        <time>2012-11-23T20:19:32+100</time>
      </trkpt>
      <trkpt lat="47.64218" lon="6.86084">
        <ele>354.943836</ele>
        <time>2012-11-23T20:19:34+100</time>
      </trkpt>
      <trkpt lat="47.64187" lon="6.86065">
        <ele>347.943787</ele>
        <time>2012-11-23T20:19:49+100</time>
      </trkpt>
      <trkpt lat="47.6417" lon="6.86055">
        <ele>345.943756</ele>
        <time>2012-11-23T20:19:56+100</time>
      </trkpt>
      <trkpt lat="47.64152" lon="6.86041">
        <ele>344.943726</ele>
        <time>2012-11-23T20:20:04+100</time>
      </trkpt>
      <trkpt lat="47.64143" lon="6.8603">
        <ele>343.94371</ele>
        <time>2012-11-23T20:20:11+100</time>
      </trkpt>
      <trkpt lat="47.64135" lon="6.8602">
        <ele>342.943695</ele>
        <time>2012-11-23T20:20:17+100</time>
      </trkpt>
      <trkpt lat="47.64122" lon="6.86003">
        <ele>344.943672</ele>
        <time>2012-11-23T20:20:25+100</time>
      </trkpt>
      <trkpt lat="47.64117" lon="6.85996">
        <ele>346.943665</ele>
        <time>2012-11-23T20:20:28+100</time>
      </trkpt>
      <trkpt lat="47.64109" lon="6.85986">
        <ele>345.943649</ele>
        <time>2012-11-23T20:20:33+100</time>
      </trkpt>
      <trkpt lat="47.64103" lon="6.85978">
        <ele>344.943638</ele>
        <time>2012-11-23T20:20:37+100</time>
      </trkpt>
      <trkpt lat="47.641" lon="6.85973">
        <ele>344.943634</ele>
        <time>2012-11-23T20:20:39+100</time>
      </trkpt>
      <trkpt lat="47.64095" lon="6.85965">
        <ele>344.943623</ele>
        <time>2012-11-23T20:20:42+100</time>
      </trkpt>
      <trkpt lat="47.64087" lon="6.8595">
        <ele>344.943604</ele>
        <time>2012-11-23T20:20:50+100</time>
      </trkpt>
      <trkpt lat="47.64081" lon="6.85939">
        <ele>346.943596</ele>
        <time>2012-11-23T20:20:55+100</time>
      </trkpt>
      <trkpt lat="47.64066" lon="6.85925">
        <ele>349.943569</ele>
        <time>2012-11-23T20:21:04+100</time>
      </trkpt>
      <trkpt lat="47.6405" lon="6.85912">
        <ele>349.943546</ele>
        <time>2012-11-23T20:21:12+100</time>
      </trkpt>
      <trkpt lat="47.64045" lon="6.85908">
        <ele>349.943535</ele>
        <time>2012-11-23T20:21:15+100</time>
      </trkpt>
      <trkpt lat="47.64043" lon="6.85906">
        <ele>350.943531</ele>
        <time>2012-11-23T20:21:18+100</time>
      </trkpt>
      <trkpt lat="47.64034" lon="6.85903">
        <ele>351.943516</ele>
        <time>2012-11-23T20:21:22+100</time>
      </trkpt>
      <trkpt lat="47.64029" lon="6.85902">
        <ele>352.943504</ele>
        <time>2012-11-23T20:21:24+100</time>
      </trkpt>
      <trkpt lat="47.64025" lon="6.85901">
        <ele>353.943504</ele>
        <time>2012-11-23T20:21:26+100</time>
      </trkpt>
      <trkpt lat="47.64014" lon="6.85898">
        <ele>353.943481</ele>
        <time>2012-11-23T20:21:31+100</time>
      </trkpt>
      <trkpt lat="47.64004" lon="6.85897">
        <ele>353.943466</ele>
        <time>2012-11-23T20:21:35+100</time>
      </trkpt>
      <trkpt lat="47.64" lon="6.85895">
        <ele>353.943459</ele>
        <time>2012-11-23T20:21:38+100</time>
      </trkpt>
      <trkpt lat="47.63987" lon="6.85892">
        <ele>358.943443</ele>
        <time>2012-11-23T20:21:42+100</time>
      </trkpt>
      <trkpt lat="47.63976" lon="6.85888">
        <ele>360.94342</ele>
        <time>2012-11-23T20:21:46+100</time>
      </trkpt>
      <trkpt lat="47.63969" lon="6.85885">
        <ele>361.943413</ele>
        <time>2012-11-23T20:21:49+100</time>
      </trkpt>
      <trkpt lat="47.63963" lon="6.85883">
        <ele>361.943401</ele>
        <time>2012-11-23T20:21:51+100</time>
      </trkpt>
      <trkpt lat="47.63952" lon="6.8588">
        <ele>361.943386</ele>
        <time>2012-11-23T20:21:56+100</time>
      </trkpt>
      <trkpt lat="47.6394" lon="6.85877">
        <ele>358.943367</ele>
        <time>2012-11-23T20:22:00+100</time>
      </trkpt>
      <trkpt lat="47.63935" lon="6.85876">
        <ele>356.943352</ele>
        <time>2012-11-23T20:22:02+100</time>
      </trkpt>
      <trkpt lat="47.6391" lon="6.85868">
        <ele>352.943317</ele>
        <time>2012-11-23T20:22:13+100</time>
      </trkpt>
      <trkpt lat="47.63906" lon="6.85867">
        <ele>352.94331</ele>
        <time>2012-11-23T20:22:15+100</time>
      </trkpt>
      <trkpt lat="47.63895" lon="6.85864">
        <ele>354.943291</ele>
        <time>2012-11-23T20:22:21+100</time>
      </trkpt>
      <trkpt lat="47.6389" lon="6.85863">
        <ele>354.943283</ele>
        <time>2012-11-23T20:22:22+100</time>
      </trkpt>
      <trkpt lat="47.63886" lon="6.85862">
        <ele>354.943279</ele>
        <time>2012-11-23T20:22:24+100</time>
      </trkpt>
      <trkpt lat="47.63872" lon="6.8586">
        <ele>355.943253</ele>
        <time>2012-11-23T20:22:29+100</time>
      </trkpt>
      <trkpt lat="47.63851" lon="6.85857">
        <ele>358.943222</ele>
        <time>2012-11-23T20:22:37+100</time>
      </trkpt>
      <trkpt lat="47.63838" lon="6.85854">
        <ele>358.943199</ele>
        <time>2012-11-23T20:22:42+100</time>
      </trkpt>
      <trkpt lat="47.63832" lon="6.85853">
        <ele>357.943188</ele>
        <time>2012-11-23T20:22:46+100</time>
      </trkpt>
      <trkpt lat="47.63814" lon="6.8585">
        <ele>357.943161</ele>
        <time>2012-11-23T20:22:57+100</time>
      </trkpt>
      <trkpt lat="47.6381" lon="6.8585">
        <ele>357.943153</ele>
        <time>2012-11-23T20:23:00+100</time>
      </trkpt>
      <trkpt lat="47.63809" lon="6.85851">
        <ele>357.943153</ele>
        <time>2012-11-23T20:23:01+100</time>
      </trkpt>
      <trkpt lat="47.63808" lon="6.85851">
        <ele>356.943153</ele>
        <time>2012-11-23T20:23:02+100</time>
      </trkpt>
      <trkpt lat="47.63806" lon="6.85851">
        <ele>356.943153</ele>
        <time>2012-11-23T20:23:03+100</time>
      </trkpt>
      <trkpt lat="47.63804" lon="6.85851">
        <ele>355.943146</ele>
        <time>2012-11-23T20:23:05+100</time>
      </trkpt>
      <trkpt lat="47.63802" lon="6.85851">
        <ele>355.943146</ele>
        <time>2012-11-23T20:23:06+100</time>
      </trkpt>
      <trkpt lat="47.63801" lon="6.85851">
        <ele>354.943146</ele>
        <time>2012-11-23T20:23:07+100</time>
      </trkpt>
      <trkpt lat="47.6379" lon="6.85851">
        <ele>356.943123</ele>
        <time>2012-11-23T20:23:14+100</time>
      </trkpt>
      <trkpt lat="47.63785" lon="6.85851">
        <ele>358.943115</ele>
        <time>2012-11-23T20:23:16+100</time>
      </trkpt>
      <trkpt lat="47.63782" lon="6.85851">
        <ele>359.943115</ele>
        <time>2012-11-23T20:23:17+100</time>
      </trkpt>
      <trkpt lat="47.63778" lon="6.85851">
        <ele>360.943108</ele>
        <time>2012-11-23T20:23:18+100</time>
      </trkpt>
      <trkpt lat="47.63775" lon="6.85852">
        <ele>361.9431</ele>
        <time>2012-11-23T20:23:19+100</time>
      </trkpt>
      <trkpt lat="47.63772" lon="6.85853">
        <ele>362.943096</ele>
        <time>2012-11-23T20:23:20+100</time>
      </trkpt>
      <trkpt lat="47.63769" lon="6.85853">
        <ele>362.943089</ele>
        <time>2012-11-23T20:23:21+100</time>
      </trkpt>
      <trkpt lat="47.63766" lon="6.85854">
        <ele>363.943092</ele>
        <time>2012-11-23T20:23:22+100</time>
      </trkpt>
      <trkpt lat="47.63763" lon="6.85855">
        <ele>363.943077</ele>
        <time>2012-11-23T20:23:23+100</time>
      </trkpt>
      <trkpt lat="47.63761" lon="6.85856">
        <ele>364.943077</ele>
        <time>2012-11-23T20:23:24+100</time>
      </trkpt>
      <trkpt lat="47.63758" lon="6.85857">
        <ele>364.943073</ele>
        <time>2012-11-23T20:23:25+100</time>
      </trkpt>
      <trkpt lat="47.63755" lon="6.85858">
        <ele>364.943073</ele>
        <time>2012-11-23T20:23:26+100</time>
      </trkpt>
      <trkpt lat="47.63753" lon="6.85859">
        <ele>364.943066</ele>
        <time>2012-11-23T20:23:27+100</time>
      </trkpt>
      <trkpt lat="47.6375" lon="6.8586">
        <ele>365.943066</ele>
        <time>2012-11-23T20:23:28+100</time>
      </trkpt>
      <trkpt lat="47.63748" lon="6.85861">
        <ele>365.943054</ele>
        <time>2012-11-23T20:23:29+100</time>
      </trkpt>
      <trkpt lat="47.63745" lon="6.85862">
        <ele>364.943054</ele>
        <time>2012-11-23T20:23:30+100</time>
      </trkpt>
      <trkpt lat="47.63743" lon="6.85863">
        <ele>364.943054</ele>
        <time>2012-11-23T20:23:31+100</time>
      </trkpt>
      <trkpt lat="47.6374" lon="6.85865">
        <ele>364.943043</ele>
        <time>2012-11-23T20:23:32+100</time>
      </trkpt>
      <trkpt lat="47.63738" lon="6.85866">
        <ele>364.943047</ele>
        <time>2012-11-23T20:23:33+100</time>
      </trkpt>
      <trkpt lat="47.63735" lon="6.85867">
        <ele>365.943039</ele>
        <time>2012-11-23T20:23:34+100</time>
      </trkpt>
      <trkpt lat="47.63733" lon="6.85868">
        <ele>365.943039</ele>
        <time>2012-11-23T20:23:35+100</time>
      </trkpt>
      <trkpt lat="47.6373" lon="6.85869">
        <ele>365.943031</ele>
        <time>2012-11-23T20:23:36+100</time>
      </trkpt>
      <trkpt lat="47.63728" lon="6.8587">
        <ele>365.943027</ele>
        <time>2012-11-23T20:23:37+100</time>
      </trkpt>
      <trkpt lat="47.63725" lon="6.85871">
        <ele>365.943027</ele>
        <time>2012-11-23T20:23:38+100</time>
      </trkpt>
      <trkpt lat="47.63723" lon="6.85872">
        <ele>364.943024</ele>
        <time>2012-11-23T20:23:39+100</time>
      </trkpt>
      <trkpt lat="47.6372" lon="6.85873">
        <ele>364.94302</ele>
        <time>2012-11-23T20:23:40+100</time>
      </trkpt>
      <trkpt lat="47.63718" lon="6.85875">
        <ele>364.943016</ele>
        <time>2012-11-23T20:23:41+100</time>
      </trkpt>
      <trkpt lat="47.63715" lon="6.85876">
        <ele>364.943012</ele>
        <time>2012-11-23T20:23:42+100</time>
      </trkpt>
      <trkpt lat="47.63713" lon="6.85877">
        <ele>363.943008</ele>
        <time>2012-11-23T20:23:43+100</time>
      </trkpt>
      <trkpt lat="47.6371" lon="6.85878">
        <ele>363.943001</ele>
        <time>2012-11-23T20:23:44+100</time>
      </trkpt>
      <trkpt lat="47.63708" lon="6.85879">
        <ele>363.943001</ele>
        <time>2012-11-23T20:23:45+100</time>
      </trkpt>
      <trkpt lat="47.63706" lon="6.8588">
        <ele>363.942993</ele>
        <time>2012-11-23T20:23:46+100</time>
      </trkpt>
      <trkpt lat="47.63703" lon="6.85881">
        <ele>363.942993</ele>
        <time>2012-11-23T20:23:47+100</time>
      </trkpt>
      <trkpt lat="47.63701" lon="6.85882">
        <ele>363.942986</ele>
        <time>2012-11-23T20:23:48+100</time>
      </trkpt>
      <trkpt lat="47.63699" lon="6.85882">
        <ele>362.942986</ele>
        <time>2012-11-23T20:23:49+100</time>
      </trkpt>
      <trkpt lat="47.63697" lon="6.85883">
        <ele>362.942986</ele>
        <time>2012-11-23T20:23:50+100</time>
      </trkpt>
      <trkpt lat="47.63696" lon="6.85883">
        <ele>363.942986</ele>
        <time>2012-11-23T20:23:51+100</time>
      </trkpt>
      <trkpt lat="47.63695" lon="6.85883">
        <ele>362.942982</ele>
        <time>2012-11-23T20:23:52+100</time>
      </trkpt>
      <trkpt lat="47.63693" lon="6.85883">
        <ele>360.942978</ele>
        <time>2012-11-23T20:23:54+100</time>
      </trkpt>
      <trkpt lat="47.63693" lon="6.85884">
        <ele>360.942978</ele>
        <time>2012-11-23T20:23:56+100</time>
      </trkpt>
      <trkpt lat="47.63692" lon="6.85884">
        <ele>359.942974</ele>
        <time>2012-11-23T20:23:57+100</time>
      </trkpt>
      <trkpt lat="47.63691" lon="6.85884">
        <ele>358.942974</ele>
        <time>2012-11-23T20:23:57+100</time>
      </trkpt>
      <trkpt lat="47.63691" lon="6.85885">
        <ele>356.942974</ele>
        <time>2012-11-23T20:23:59+100</time>
      </trkpt>
      <trkpt lat="47.6369" lon="6.85885">
        <ele>355.942974</ele>
        <time>2012-11-23T20:23:59+100</time>
      </trkpt>
      <trkpt lat="47.6369" lon="6.85885">
        <ele>354.94297</ele>
        <time>2012-11-23T20:24:00+100</time>
      </trkpt>
      <trkpt lat="47.63689" lon="6.85886">
        <ele>354.942974</ele>
        <time>2012-11-23T20:24:01+100</time>
      </trkpt>
      <trkpt lat="47.63689" lon="6.85886">
        <ele>353.94297</ele>
        <time>2012-11-23T20:24:02+100</time>
      </trkpt>
      <trkpt lat="47.63688" lon="6.85886">
        <ele>352.942966</ele>
        <time>2012-11-23T20:24:03+100</time>
      </trkpt>
      <trkpt lat="47.63687" lon="6.85887">
        <ele>350.942966</ele>
        <time>2012-11-23T20:24:04+100</time>
      </trkpt>
      <trkpt lat="47.63686" lon="6.85888">
        <ele>349.942966</ele>
        <time>2012-11-23T20:24:05+100</time>
      </trkpt>
      <trkpt lat="47.63684" lon="6.85888">
        <ele>348.942966</ele>
        <time>2012-11-23T20:24:06+100</time>
      </trkpt>
      <trkpt lat="47.63682" lon="6.85889">
        <ele>347.942959</ele>
        <time>2012-11-23T20:24:07+100</time>
      </trkpt>
      <trkpt lat="47.6368" lon="6.8589">
        <ele>347.942959</ele>
        <time>2012-11-23T20:24:08+100</time>
      </trkpt>
      <trkpt lat="47.63678" lon="6.8589">
        <ele>346.942955</ele>
        <time>2012-11-23T20:24:09+100</time>
      </trkpt>
      <trkpt lat="47.63676" lon="6.85891">
        <ele>346.942947</ele>
        <time>2012-11-23T20:24:11+100</time>
      </trkpt>
      <trkpt lat="47.63674" lon="6.85892">
        <ele>345.942947</ele>
        <time>2012-11-23T20:24:11+100</time>
      </trkpt>
      <trkpt lat="47.63672" lon="6.85893">
        <ele>344.942944</ele>
        <time>2012-11-23T20:24:12+100</time>
      </trkpt>
      <trkpt lat="47.63666" lon="6.85897">
        <ele>343.94294</ele>
        <time>2012-11-23T20:24:15+100</time>
      </trkpt>
      <trkpt lat="47.63664" lon="6.85898">
        <ele>343.942932</ele>
        <time>2012-11-23T20:24:16+100</time>
      </trkpt>
      <trkpt lat="47.63663" lon="6.859">
        <ele>342.942932</ele>
        <time>2012-11-23T20:24:17+100</time>
      </trkpt>
      <trkpt lat="47.63661" lon="6.85902">
        <ele>342.942928</ele>
        <time>2012-11-23T20:24:18+100</time>
      </trkpt>
      <trkpt lat="47.63659" lon="6.85904">
        <ele>342.942928</ele>
        <time>2012-11-23T20:24:19+100</time>
      </trkpt>
      <trkpt lat="47.63657" lon="6.85906">
        <ele>341.942924</ele>
        <time>2012-11-23T20:24:20+100</time>
      </trkpt>
      <trkpt lat="47.63655" lon="6.85908">
        <ele>341.942924</ele>
        <time>2012-11-23T20:24:21+100</time>
      </trkpt>
      <trkpt lat="47.63649" lon="6.85913">
        <ele>342.942917</ele>
        <time>2012-11-23T20:24:24+100</time>
      </trkpt>
      <trkpt lat="47.63647" lon="6.85914">
        <ele>342.942913</ele>
        <time>2012-11-23T20:24:25+100</time>
      </trkpt>
      <trkpt lat="47.63645" lon="6.85914">
        <ele>342.942909</ele>
        <time>2012-11-23T20:24:26+100</time>
      </trkpt>
      <trkpt lat="47.63642" lon="6.85914">
        <ele>342.942905</ele>
        <time>2012-11-23T20:24:28+100</time>
      </trkpt>
      <trkpt lat="47.63631" lon="6.85901">
        <ele>332.942879</ele>
        <time>2012-11-23T20:24:35+100</time>
      </trkpt>
      <trkpt lat="47.63627" lon="6.85896">
        <ele>331.942879</ele>
        <time>2012-11-23T20:24:37+100</time>
      </trkpt>
      <trkpt lat="47.63624" lon="6.85891">
        <ele>331.942871</ele>
        <time>2012-11-23T20:24:39+100</time>
      </trkpt>
      <trkpt lat="47.63618" lon="6.85877">
        <ele>332.94286</ele>
        <time>2012-11-23T20:24:44+100</time>
      </trkpt>
      <trkpt lat="47.63613" lon="6.85866">
        <ele>335.942848</ele>
        <time>2012-11-23T20:24:48+100</time>
      </trkpt>
      <trkpt lat="47.63607" lon="6.85856">
        <ele>337.942841</ele>
        <time>2012-11-23T20:24:53+100</time>
      </trkpt>
      <trkpt lat="47.636" lon="6.85839">
        <ele>339.942822</ele>
        <time>2012-11-23T20:25:03+100</time>
      </trkpt>
      <trkpt lat="47.63584" lon="6.85833">
        <ele>341.942795</ele>
        <time>2012-11-23T20:25:09+100</time>
      </trkpt>
      <trkpt lat="47.63576" lon="6.85828">
        <ele>341.942787</ele>
        <time>2012-11-23T20:25:14+100</time>
      </trkpt>
      <trkpt lat="47.63548" lon="6.85806">
        <ele>347.942738</ele>
        <time>2012-11-23T20:25:23+100</time>
      </trkpt>
      <trkpt lat="47.63542" lon="6.85796">
        <ele>349.942722</ele>
        <time>2012-11-23T20:25:27+100</time>
      </trkpt>
      <trkpt lat="47.63519" lon="6.85759">
        <ele>352.94268</ele>
        <time>2012-11-23T20:25:51+100</time>
      </trkpt>
      <trkpt lat="47.63518" lon="6.85749">
        <ele>355.94268</ele>
        <time>2012-11-23T20:25:55+100</time>
      </trkpt>
      <trkpt lat="47.63518" lon="6.85747">
        <ele>356.942673</ele>
        <time>2012-11-23T20:25:56+100</time>
      </trkpt>
      <trkpt lat="47.63518" lon="6.85734">
        <ele>357.942673</ele>
        <time>2012-11-23T20:26:02+100</time>
      </trkpt>
      <trkpt lat="47.63519" lon="6.85731">
        <ele>357.942677</ele>
        <time>2012-11-23T20:26:03+100</time>
      </trkpt>
      <trkpt lat="47.63519" lon="6.85727">
        <ele>358.942677</ele>
        <time>2012-11-23T20:26:05+100</time>
      </trkpt>
      <trkpt lat="47.6352" lon="6.85725">
        <ele>359.942677</ele>
        <time>2012-11-23T20:26:06+100</time>
      </trkpt>
      <trkpt lat="47.63521" lon="6.85705">
        <ele>361.942673</ele>
        <time>2012-11-23T20:26:21+100</time>
      </trkpt>
      <trkpt lat="47.63521" lon="6.857">
        <ele>362.942673</ele>
        <time>2012-11-23T20:26:23+100</time>
      </trkpt>
      <trkpt lat="47.63521" lon="6.85683">
        <ele>362.942673</ele>
        <time>2012-11-23T20:26:28+100</time>
      </trkpt>
      <trkpt lat="47.63521" lon="6.85678">
        <ele>362.942665</ele>
        <time>2012-11-23T20:26:29+100</time>
      </trkpt>
      <trkpt lat="47.63522" lon="6.85673">
        <ele>362.942669</ele>
        <time>2012-11-23T20:26:30+100</time>
      </trkpt>
      <trkpt lat="47.63523" lon="6.85668">
        <ele>362.942669</ele>
        <time>2012-11-23T20:26:31+100</time>
      </trkpt>
      <trkpt lat="47.63524" lon="6.85664">
        <ele>362.942673</ele>
        <time>2012-11-23T20:26:32+100</time>
      </trkpt>
      <trkpt lat="47.63524" lon="6.85661">
        <ele>362.942673</ele>
        <time>2012-11-23T20:26:33+100</time>
      </trkpt>
      <trkpt lat="47.63525" lon="6.85657">
        <ele>361.942673</ele>
        <time>2012-11-23T20:26:34+100</time>
      </trkpt>
      <trkpt lat="47.63526" lon="6.85653">
        <ele>361.942677</ele>
        <time>2012-11-23T20:26:35+100</time>
      </trkpt>
      <trkpt lat="47.63527" lon="6.8565">
        <ele>361.942677</ele>
        <time>2012-11-23T20:26:37+100</time>
      </trkpt>
      <trkpt lat="47.63528" lon="6.85646">
        <ele>360.942677</ele>
        <time>2012-11-23T20:26:37+100</time>
      </trkpt>
      <trkpt lat="47.63529" lon="6.85643">
        <ele>359.942673</ele>
        <time>2012-11-23T20:26:38+100</time>
      </trkpt>
      <trkpt lat="47.6353" lon="6.85639">
        <ele>359.942677</ele>
        <time>2012-11-23T20:26:39+100</time>
      </trkpt>
      <trkpt lat="47.63531" lon="6.85636">
        <ele>359.942677</ele>
        <time>2012-11-23T20:26:41+100</time>
      </trkpt>
      <trkpt lat="47.63532" lon="6.85633">
        <ele>359.942677</ele>
        <time>2012-11-23T20:26:42+100</time>
      </trkpt>
      <trkpt lat="47.63532" lon="6.85629">
        <ele>359.94268</ele>
        <time>2012-11-23T20:26:42+100</time>
      </trkpt>
      <trkpt lat="47.63533" lon="6.85625">
        <ele>359.942677</ele>
        <time>2012-11-23T20:26:43+100</time>
      </trkpt>
      <trkpt lat="47.63533" lon="6.85621">
        <ele>359.942677</ele>
        <time>2012-11-23T20:26:44+100</time>
      </trkpt>
      <trkpt lat="47.63534" lon="6.85618">
        <ele>359.942677</ele>
        <time>2012-11-23T20:26:45+100</time>
      </trkpt>
      <trkpt lat="47.63535" lon="6.85614">
        <ele>360.94268</ele>
        <time>2012-11-23T20:26:46+100</time>
      </trkpt>
      <trkpt lat="47.63536" lon="6.8561">
        <ele>361.942677</ele>
        <time>2012-11-23T20:26:47+100</time>
      </trkpt>
      <trkpt lat="47.63536" lon="6.85606">
        <ele>361.94268</ele>
        <time>2012-11-23T20:26:48+100</time>
      </trkpt>
      <trkpt lat="47.63537" lon="6.85602">
        <ele>362.94268</ele>
        <time>2012-11-23T20:26:49+100</time>
      </trkpt>
      <trkpt lat="47.63538" lon="6.85598">
        <ele>362.942684</ele>
        <time>2012-11-23T20:26:50+100</time>
      </trkpt>
      <trkpt lat="47.63538" lon="6.85595">
        <ele>363.942677</ele>
        <time>2012-11-23T20:26:52+100</time>
      </trkpt>
      <trkpt lat="47.63533" lon="6.85586">
        <ele>361.942673</ele>
        <time>2012-11-23T20:27:00+100</time>
      </trkpt>
      <trkpt lat="47.63532" lon="6.85586">
        <ele>361.942673</ele>
        <time>2012-11-23T20:27:01+100</time>
      </trkpt>
      <trkpt lat="47.63528" lon="6.85581">
        <ele>361.942661</ele>
        <time>2012-11-23T20:27:06+100</time>
      </trkpt>
    </trkseg>
  </trk>
</gpx>